[[{"header":{"parameterUnit":"m.s-1","parameterCategory":1,"la1":31.0,"la2":29.5877,"lo1":-88.7671,"lo2":-86.6584,"dy":0.0162,"dx":0.0185,"nx":115,"ny":88,"refTime":"2023-07-24T06:00:00:Z","depth":0,"parameterNumber":2,"parameterNumberName":"U-component_of_WINDS"},"data":[0.0,0.0,0.0,0.0,0.0,0.0,0.0,0.0,0.0,0.0,0.0,0.0,0.0,0.0,0.0,0.0,0.0,0.0,0.0,0.0,0.0,0.0,0.0,0.0,0.0,0.0,0.0,0.0,0.0,0.0,0.0,0.0,0.0,0.0,0.0,0.0,0.0,0.0,0.0,0.0,0.0,0.0,0.0,0.0,0.0,0.0,0.0,0.0,0.0,0.0,0.0,0.0,0.0,0.0,0.0,0.0,0.0,0.0,0.0,0.0,0.0,0.0,0.0,0.0,0.0,0.0,0.0,0.0,0.0,0.0,0.0,0.0,0.0,0.0,0.0,0.0,0.0,0.0,0.0,0.0,0.0,0.0,0.0,0.0,0.0,0.0,0.0,0.0,0.0,0.0,0.0,0.0,0.0,0.0,0.0,0.0,0.0,0.0,0.0,0.0,0.0,0.0,0.0,0.0,0.0,0.0,0.0,0.0,0.0,0.0,0.0,0.0,0.0,0.0,0.0,0.0,0.0,0.0,0.0,0.0,0.0,0.0,0.0,0.0,0.0,0.0,0.0,0.0,0.0,0.0,0.0,0.0,0.0,0.0,0.0,0.0,0.0,0.0,0.0,0.0,0.0,0.0,0.0,0.0,0.0,0.0,0.0,0.0,0.0,0.0,0.0,0.0,0.0,0.0,0.0,0.0,0.0,0.0,0.0,0.0,0.0,0.0,0.0,0.0,0.0,0.0,0.0,0.0,0.0,0.0,0.0,0.0,0.0,0.0,0.0,0.0,0.0,0.0,0.0,0.0,0.0,0.0,0.0,0.0,0.0,0.0,0.0,0.0,0.0,0.0,0.0,0.0,0.0,0.0,0.0,0.0,0.0,0.0,0.0,0.0,0.0,0.0,0.0,0.0,0.0,0.0,0.0,0.0,0.0,0.0,0.0,0.0,0.0,0.0,0.0,0.0,0.0,0.0,0.0,0.0,0.0,0.0,0.0,0.0,0.0,0.0,0.0,0.0,0.0,0.0,0.0,0.0,0.0,0.0,0.0,0.0,0.0,0.0,0.0,0.0,0.0,0.0,0.0,0.0,0.0,0.0,0.0,0.0,0.0,0.0,0.0,0.0,0.0,0.0,0.0,0.0,0.0,0.0,0.0,0.0,0.0,0.0,0.0,0.0,0.0,0.0,0.0,0.0,0.0,0.0,0.0,0.0,0.0,0.0,0.0,0.0,0.0,0.0,0.0,0.0,0.0,0.0,0.0,0.0,0.0,0.0,0.0,0.0,0.0,0.0,0.0,0.0,0.0,0.0,0.0,0.0,0.0,0.0,0.0,0.0,0.0,0.0,0.0,0.0,0.0,0.0,0.0,0.0,0.0,0.0,0.0,0.0,0.0,0.0,0.0,0.0,0.0,0.0,0.0,0.0,0.0,0.0,0.0,0.0,0.0,0.0,0.0,0.0,0.0,0.0,0.0,0.0,0.0,0.0,0.0,0.0,0.0,0.0,0.0,0.0,0.0,0.0,0.0,0.0,0.0,0.0,0.0,0.0,0.0,0.0,0.0,0.0,0.0,0.0,0.0,0.0,0.0,0.0,0.0,0.0,0.0,0.0,0.0,0.0,0.0,0.0,0.0,0.0,0.0,0.0,0.0,0.0,0.0,0.0,0.0,0.0,0.0,0.0,0.0,0.0,0.0,0.0,0.0,0.0,0.0,0.0,0.0,0.0,0.0,0.0,0.0,0.0,0.0,0.0,0.0,0.0,0.0,0.0,0.0,0.0,0.0,0.0,0.0,0.0,0.0,0.0,0.0,0.0,0.0,0.0,0.0,0.0,0.0,0.0,0.0,0.0,0.0,0.0,0.0,0.0,0.0,0.0,0.0,0.0,0.0,0.0,0.0,0.0,0.0,0.0,0.0,0.0,0.0,0.0,0.0,0.0,0.0,0.0,0.0,0.0,0.0,0.0,0.0,0.0,0.0,0.0,0.0,0.0,0.0,0.0,0.0,0.0,0.0,0.0,0.0,0.0,0.0,0.0,0.0,0.0,0.0,0.0,0.0,0.0,0.0,0.0,0.0,0.0,0.0,0.0,0.0,0.0,0.0,0.0,0.0,0.0,0.0,0.0,0.0,0.0,0.0,0.0,0.0,0.0,0.0,0.0,0.0,0.0,0.0,0.0,0.0,0.0,0.0,0.0,0.0,0.0,0.0,0.0,0.0,0.0,0.0,0.0,0.0,0.0,0.0,0.0,0.0,0.0,0.0,0.0,0.0,0.0,0.0,0.0,0.0,0.0,0.0,0.0,0.0,0.0,0.0,0.0,0.0,0.0,0.0,0.0,0.0,0.0,0.0,0.0,0.0,0.0,0.0,0.0,0.0,0.0,0.0,0.0,0.0,0.0,0.0,0.0,0.0,0.0,0.0,0.0,0.0,0.0,0.0,0.0,0.0,0.0,0.0,0.0,0.0,0.0,0.0,0.0,0.0,0.0,0.0,0.0,0.0,0.0,0.0,0.0,0.0,0.0,0.0,0.0,0.0,0.0,0.0,0.0,0.0,0.0,0.0,0.0,0.0,0.0,0.0,0.0,0.0,0.0,0.0,0.0,0.0,0.0,0.0,0.0,0.0,0.0,0.0,0.0,0.0,0.0,0.0,0.0,0.0,0.0,0.0,0.0,0.0,0.0,0.0,0.0,0.0,0.0,0.0,0.0,0.0,0.0,0.0,0.0,0.0,0.0,0.0,0.0,0.0,0.0,0.0,0.0,0.0,0.0,0.0,0.0,0.0,0.0,0.0,0.0,0.0,0.0,0.0,0.0,0.0,0.0,0.0,0.0,0.0,0.0,0.0,0.0,0.0,0.0,0.0,0.0,0.0,0.0,0.0,0.0,0.0,0.0,0.0,0.0,0.0,0.0,0.0,0.0,0.0,0.0,0.0,0.0,0.0,0.0,0.0,0.0,0.0,0.0,0.0,0.0,0.0,0.0,0.0,0.0,0.0,0.0,0.0,0.0,0.0,0.0,0.0,0.0,0.0,0.0,0.0,0.0,0.0,0.0,0.0,0.0,0.0,0.0,0.0,0.0,0.0,0.0,0.0,0.0,0.0,0.0,0.0,0.0,0.0,0.0,0.0,0.0,0.0,0.0,0.0,0.0,0.0,0.0,0.0,0.0,0.0,0.0,0.0,0.0,0.0,0.0,0.0,0.0,0.0,0.0,0.0,0.0,0.0,0.0,0.0,0.0,0.0,0.0,0.0,0.0,0.0,0.0,0.0,0.0,0.0,0.0,0.0,0.0,0.0,0.0,0.0,0.0,0.0,0.0,0.0,0.0,0.0,0.0,0.0,0.0,0.0,0.0,0.0,0.0,0.0,0.0,0.0,0.0,0.0,0.0,0.0,0.0,0.0,0.0,0.0,0.0,0.0,0.0,0.0,0.0,0.0,0.0,0.0,0.0,0.0,0.0,0.0,0.0,0.0,0.0,0.0,0.0,0.0,0.0,0.0,0.0,0.0,0.0,0.0,0.0,0.0,0.0,0.0,0.0,0.0,0.0,0.0,0.0,0.0,0.0,0.0,0.0,0.0,0.0,0.0,0.0,0.0,0.0,0.0,0.0,0.0,0.0,0.0,0.0,0.0,0.0,0.0,0.0,0.0,0.0,0.0,0.0,0.0,0.0,0.0,0.0,0.0,0.0,0.0,0.0,0.0,0.0,0.0,0.0,0.0,0.0,0.0,0.0,0.0,0.0,0.0,0.0,0.0,0.0,0.0,0.0,0.0,0.0,0.0,0.0,0.0,0.0,0.0,0.0,0.0,0.0,0.0,0.0,0.0,0.0,0.0,0.0,0.0,0.0,0.0,0.0,0.0,0.0,0.0,0.0,0.0,0.0,0.0,0.0,0.0,0.0,0.0,0.0,0.0,0.0,0.0,0.0,0.0,0.0,0.0,0.0,0.0,0.0,0.0,0.0,0.0,0.0,0.0,0.0,0.0,0.0,0.0,0.0,0.0,0.0,0.0,0.0,0.0,0.0,0.0,0.0,0.0,0.0,0.0,0.0,0.0,0.0,0.0,0.0,0.0,0.0,0.0,0.0,0.0,0.0,0.0,0.0,0.0,0.0,0.0,0.0,0.0,0.0,0.0,0.0,0.0,0.0,0.0,0.0,0.0,0.0,0.0,0.0,0.0,0.0,0.0,0.0,0.0,0.0,0.0,0.0,0.0,0.0,0.0,0.0,0.0,0.0,0.0,0.0,0.0,0.0,0.0,0.0,0.0,0.0,0.0,0.0,-1.929,0.0,0.0,0.0,0.0,0.0,0.0,0.0,0.0,0.0,0.0,0.0,0.0,0.0,0.0,0.0,0.0,0.0,0.0,0.0,0.0,0.0,0.0,0.0,0.0,0.0,0.0,0.0,0.0,0.0,0.0,0.0,0.0,0.0,0.0,0.0,0.0,0.0,0.0,0.0,0.0,0.0,0.0,0.0,0.0,0.0,0.0,0.0,0.0,0.0,0.0,0.0,0.0,0.0,0.0,0.0,0.0,0.0,0.0,0.0,0.0,0.0,0.0,0.0,0.0,0.0,0.0,0.0,0.0,0.0,0.0,0.0,0.0,0.0,0.0,0.0,0.0,0.0,0.0,0.0,0.0,0.0,0.0,0.0,0.0,0.0,0.0,0.0,0.0,0.0,0.0,0.0,0.0,0.0,0.0,0.0,0.0,0.0,0.0,0.0,0.0,0.0,0.0,0.0,0.0,0.0,0.0,0.0,0.0,0.0,0.0,-2.0208,-1.9815,-1.9865,-1.9705,-1.9321,0.0,0.0,0.0,0.0,0.0,0.0,0.0,0.0,0.0,0.0,0.0,0.0,0.0,0.0,0.0,0.0,0.0,0.0,0.0,0.0,0.0,0.0,0.0,0.0,0.0,0.0,0.0,0.0,0.0,0.0,0.0,0.0,0.0,0.0,0.0,0.0,0.0,0.0,0.0,0.0,0.0,0.0,0.0,0.0,0.0,0.0,0.0,0.0,0.0,0.0,0.0,0.0,0.0,0.0,0.0,0.0,0.0,0.0,0.0,0.0,0.0,0.0,0.0,0.0,0.0,0.0,0.0,0.0,0.0,0.0,0.0,0.0,0.0,0.0,0.0,0.0,0.0,0.0,0.0,0.0,0.0,0.0,0.0,0.0,0.0,0.0,0.0,0.0,0.0,0.0,0.0,0.0,0.0,0.0,0.0,0.0,0.0,0.0,0.0,0.0,0.0,0.0,0.0,0.0,0.0,0.0,0.0,0.0,0.0,0.0,0.0,0.0,-2.0564,-2.0138,-1.9375,0.0,0.0,0.0,0.0,0.0,0.0,0.0,0.0,0.0,0.0,0.0,0.0,0.0,0.0,0.0,0.0,0.0,0.0,0.0,0.0,0.0,0.0,0.0,0.0,0.0,0.0,0.0,0.0,0.0,0.0,0.0,0.0,0.0,0.0,0.0,0.0,0.0,0.0,0.0,0.0,0.0,0.0,0.0,0.0,0.0,0.0,0.0,0.0,0.0,0.0,0.0,0.0,0.0,0.0,0.0,0.0,0.0,0.0,0.0,0.0,0.0,0.0,0.0,0.0,0.0,0.0,0.0,0.0,0.0,0.0,0.0,0.0,0.0,0.0,0.0,0.0,0.0,0.0,0.0,0.0,0.0,0.0,0.0,0.0,0.0,0.0,0.0,0.0,0.0,0.0,0.0,0.0,0.0,0.0,0.0,0.0,0.0,0.0,0.0,0.0,0.0,0.0,0.0,0.0,0.0,0.0,0.0,0.0,0.0,0.0,-2.1516,-2.1576,-2.0888,0.0,-1.9461,0.0,0.0,0.0,0.0,0.0,0.0,0.0,0.0,0.0,0.0,0.0,0.0,0.0,0.0,0.0,0.0,0.0,0.0,0.0,0.0,0.0,0.0,0.0,0.0,0.0,0.0,0.0,0.0,0.0,0.0,0.0,0.0,0.0,0.0,0.0,0.0,0.0,0.0,0.0,0.0,0.0,0.0,0.0,0.0,0.0,0.0,0.0,0.0,0.0,0.0,0.0,0.0,0.0,0.0,0.0,0.0,0.0,0.0,0.0,0.0,0.0,0.0,0.0,0.0,0.0,0.0,0.0,0.0,0.0,0.0,0.0,0.0,0.0,0.0,0.0,0.0,0.0,0.0,0.0,0.0,0.0,0.0,0.0,0.0,0.0,0.0,0.0,0.0,0.0,0.0,0.0,0.0,0.0,0.0,0.0,0.0,0.0,0.0,0.0,0.0,0.0,0.0,0.0,0.0,0.0,0.0,0.0,0.0,0.0,0.0,-2.2705,-2.2365,-2.1233,-2.0486,0.0,0.0,0.0,0.0,0.0,0.0,0.0,0.0,0.0,0.0,0.0,0.0,0.0,0.0,0.0,0.0,0.0,0.0,0.0,0.0,0.0,0.0,0.0,0.0,0.0,0.0,0.0,0.0,0.0,0.0,0.0,0.0,0.0,0.0,0.0,0.0,0.0,0.0,0.0,0.0,0.0,0.0,0.0,0.0,0.0,0.0,0.0,0.0,0.0,0.0,0.0,0.0,0.0,0.0,0.0,0.0,0.0,0.0,0.0,0.0,0.0,0.0,0.0,0.0,0.0,0.0,0.0,0.0,0.0,0.0,0.0,0.0,0.0,0.0,0.0,0.0,0.0,0.0,0.0,0.0,0.0,0.0,0.0,0.0,0.0,0.0,0.0,0.0,0.0,0.0,0.0,0.0,0.0,0.0,0.0,0.0,0.0,0.0,0.0,0.0,0.0,0.0,0.0,0.0,0.0,0.0,0.0,0.0,0.0,0.0,-2.3816,-2.3515,-2.284,-2.1696,-2.0936,-2.0709,0.0,0.0,0.0,0.0,0.0,0.0,0.0,0.0,0.0,0.0,0.0,0.0,0.0,0.0,0.0,0.0,0.0,0.0,0.0,0.0,0.0,0.0,0.0,0.0,0.0,0.0,0.0,0.0,0.0,0.0,0.0,0.0,0.0,0.0,0.0,0.0,0.0,0.0,0.0,0.0,0.0,0.0,0.0,0.0,0.0,0.0,0.0,0.0,0.0,0.0,0.0,0.0,0.0,0.0,0.0,0.0,0.0,0.0,0.0,0.0,0.0,0.0,0.0,0.0,0.0,0.0,0.0,0.0,0.0,0.0,0.0,0.0,0.0,0.0,0.0,0.0,0.0,0.0,0.0,0.0,0.0,0.0,0.0,0.0,0.0,0.0,0.0,0.0,0.0,0.0,0.0,0.0,0.0,0.0,0.0,0.0,0.0,0.0,0.0,0.0,0.0,0.0,0.0,0.0,0.0,0.0,0.0,0.0,-2.3806,-2.3876,-2.3623,-2.3033,-2.2292,-2.1554,0.0,0.0,0.0,0.0,0.0,0.0,0.0,0.0,0.0,0.0,0.0,0.0,0.0,0.0,0.0,0.0,0.0,0.0,0.0,0.0,0.0,0.0,0.0,0.0,0.0,0.0,0.0,0.0,0.0,0.0,0.0,0.0,0.0,0.0,0.0,0.0,0.0,0.0,0.0,0.0,0.0,0.0,0.0,0.0,0.0,0.0,0.0,0.0,0.0,0.0,0.0,0.0,0.0,0.0,0.0,0.0,0.0,0.0,0.0,0.0,0.0,0.0,0.0,0.0,0.0,0.0,0.0,0.0,0.0,0.0,0.0,0.0,0.0,0.0,0.0,0.0,0.0,0.0,0.0,0.0,0.0,0.0,0.0,0.0,0.0,0.0,0.0,0.0,0.0,0.0,0.0,0.0,0.0,0.0,0.0,0.0,0.0,0.0,0.0,0.0,0.0,0.0,0.0,0.0,0.0,0.0,0.0,0.0,0.0,-2.3876,-2.3958,-2.3986,-2.3878,-2.3169,-2.2399,0.0,0.0,0.0,0.0,0.0,0.0,0.0,0.0,0.0,0.0,0.0,0.0,0.0,0.0,0.0,0.0,0.0,0.0,0.0,0.0,0.0,0.0,0.0,0.0,0.0,0.0,0.0,0.0,0.0,0.0,0.0,0.0,0.0,0.0,0.0,0.0,0.0,0.0,0.0,0.0,0.0,0.0,0.0,0.0,0.0,0.0,0.0,0.0,0.0,0.0,0.0,0.0,0.0,0.0,0.0,0.0,0.0,0.0,0.0,0.0,0.0,0.0,0.0,0.0,0.0,0.0,0.0,0.0,0.0,0.0,0.0,0.0,0.0,0.0,0.0,0.0,0.0,0.0,0.0,0.0,0.0,0.0,0.0,0.0,0.0,0.0,0.0,0.0,0.0,0.0,0.0,0.0,0.0,0.0,0.0,0.0,0.0,0.0,0.0,0.0,0.0,0.0,0.0,0.0,0.0,0.0,0.0,0.0,0.0,-2.3958,0.0,-2.42,-2.4294,-2.3631,-2.2999,0.0,0.0,0.0,0.0,0.0,0.0,0.0,0.0,0.0,0.0,0.0,0.0,0.0,0.0,0.0,0.0,0.0,0.0,0.0,0.0,0.0,0.0,0.0,0.0,0.0,0.0,0.0,0.0,0.0,0.0,0.0,0.0,0.0,0.0,0.0,0.0,0.0,0.0,0.0,0.0,0.0,0.0,0.0,0.0,0.0,0.0,0.0,0.0,0.0,0.0,0.0,0.0,0.0,0.0,0.0,0.0,0.0,0.0,0.0,0.0,0.0,0.0,0.0,0.0,0.0,0.0,0.0,0.0,0.0,0.0,0.0,0.0,0.0,0.0,0.0,0.0,0.0,0.0,0.0,0.0,0.0,0.0,0.0,0.0,0.0,0.0,0.0,0.0,0.0,0.0,0.0,0.0,0.0,0.0,0.0,0.0,0.0,0.0,0.0,0.0,0.0,0.0,0.0,0.0,0.0,0.0,0.0,0.0,-2.3976,-2.4094,-2.4154,-2.421,-2.4209,-2.3704,-2.3324,0.0,0.0,0.0,0.0,0.0,0.0,0.0,0.0,0.0,0.0,0.0,0.0,0.0,0.0,0.0,0.0,0.0,0.0,0.0,0.0,0.0,0.0,0.0,0.0,0.0,0.0,0.0,0.0,0.0,0.0,0.0,0.0,0.0,0.0,0.0,0.0,0.0,0.0,0.0,0.0,0.0,0.0,0.0,0.0,0.0,0.0,0.0,0.0,0.0,0.0,0.0,0.0,0.0,0.0,0.0,0.0,0.0,0.0,0.0,0.0,0.0,0.0,0.0,0.0,0.0,0.0,0.0,0.0,0.0,0.0,0.0,0.0,0.0,0.0,0.0,0.0,0.0,0.0,0.0,0.0,0.0,0.0,0.0,0.0,0.0,0.0,0.0,0.0,0.0,0.0,0.0,0.0,0.0,0.0,0.0,0.0,0.0,0.0,0.0,0.0,0.0,0.0,0.0,0.0,0.0,0.0,0.0,0.0,0.0,-2.4103,-2.4238,-2.4338,-2.4329,-2.4263,-2.3953,0.0,0.0,0.0,0.0,0.0,0.0,0.0,0.0,0.0,0.0,0.0,0.0,0.0,0.0,0.0,0.0,0.0,0.0,0.0,0.0,0.0,0.0,0.0,0.0,0.0,0.0,0.0,0.0,0.0,0.0,0.0,0.0,0.0,0.0,0.0,0.0,0.0,0.0,0.0,0.0,0.0,0.0,0.0,0.0,0.0,0.0,0.0,0.0,0.0,0.0,0.0,0.0,0.0,0.0,0.0,0.0,0.0,0.0,0.0,0.0,0.0,0.0,0.0,0.0,0.0,0.0,0.0,0.0,0.0,0.0,0.0,0.0,0.0,0.0,0.0,0.0,0.0,0.0,0.0,0.0,0.0,0.0,0.0,0.0,0.0,0.0,0.0,0.0,0.0,0.0,0.0,0.0,0.0,0.0,0.0,0.0,0.0,0.0,0.0,0.0,0.0,0.0,0.0,0.0,0.0,0.0,0.0,0.0,0.0,-2.4764,-2.4915,-2.4991,-2.4957,-2.5091,-2.4775,-2.3945,0.0,0.0,0.0,0.0,0.0,0.0,0.0,0.0,0.0,0.0,0.0,0.0,0.0,0.0,0.0,0.0,0.0,0.0,0.0,0.0,0.0,0.0,0.0,0.0,0.0,0.0,0.0,0.0,0.0,0.0,0.0,0.0,0.0,0.0,0.0,0.0,0.0,0.0,0.0,0.0,0.0,0.0,0.0,0.0,0.0,0.0,0.0,0.0,0.0,0.0,0.0,0.0,0.0,0.0,0.0,0.0,0.0,0.0,0.0,0.0,0.0,0.0,0.0,0.0,0.0,0.0,0.0,0.0,0.0,0.0,0.0,0.0,0.0,0.0,0.0,0.0,0.0,0.0,0.0,0.0,0.0,0.0,0.0,0.0,0.0,0.0,0.0,0.0,0.0,0.0,0.0,0.0,0.0,0.0,0.0,0.0,0.0,0.0,0.0,0.0,0.0,0.0,0.0,0.0,0.0,0.0,0.0,0.0,-2.5984,-2.6101,-2.6083,-2.5909,-2.6016,-2.5642,0.0,0.0,0.0,0.0,0.0,0.0,0.0,0.0,0.0,0.0,0.0,0.0,0.0,0.0,0.0,0.0,0.0,0.0,0.0,0.0,0.0,0.0,0.0,0.0,0.0,0.0,0.0,0.0,0.0,0.0,0.0,0.0,0.0,0.0,0.0,0.0,0.0,0.0,0.0,0.0,0.0,0.0,0.0,0.0,0.0,0.0,0.0,0.0,0.0,0.0,0.0,0.0,0.0,0.0,0.0,0.0,0.0,0.0,0.0,0.0,0.0,0.0,0.0,0.0,0.0,0.0,0.0,0.0,0.0,0.0,0.0,0.0,0.0,0.0,0.0,0.0,0.0,0.0,0.0,0.0,0.0,0.0,0.0,0.0,0.0,0.0,0.0,0.0,0.0,0.0,0.0,0.0,0.0,0.0,0.0,0.0,0.0,0.0,0.0,0.0,0.0,0.0,0.0,0.0,0.0,0.0,0.0,0.0,0.0,-2.6998,-2.7804,-2.7551,-2.6192,-2.6109,-2.5702,0.0,0.0,0.0,0.0,0.0,0.0,0.0,0.0,0.0,0.0,0.0,0.0,0.0,0.0,0.0,0.0,0.0,0.0,0.0,0.0,0.0,0.0,0.0,0.0,0.0,0.0,0.0,0.0,0.0,0.0,0.0,0.0,0.0,0.0,0.0,0.0,0.0,0.0,0.0,0.0,0.0,0.0,0.0,0.0,0.0,0.0,0.0,0.0,0.0,0.0,0.0,0.0,0.0,0.0,0.0,0.0,0.0,0.0,0.0,0.0,0.0,0.0,0.0,0.0,0.0,0.0,0.0,0.0,0.0,0.0,0.0,0.0,0.0,0.0,0.0,0.0,0.0,0.0,0.0,0.0,0.0,0.0,0.0,0.0,0.0,0.0,0.0,0.0,0.0,0.0,0.0,0.0,0.0,0.0,0.0,0.0,0.0,0.0,0.0,0.0,0.0,0.0,0.0,0.0,0.0,0.0,0.0,0.0,-2.682,-2.7483,-2.8849,-2.8893,-2.7447,-2.6979,-2.6318,0.0,0.0,0.0,0.0,0.0,0.0,0.0,0.0,0.0,0.0,0.0,0.0,0.0,0.0,0.0,0.0,0.0,0.0,0.0,0.0,0.0,0.0,0.0,0.0,0.0,0.0,0.0,0.0,0.0,0.0,0.0,0.0,0.0,0.0,0.0,0.0,0.0,0.0,0.0,0.0,0.0,0.0,0.0,0.0,0.0,0.0,0.0,0.0,0.0,0.0,0.0,0.0,0.0,0.0,0.0,0.0,0.0,0.0,0.0,0.0,0.0,0.0,0.0,0.0,0.0,0.0,0.0,0.0,0.0,0.0,0.0,0.0,0.0,0.0,0.0,0.0,0.0,0.0,0.0,0.0,0.0,0.0,0.0,0.0,0.0,0.0,0.0,0.0,0.0,0.0,0.0,0.0,0.0,0.0,0.0,0.0,0.0,0.0,0.0,0.0,0.0,0.0,0.0,0.0,0.0,0.0,0.0,0.0,-2.7463,-2.7757,-2.948,-3.0019,-2.9256,-2.8173,-2.7124,0.0,0.0,0.0,0.0,0.0,0.0,0.0,0.0,0.0,0.0,0.0,0.0,0.0,0.0,0.0,0.0,0.0,0.0,0.0,0.0,0.0,0.0,0.0,0.0,0.0,0.0,0.0,0.0,0.0,0.0,0.0,0.0,0.0,0.0,0.0,0.0,0.0,0.0,0.0,0.0,0.0,0.0,0.0,0.0,0.0,0.0,0.0,0.0,0.0,0.0,0.0,0.0,0.0,0.0,0.0,0.0,0.0,0.0,0.0,0.0,0.0,0.0,0.0,0.0,0.0,0.0,0.0,0.0,0.0,0.0,0.0,0.0,0.0,0.0,0.0,0.0,0.0,0.0,0.0,0.0,0.0,0.0,0.0,0.0,0.0,0.0,0.0,0.0,0.0,0.0,0.0,0.0,0.0,0.0,0.0,0.0,0.0,0.0,0.0,0.0,0.0,0.0,0.0,0.0,0.0,0.0,0.0,0.0,-2.7828,-2.8696,-2.9799,-3.0308,-3.0115,-2.8479,-2.721,0.0,0.0,0.0,0.0,0.0,0.0,0.0,0.0,0.0,0.0,0.0,0.0,0.0,0.0,0.0,0.0,0.0,0.0,0.0,0.0,0.0,0.0,0.0,0.0,0.0,0.0,0.0,0.0,0.0,0.0,0.0,0.0,0.0,0.0,0.0,0.0,0.0,0.0,0.0,0.0,0.0,0.0,0.0,0.0,0.0,0.0,0.0,0.0,-1.6002,0.0,0.0,0.0,0.0,0.0,0.0,0.0,0.0,0.0,0.0,0.0,0.0,0.0,0.0,0.0,0.0,0.0,0.0,0.0,0.0,0.0,0.0,0.0,0.0,0.0,0.0,0.0,0.0,0.0,0.0,0.0,0.0,0.0,0.0,0.0,0.0,0.0,0.0,0.0,0.0,0.0,0.0,0.0,0.0,0.0,0.0,0.0,0.0,0.0,0.0,0.0,0.0,0.0,0.0,0.0,0.0,0.0,0.0,0.0,-2.7925,-2.897,-2.992,-3.0404,-3.034,-2.8613,-2.7427,0.0,0.0,0.0,0.0,0.0,0.0,0.0,0.0,0.0,0.0,0.0,0.0,0.0,0.0,0.0,0.0,0.0,0.0,0.0,0.0,0.0,0.0,0.0,0.0,0.0,0.0,0.0,0.0,0.0,0.0,0.0,0.0,0.0,0.0,0.0,0.0,0.0,0.0,0.0,0.0,0.0,0.0,0.0,0.0,0.0,0.0,0.0,0.0,0.0,0.0,0.0,0.0,0.0,0.0,0.0,0.0,0.0,0.0,0.0,0.0,0.0,0.0,0.0,0.0,0.0,0.0,0.0,0.0,0.0,0.0,0.0,0.0,0.0,0.0,0.0,0.0,0.0,0.0,0.0,0.0,0.0,0.0,0.0,0.0,0.0,0.0,0.0,0.0,0.0,0.0,0.0,0.0,0.0,0.0,0.0,0.0,0.0,0.0,0.0,0.0,0.0,0.0,0.0,0.0,0.0,0.0,0.0,-2.6987,-2.8003,-2.9187,-2.9984,-3.0404,-3.0365,-2.8656,-2.7689,-2.7566,0.0,0.0,0.0,0.0,0.0,0.0,0.0,0.0,0.0,0.0,0.0,0.0,0.0,0.0,0.0,0.0,0.0,0.0,0.0,0.0,0.0,0.0,0.0,0.0,0.0,0.0,0.0,0.0,0.0,0.0,0.0,0.0,0.0,0.0,0.0,0.0,0.0,0.0,-1.5711,-1.5013,0.0,0.0,0.0,0.0,0.0,0.0,0.0,0.0,-1.4526,0.0,0.0,0.0,0.0,0.0,0.0,0.0,0.0,0.0,0.0,0.0,0.0,0.0,0.0,0.0,0.0,0.0,0.0,0.0,0.0,0.0,0.0,0.0,0.0,0.0,0.0,0.0,0.0,0.0,0.0,0.0,0.0,0.0,0.0,0.0,0.0,0.0,0.0,0.0,0.0,0.0,0.0,0.0,0.0,0.0,0.0,0.0,0.0,0.0,0.0,0.0,0.0,0.0,0.0,0.0,0.0,-2.7123,-2.7433,-2.8415,-3.013,-3.0321,-3.0404,-3.0346,-2.8712,-2.7739,-2.7535,0.0,0.0,0.0,0.0,0.0,0.0,0.0,0.0,0.0,0.0,0.0,0.0,0.0,0.0,0.0,0.0,0.0,0.0,0.0,0.0,0.0,0.0,0.0,0.0,0.0,0.0,0.0,0.0,0.0,0.0,0.0,0.0,0.0,0.0,0.0,0.0,0.0,0.0,0.0,-1.5165,-1.4442,0.0,0.0,0.0,0.0,0.0,0.0,0.0,0.0,-1.4144,0.0,0.0,0.0,0.0,0.0,0.0,0.0,0.0,0.0,0.0,0.0,0.0,0.0,0.0,0.0,0.0,0.0,0.0,0.0,0.0,0.0,0.0,0.0,0.0,0.0,0.0,0.0,0.0,0.0,0.0,0.0,0.0,0.0,0.0,0.0,0.0,0.0,0.0,0.0,0.0,0.0,0.0,0.0,0.0,0.0,0.0,0.0,0.0,0.0,0.0,0.0,0.0,0.0,0.0,0.0,-2.7354,-2.7998,-2.8996,-3.034,-3.0404,-3.0404,-3.0365,-2.8712,-2.7751,0.0,0.0,0.0,0.0,0.0,0.0,0.0,0.0,0.0,0.0,0.0,0.0,0.0,0.0,0.0,0.0,0.0,0.0,0.0,0.0,0.0,0.0,0.0,0.0,0.0,0.0,0.0,0.0,0.0,0.0,0.0,0.0,0.0,0.0,0.0,0.0,0.0,0.0,0.0,0.0,-1.4808,-1.4495,-1.5151,0.0,0.0,0.0,0.0,0.0,0.0,-1.5218,-1.5021,0.0,0.0,0.0,0.0,0.0,0.0,0.0,0.0,0.0,0.0,0.0,0.0,0.0,0.0,0.0,0.0,0.0,0.0,0.0,0.0,0.0,0.0,0.0,0.0,0.0,0.0,0.0,0.0,0.0,0.0,0.0,0.0,0.0,0.0,0.0,0.0,0.0,0.0,0.0,0.0,0.0,0.0,0.0,0.0,0.0,0.0,0.0,0.0,0.0,0.0,0.0,0.0,0.0,0.0,0.0,-2.7418,-2.8465,-2.9461,-3.034,-3.0404,-3.0404,-3.0365,-2.8712,-2.7751,0.0,0.0,0.0,0.0,0.0,0.0,0.0,0.0,0.0,0.0,0.0,0.0,0.0,0.0,0.0,0.0,0.0,0.0,0.0,0.0,0.0,0.0,0.0,0.0,0.0,0.0,0.0,0.0,0.0,0.0,0.0,0.0,0.0,0.0,0.0,0.0,0.0,0.0,0.0,0.0,0.0,-1.4794,-1.5468,-1.5188,0.0,0.0,0.0,0.0,-1.6183,-1.6427,0.0,0.0,0.0,0.0,0.0,0.0,0.0,0.0,0.0,0.0,0.0,0.0,0.0,0.0,0.0,0.0,0.0,0.0,0.0,0.0,0.0,0.0,0.0,0.0,0.0,0.0,0.0,0.0,0.0,0.0,0.0,0.0,0.0,0.0,0.0,0.0,0.0,0.0,0.0,0.0,0.0,0.0,0.0,0.0,0.0,0.0,0.0,0.0,0.0,0.0,0.0,0.0,0.0,0.0,0.0,0.0,-2.7471,-2.8491,-2.9455,-3.034,-3.0404,-3.0404,-3.0385,-2.8656,-2.7707,0.0,0.0,0.0,0.0,0.0,0.0,0.0,0.0,0.0,0.0,0.0,0.0,0.0,0.0,0.0,0.0,0.0,0.0,0.0,0.0,0.0,0.0,0.0,0.0,0.0,0.0,0.0,0.0,0.0,0.0,0.0,0.0,0.0,0.0,0.0,0.0,0.0,0.0,0.0,0.0,0.0,-1.561,-1.6943,-1.6438,-1.5954,0.0,0.0,-1.7423,-1.74,-1.8195,0.0,0.0,0.0,0.0,0.0,0.0,0.0,0.0,0.0,0.0,0.0,0.0,0.0,0.0,0.0,0.0,0.0,0.0,0.0,0.0,0.0,0.0,0.0,0.0,0.0,0.0,0.0,0.0,0.0,0.0,0.0,0.0,0.0,0.0,0.0,0.0,0.0,0.0,0.0,0.0,0.0,0.0,0.0,0.0,0.0,0.0,0.0,0.0,0.0,0.0,0.0,0.0,0.0,0.0,0.0,-2.7195,-2.7596,-2.9034,-3.0003,-3.0385,-3.0404,-3.039,-3.0394,-2.8678,-2.7748,0.0,0.0,0.0,0.0,0.0,0.0,0.0,0.0,0.0,0.0,0.0,0.0,0.0,0.0,0.0,0.0,0.0,0.0,0.0,0.0,0.0,0.0,0.0,0.0,0.0,0.0,0.0,0.0,0.0,0.0,0.0,0.0,0.0,0.0,0.0,0.0,0.0,0.0,0.0,0.0,0.0,0.0,-1.7529,-1.7552,0.0,0.0,0.0,-1.8824,-1.84,0.0,0.0,0.0,0.0,0.0,0.0,0.0,0.0,0.0,0.0,0.0,0.0,0.0,0.0,0.0,0.0,0.0,0.0,0.0,0.0,0.0,0.0,0.0,0.0,0.0,0.0,0.0,0.0,0.0,0.0,0.0,0.0,0.0,0.0,0.0,0.0,0.0,0.0,0.0,0.0,0.0,0.0,0.0,0.0,0.0,0.0,0.0,0.0,0.0,0.0,0.0,0.0,0.0,0.0,0.0,0.0,0.0,-2.7942,-2.955,-3.039,-3.0404,-3.039,-3.0389,-3.0378,-2.8928,0.0,0.0,0.0,0.0,0.0,0.0,0.0,0.0,0.0,0.0,0.0,0.0,0.0,0.0,0.0,0.0,0.0,0.0,0.0,0.0,0.0,0.0,0.0,0.0,0.0,0.0,0.0,-1.5578,0.0,0.0,0.0,0.0,0.0,0.0,0.0,0.0,0.0,0.0,0.0,0.0,0.0,0.0,-1.8093,-1.8522,-1.8881,-1.9306,0.0,0.0,-1.9999,-1.9694,-2.0958,-2.1362,0.0,0.0,0.0,0.0,0.0,0.0,0.0,0.0,0.0,0.0,0.0,0.0,0.0,0.0,0.0,0.0,0.0,0.0,0.0,0.0,0.0,0.0,0.0,0.0,0.0,0.0,0.0,0.0,0.0,0.0,0.0,0.0,0.0,0.0,0.0,0.0,0.0,0.0,0.0,0.0,0.0,0.0,0.0,0.0,0.0,0.0,0.0,0.0,0.0,0.0,0.0,0.0,0.0,0.0,0.0,-2.8823,-2.9855,-3.04,-3.0404,-3.0394,-3.0392,-3.0378,-2.9569,-2.8717,0.0,0.0,0.0,0.0,0.0,0.0,0.0,0.0,0.0,0.0,0.0,0.0,0.0,0.0,0.0,0.0,0.0,0.0,0.0,0.0,0.0,0.0,0.0,0.0,0.0,0.0,0.0,0.0,0.0,0.0,0.0,0.0,0.0,0.0,0.0,0.0,0.0,0.0,0.0,0.0,0.0,-1.9549,-2.0551,-2.062,-2.0883,0.0,0.0,-2.0678,-2.1551,-2.2415,-2.2598,-2.1475,0.0,0.0,0.0,0.0,0.0,0.0,0.0,0.0,0.0,0.0,0.0,0.0,0.0,0.0,0.0,0.0,0.0,0.0,0.0,0.0,0.0,0.0,0.0,0.0,0.0,0.0,0.0,0.0,0.0,0.0,0.0,0.0,0.0,0.0,0.0,0.0,0.0,0.0,0.0,0.0,0.0,0.0,0.0,0.0,0.0,0.0,0.0,0.0,0.0,0.0,0.0,0.0,0.0,-2.8712,-2.8983,-2.996,-3.0458,-3.0447,-3.0458,-3.0486,-3.0505,-2.971,-2.885,0.0,0.0,0.0,0.0,0.0,0.0,0.0,0.0,0.0,0.0,0.0,0.0,0.0,0.0,0.0,0.0,0.0,0.0,0.0,0.0,0.0,0.0,0.0,0.0,0.0,0.0,0.0,0.0,-1.7388,-1.7211,-1.6576,0.0,0.0,0.0,0.0,0.0,0.0,0.0,0.0,0.0,0.0,-2.0654,-2.1619,-2.1567,0.0,0.0,-2.1598,-2.1297,-2.176,-2.2555,-2.2765,-2.1826,-2.1722,0.0,0.0,0.0,0.0,0.0,0.0,0.0,0.0,0.0,0.0,0.0,0.0,0.0,0.0,0.0,0.0,0.0,0.0,0.0,0.0,0.0,0.0,0.0,0.0,0.0,0.0,0.0,0.0,0.0,0.0,0.0,0.0,0.0,0.0,0.0,0.0,0.0,0.0,0.0,0.0,0.0,0.0,0.0,0.0,0.0,0.0,0.0,0.0,0.0,0.0,0.0,0.0,-2.9219,-2.9378,-3.0109,-3.049,-3.0485,-3.052,-3.0543,-3.0599,-3.003,-2.9352,0.0,0.0,0.0,0.0,0.0,0.0,0.0,0.0,0.0,0.0,0.0,0.0,0.0,0.0,0.0,0.0,0.0,0.0,0.0,0.0,0.0,0.0,0.0,0.0,0.0,0.0,0.0,0.0,-1.8422,-1.8439,-1.788,0.0,0.0,0.0,0.0,0.0,0.0,0.0,0.0,0.0,0.0,-2.166,-2.2342,-2.2253,-2.2176,-2.252,-2.2048,-2.1791,-2.2126,-2.272,-2.2968,-2.2376,0.0,0.0,0.0,0.0,0.0,0.0,0.0,0.0,0.0,0.0,0.0,0.0,0.0,0.0,0.0,0.0,0.0,0.0,0.0,0.0,0.0,0.0,0.0,0.0,0.0,0.0,0.0,0.0,0.0,0.0,-2.559,0.0,0.0,0.0,0.0,0.0,0.0,0.0,0.0,0.0,0.0,0.0,0.0,0.0,0.0,0.0,0.0,0.0,0.0,0.0,0.0,0.0,0.0,-2.955,-3.0272,-3.0411,-3.051,-3.0495,-3.0565,-3.0603,-3.061,-3.0717,-3.0342,-2.946,0.0,0.0,0.0,0.0,0.0,0.0,0.0,0.0,0.0,0.0,0.0,0.0,0.0,0.0,0.0,0.0,0.0,0.0,0.0,0.0,0.0,0.0,0.0,0.0,0.0,0.0,-1.6615,-1.7782,-1.8987,0.0,0.0,0.0,0.0,0.0,0.0,0.0,0.0,0.0,0.0,-2.1399,-2.2608,-2.2756,-2.2618,-2.2714,-2.3283,-2.2488,-2.2073,-2.285,-2.3151,-2.3307,0.0,0.0,0.0,0.0,0.0,0.0,0.0,0.0,0.0,0.0,0.0,0.0,0.0,0.0,0.0,0.0,0.0,0.0,0.0,0.0,0.0,0.0,0.0,0.0,0.0,0.0,0.0,-2.6557,-2.6567,0.0,0.0,0.0,0.0,0.0,0.0,0.0,0.0,0.0,0.0,0.0,-2.7766,-2.778,0.0,0.0,0.0,0.0,0.0,0.0,0.0,0.0,0.0,0.0,0.0,0.0,-3.0234,-3.0438,-3.0564,-3.0639,-3.0633,-3.0642,-3.0691,-3.0741,-3.0789,-3.0392,-2.9513,0.0,0.0,0.0,0.0,0.0,0.0,0.0,0.0,0.0,0.0,0.0,0.0,0.0,0.0,0.0,0.0,0.0,0.0,0.0,0.0,0.0,0.0,0.0,0.0,0.0,-1.8965,0.0,0.0,0.0,0.0,0.0,0.0,0.0,0.0,0.0,0.0,0.0,-2.0083,-2.0841,-2.1477,-2.2108,-2.2776,-2.3151,-2.3485,0.0,0.0,0.0,0.0,0.0,0.0,0.0,0.0,0.0,0.0,0.0,0.0,0.0,0.0,-2.1855,-2.0272,-1.9947,-1.9891,-1.9755,0.0,0.0,0.0,0.0,0.0,0.0,0.0,0.0,0.0,0.0,0.0,0.0,0.0,0.0,-2.729,0.0,-2.7317,0.0,0.0,0.0,0.0,0.0,0.0,0.0,0.0,-2.8049,-2.8481,-2.8682,-2.869,-2.869,0.0,-2.8382,-2.8059,0.0,0.0,0.0,0.0,0.0,0.0,0.0,0.0,-3.061,-3.0572,-3.065,-3.0709,-3.0711,-3.0724,-3.0742,-3.08,-3.0827,-3.0423,-2.9567,-2.8151,-2.7238,0.0,0.0,0.0,0.0,0.0,0.0,0.0,0.0,0.0,0.0,0.0,0.0,0.0,0.0,0.0,0.0,0.0,0.0,0.0,0.0,0.0,0.0,0.0,-2.0196,0.0,0.0,0.0,0.0,0.0,0.0,0.0,0.0,0.0,-2.0464,-2.0768,-2.1198,-2.1579,-2.2127,-2.2566,-2.2831,0.0,0.0,0.0,0.0,0.0,0.0,0.0,-2.3542,-2.3594,-2.3638,-2.3664,-2.3656,-2.3674,-2.3642,-2.3628,0.0,0.0,-2.1533,-2.1288,-2.1264,-2.1076,-2.1056,-2.1023,-2.0862,-2.078,-2.0767,0.0,0.0,0.0,0.0,0.0,0.0,0.0,0.0,-2.8327,-2.7879,0.0,-2.7984,0.0,0.0,0.0,0.0,0.0,-2.7886,0.0,0.0,-2.9999,-3.0429,-2.9665,-2.9646,-2.9626,-2.9587,-2.8799,-2.8808,-2.9455,-2.8636,0.0,0.0,0.0,0.0,0.0,0.0,-3.0698,-3.0701,-3.0694,-3.0715,-3.0717,-3.077,-3.0803,-3.0783,-3.0877,-3.0508,-2.9687,-2.8805,-2.7941,-2.708,-2.6167,0.0,0.0,0.0,0.0,0.0,0.0,0.0,0.0,0.0,0.0,0.0,0.0,0.0,0.0,0.0,0.0,0.0,0.0,0.0,0.0,-2.0927,0.0,0.0,0.0,0.0,0.0,0.0,0.0,0.0,0.0,0.0,-2.1414,-2.2108,-2.2538,-2.1966,0.0,0.0,0.0,0.0,-2.3798,-2.3589,-2.3535,-2.3529,-2.347,-2.3768,-2.4006,-2.4006,0.0,0.0,-2.404,-2.3901,-2.3777,-2.3642,-2.3714,-2.3685,-2.3595,-2.3487,-2.3377,-2.3035,-2.3047,-2.3134,-2.2807,-2.2604,-2.2665,-2.8345,0.0,0.0,0.0,0.0,-2.7879,-2.838,-2.9151,-2.9195,-2.9079,-2.8865,-2.912,0.0,0.0,0.0,0.0,0.0,0.0,-2.863,-2.9236,-2.9745,-3.0156,-3.0527,-3.0527,-3.0508,-3.0508,-3.0273,-3.0272,-3.0485,-3.023,-3.0165,-3.0296,0.0,0.0,0.0,0.0,-3.0739,-3.0693,-3.0784,-3.0834,-3.0853,-3.0876,-3.0858,-3.0858,-3.0879,-3.0781,-3.0527,-2.9687,-2.8826,-2.796,-2.7073,0.0,0.0,0.0,0.0,0.0,0.0,0.0,0.0,0.0,0.0,0.0,0.0,0.0,0.0,0.0,0.0,0.0,0.0,0.0,-2.1082,-2.1604,-2.1531,0.0,0.0,0.0,0.0,0.0,0.0,0.0,0.0,0.0,-2.2805,-2.1946,-2.1485,0.0,0.0,-2.1921,-2.2637,-2.3115,-2.3606,-2.4209,-2.4238,0.0,0.0,-2.4146,-2.4087,-2.4201,-2.4303,-2.4321,-2.422,-2.4248,-2.4284,-2.4238,-2.4266,-2.4248,-2.422,-2.3969,-2.3714,-2.3588,-2.3513,-2.3406,-2.3289,-2.3151,-2.3065,-3.0713,-3.0095,-2.8756,-2.8412,-2.8712,-2.8758,-2.9272,-3.0057,-3.0098,-2.9922,-2.9629,-2.998,-2.9453,-2.83,-2.8299,0.0,0.0,0.0,-2.9276,-3.0117,-3.0117,-3.041,-3.0879,-3.0918,-3.0918,-3.0918,-3.0918,-3.0918,-3.0879,-3.0879,-3.0831,-3.0747,0.0,0.0,-3.0725,-3.078,-3.08,-3.0747,-3.0838,-3.0918,-3.0918,-3.0918,-3.0918,-3.0918,-3.0918,-3.0918,-3.0898,-3.0059,-2.9355,-2.8825,-2.765,-2.676,0.0,0.0,0.0,0.0,0.0,0.0,0.0,0.0,0.0,0.0,0.0,-2.1661,0.0,0.0,0.0,0.0,-2.1905,-2.1862,-2.1783,-2.1927,0.0,0.0,0.0,0.0,0.0,0.0,0.0,-2.1389,-2.2583,-2.3383,-2.3107,-2.2161,-2.1756,-2.245,-2.2376,-2.2472,-2.2974,0.0,-2.4016,-2.4565,-2.4629,-2.4618,-2.4652,-2.4543,-2.4464,-2.4485,-2.4528,-2.4537,-2.4512,-2.4522,-2.4557,-2.4615,-2.4582,-2.4524,-2.4507,-2.4275,-2.4049,-2.3949,-2.3827,-2.371,-2.3624,-2.3486,-2.3422,-3.3396,-3.3122,-2.9965,-2.9067,-2.9682,-2.9645,-3.0098,-3.0897,-3.0915,-3.0446,-2.9764,-3.0544,-3.0017,-2.8515,-2.8515,0.0,-2.9707,-2.9707,-3.0117,-3.0918,-3.0918,-3.0918,-3.0918,-3.0918,-3.0918,-3.0918,-3.0918,-3.0918,-3.0898,-3.0858,-3.0817,-3.0797,-3.0817,-3.0809,-3.0786,-3.0788,-3.0796,-3.0817,-3.0859,-3.0879,-3.0898,-3.0918,-3.0918,-3.0918,-3.0918,-3.0898,-3.0859,-3.0137,-2.9668,-2.9551,-2.8064,-2.716,-2.708,0.0,0.0,0.0,0.0,0.0,0.0,0.0,0.0,0.0,0.0,0.0,0.0,0.0,0.0,0.0,-2.2896,0.0,-2.2925,-2.2128,0.0,0.0,0.0,-2.1625,-2.2439,-2.3152,-2.3295,-2.2604,0.0,0.0,-2.2791,-2.2714,-2.3024,-2.3829,-2.4334,-2.441,-2.3777,-2.4258,-2.4719,-2.474,-2.48,-2.4814,-2.4799,-2.4872,-2.4916,-2.4814,-2.4825,-2.4818,-2.4804,-2.4719,-2.4707,-2.4808,-2.473,-2.4602,-2.4543,-2.4526,-2.4442,-2.4211,-2.4107,-2.402,-2.3868,-2.3795,-2.3774,-3.3379,-3.3338,-3.2519,-3.1913,-3.1444,-3.0819,-3.0681,-3.0914,-3.0914,-3.0797,-3.0602,-3.0816,-3.066,-3.029,-3.0292,-3.039,-3.0585,-3.0586,-3.0703,-3.0898,-3.0918,-3.0918,-3.0918,-3.0918,-3.0918,-3.0918,-3.0918,-3.0918,-3.0898,-3.0879,-3.0878,-3.0877,-3.0877,-3.0854,-3.0785,-3.0785,-3.0831,-3.0877,-3.0838,-3.0858,-3.0898,-3.0918,-3.0918,-3.0918,-3.0918,-3.0878,-3.0829,-3.0663,-3.0253,-2.9559,-2.9179,-2.869,-2.8,-2.7103,0.0,0.0,0.0,0.0,0.0,0.0,0.0,0.0,0.0,-2.3301,-2.1772,0.0,-2.241,0.0,-2.3226,-2.3991,-2.388,-2.3677,0.0,0.0,-2.2523,-2.2445,-2.2701,-2.3483,-2.3705,-2.2835,-2.3462,-2.3913,-2.3779,-2.3698,-2.4038,-2.493,-2.3961,-2.3462,-2.434,-2.4289,-2.4406,-2.4938,-2.5127,-2.5187,-2.5146,-2.5121,-2.5068,-2.4955,-2.4949,-2.4937,-2.4961,-2.4929,-2.4915,-2.4948,-2.4929,-2.4902,-2.4888,-2.4792,-2.4723,-2.462,-2.4363,-2.4079,-2.4039,-2.3919,-2.3858,-3.5501,-3.5115,-3.4718,-3.4051,-3.3173,-3.2356,-3.2024,-3.1984,-3.1593,-3.1436,-3.1416,-3.1026,-3.085,-3.085,-3.0892,-3.0913,-3.0914,-3.0916,-3.0917,-3.0917,-3.0917,-3.0918,-3.0918,-3.0918,-3.0918,-3.0918,-3.0918,-3.0918,-3.0918,-3.0918,-3.0918,-3.0917,-3.0917,-3.0877,-3.0854,-3.085,-3.0851,-3.0855,-3.0816,-3.0818,-3.0898,-3.0918,-3.0879,-3.0859,-3.0879,-3.0859,-3.0798,-3.0859,-3.0488,-2.9587,-2.9199,-2.8612,-2.7769,-2.6861,-2.6362,0.0,0.0,0.0,0.0,0.0,0.0,0.0,0.0,0.0,0.0,0.0,-2.3166,-2.2319,-2.3549,-2.42,-2.3686,-2.3646,-2.3618,-2.3527,-2.3458,-2.3587,-2.4053,-2.4516,-2.4622,-2.4112,-2.4485,-2.4757,-2.473,-2.4686,-2.4869,-2.5414,-2.4572,-2.4178,-2.4886,-2.4856,-2.4842,-2.5244,-2.5364,-2.5393,-2.5393,-2.5332,-2.5234,-2.5157,-2.5141,-2.5149,-2.5132,-2.5086,-2.5049,-2.5115,-2.5086,-2.5024,-2.4987,-2.4943,-2.4903,-2.4861,-2.4643,-2.4388,-2.4284,-2.4183,-2.4154,-3.822,-3.7536,-3.6695,-3.5895,-3.5136,-3.4282,-3.3717,-3.3346,-3.26,-3.2267,-3.2226,-3.1464,-3.1132,-3.1133,-3.1179,-3.122,-3.122,-3.1107,-3.107,-3.105,-3.0955,-3.0916,-3.0916,-3.0917,-3.0918,-3.0918,-3.0918,-3.0918,-3.0918,-3.0918,-3.0918,-3.0918,-3.0918,-3.0918,-3.0916,-3.0877,-3.0836,-3.0791,-3.0795,-3.0818,-3.0879,-3.0879,-3.0859,-3.0798,-3.0859,-3.0859,-3.08,-3.0859,-3.0488,-2.9629,-2.8866,-2.8105,-2.7344,-2.6481,-2.6051,0.0,-2.6005,0.0,0.0,0.0,0.0,0.0,0.0,0.0,0.0,-2.419,-2.3853,-2.3136,-2.3874,-2.4091,-2.3338,-2.3298,-2.3688,-2.446,-2.4521,-2.481,-2.5572,-2.5636,-2.5618,-2.5618,-2.5614,-2.5595,-2.5515,-2.5521,-2.5511,-2.5505,-2.5452,-2.5367,-2.5479,-2.5461,-2.5445,-2.5507,-2.5507,-2.5499,-2.5499,-2.5503,-2.5455,-2.5346,-2.5327,-2.5327,-2.5322,-2.5224,-2.5187,-2.5279,-2.5224,-2.5141,-2.5063,-2.5052,-2.5041,-2.505,-2.4903,-2.4741,-2.4594,-2.4505,-2.4517,-3.8882,-3.9253,-3.8454,-3.8025,-3.7791,-3.6932,-3.5351,-3.3399,-3.3222,-3.3163,-3.3143,-3.2967,-3.2908,-3.2908,-3.2915,-3.2917,-3.2879,-3.22,-3.1869,-3.185,-3.1207,-3.0914,-3.0915,-3.0915,-3.0915,-3.0915,-3.0915,-3.0915,-3.0915,-3.0915,-3.0916,-3.0917,-3.0918,-3.0918,-3.0897,0.0,0.0,0.0,-3.0795,-3.0797,-3.0818,-3.0818,-3.0819,-3.0801,-3.08,0.0,-3.0789,-3.0825,-3.0418,-2.9586,-2.9427,0.0,0.0,0.0,0.0,0.0,0.0,0.0,0.0,0.0,0.0,0.0,-2.5937,-2.5229,-2.4368,-2.3666,-2.3479,-2.4055,-2.4294,-2.4628,-2.5137,-2.5195,-2.5254,-2.5429,-2.543,-2.5508,-2.5683,-2.5703,-2.5683,-2.5683,-2.5677,-2.5665,-2.5653,-2.5609,-2.5585,-2.5574,-2.5574,-2.5574,-2.5574,-2.5531,-2.5515,-2.5507,-2.5507,-2.5507,-2.5507,-2.5507,-2.5484,-2.5448,-2.5464,-2.5459,-2.5455,-2.5432,-2.5438,-2.5464,-2.5455,-2.5415,-2.5391,-2.5332,-2.5248,-2.5243,-2.5101,-2.493,-2.4763,-2.4668,-2.4555,-4.0464,0.0,-4.0464,-3.9976,0.0,-3.8707,-3.7555,-3.5857,-3.4608,-3.3788,-3.3396,-3.3396,-3.3396,-3.3396,-3.338,-3.3382,-3.3382,-3.2936,-3.2742,-3.2722,-3.2316,-3.2121,-3.2122,-3.1694,-3.1499,-3.1479,-3.1003,-3.0803,-3.0803,-3.0768,-3.0742,-3.0765,-3.075,-3.0735,-3.0757,-3.0684,-3.0669,-3.0693,-3.0693,-3.0731,-3.0728,-3.0725,-3.0705,-3.0746,-3.0711,0.0,0.0,0.0,0.0,0.0,0.0,0.0,0.0,0.0,0.0,-2.8663,-2.8294,-2.8043,-2.7996,-2.7612,-2.7383,-2.7337,-2.702,-2.6311,-2.5091,-2.4587,-2.4531,-2.5,-2.5039,-2.5215,-2.5644,-2.5701,-2.57,-2.5701,-2.57,-2.57,-2.57,-2.57,-2.57,-2.5701,-2.5703,-2.5702,-2.5696,-2.5668,-2.5634,-2.56,-2.5598,-2.5598,-2.5591,-2.5546,-2.552,-2.5519,-2.5507,-2.5507,-2.5507,-2.5507,-2.5511,-2.5507,-2.5507,-2.5507,-2.5507,-2.5507,-2.5507,-2.5507,-2.5507,-2.5507,-2.5488,-2.5451,-2.5382,-2.5373,-2.5254,-2.5135,-2.5043,-2.4915,-2.476,-4.1927,-4.1617,-4.2162,-4.1674,-4.0464,-4.0327,-3.9702,-3.865,0.0,0.0,0.0,-3.4079,-3.4001,-3.3865,-3.3865,-3.3865,-3.3845,-3.3689,-3.3632,-3.3632,-3.3456,-3.3378,-3.3358,-3.2656,-3.2303,-3.2264,-3.1496,-3.1073,-3.0917,-3.0853,-3.0749,-3.0616,-3.0616,-3.0574,-3.0584,-3.0584,-3.0581,-3.0565,-3.0572,-3.0626,-3.0691,-3.0639,-3.0628,-3.0694,-3.0617,-3.0609,-3.0611,-3.0609,-3.0194,-2.9357,-2.9299,-2.8974,-2.8262,-2.82,-2.8298,-2.8501,-2.85,-2.8458,-2.8424,-2.8326,-2.8189,-2.8021,-2.804,-2.7534,-2.6229,-2.6008,-2.5907,-2.5935,-2.5797,-2.57,-2.5702,-2.57,-2.57,-2.5701,-2.57,-2.5699,-2.5698,-2.5699,-2.5698,-2.5699,-2.5699,-2.5702,-2.5703,-2.5702,-2.5699,-2.5649,-2.5628,-2.5603,-2.5614,-2.5554,-2.5535,-2.5531,-2.5525,-2.5505,-2.5517,-2.5522,-2.5515,-2.5522,-2.5507,-2.5511,-2.5511,-2.5511,-2.5507,-2.5507,-2.5507,-2.5507,-2.5507,-2.5503,-2.5507,-2.5507,-2.543,-2.5332,-2.5322,-2.5192,-2.5024,-4.2066,-4.3274,-4.2669,-4.2689,-4.3099,-4.2357,-4.1108,-3.9566,-3.8494,-3.7557,-3.6755,-3.6755,-3.6325,-3.5641,-3.5641,-3.5621,-3.5602,-3.4861,-3.451,-3.447,-3.3678,-3.3307,-3.3305,-3.3132,-3.3063,-3.304,-3.2896,-3.2449,-3.1796,-3.1708,-3.1335,-3.0701,-3.062,-3.0574,-3.0509,-3.0524,-3.0495,-3.0444,-3.0549,-3.0611,-3.0609,-3.0606,-3.0614,-3.0614,-3.0601,-3.0616,-3.0605,-3.0598,-3.0191,-2.935,-2.9292,-2.9206,-2.9057,-2.9049,-2.9356,-2.9998,-3.007,-3.0078,-3.0042,-2.9377,-2.869,-2.807,-2.801,-2.796,-2.7839,-2.7154,-2.6752,-2.6782,-2.6177,-2.569,-2.5691,-2.5768,-2.5807,-2.5769,-2.5729,-2.571,-2.5788,-2.5788,-2.5808,-2.5831,-2.5695,-2.5774,-2.5857,-2.5819,-2.5858,-2.5761,-2.5957,-2.5781,-2.5832,-2.5636,-2.5602,-2.5593,-2.5584,-2.5576,-2.5563,-2.5546,-2.5523,-2.5562,-2.5531,-2.5518,-2.5506,-2.5522,-2.5515,-2.5515,-2.5511,-2.5507,-2.5519,-2.5507,-2.5523,-2.5503,-2.5484,-2.546,-2.5452,-2.5423,-2.5332,-4.2279,-4.2982,-4.306,-4.3333,-4.3686,-4.3274,-4.265,-4.1908,-4.1539,-4.0075,-3.8102,-3.8004,-3.7789,-3.7379,-3.691,-3.6714,-3.6675,-3.5798,-3.5408,-3.5387,-3.4942,-3.4744,-3.4659,-3.4195,-3.3921,-3.3821,-3.3328,-3.2879,-3.2473,-3.2019,-3.1584,-3.1183,-3.0733,-3.0482,-3.0432,-3.0451,-3.0433,-3.039,-3.0463,-3.0481,-3.0494,-3.0505,-3.0492,-3.0483,-3.0486,-3.0501,-3.0487,-3.0506,-3.0313,-2.9912,-2.9893,-2.9892,-2.9866,-2.9841,-3.0012,-3.0371,-3.0404,-3.0404,-3.0404,-3.0044,-2.9657,-2.9335,-2.9301,-2.9352,-2.9453,-2.8284,-2.7559,-2.7589,-2.7201,-2.7016,-2.7057,-2.7056,-2.7081,-2.7096,-2.7113,-2.7093,-2.7093,-2.7112,-2.7113,-2.7096,-2.7114,-2.7116,-2.7119,-2.7099,-2.712,-2.7119,-2.71,-2.7103,-2.7088,-2.707,-2.6696,-2.5849,-2.5603,-2.5605,-2.5624,-2.557,-2.5574,-2.5598,-2.5569,-2.5546,-2.5549,-2.5563,-2.556,-2.554,-2.5549,-2.554,-2.5553,-2.5565,-2.5543,-2.5554,-2.5553,-2.5537,-2.5509,-2.5503,-2.5423,-4.222,-4.2454,-4.3138,-4.3627,-4.3977,-4.3977,-4.3997,-4.3997,-4.3957,-4.2378,-3.9958,-3.9548,-3.9255,-3.8806,-3.816,-3.777,-3.7516,-3.689,-3.648,-3.6305,-3.6258,-3.6116,-3.581,-3.513,-3.4766,-3.4584,-3.39,-3.347,-3.3208,-3.2574,-3.2045,-3.1679,-3.1019,-3.0596,-3.0404,-3.0404,-3.0404,-3.0404,-3.0404,-3.0396,-3.04,-3.0396,-3.0396,-3.04,-3.0396,-3.0404,-3.0404,-3.0404,-3.0404,-3.0404,-3.0404,-3.0404,-3.0404,-3.0404,-3.0404,-3.0404,-3.0404,-3.0404,-3.0404,-3.0404,-3.0404,-3.0404,-3.0404,-3.0406,-3.0361,-2.9352,-2.8546,-2.8385,-2.8184,-2.8071,-2.8087,-2.813,-2.8199,-2.8247,-2.8247,-2.8164,-2.8252,-2.8272,-2.8278,-2.8301,-2.8282,-2.8243,-2.8282,-2.8282,-2.8225,-2.8186,-2.8282,-2.8283,-2.8285,-2.8283,-2.7634,-2.6714,-2.6194,-2.616,-2.6002,-2.5937,-2.5857,-2.5701,-2.5608,-2.5597,-2.5595,-2.5597,-2.5595,-2.5593,-2.56,-2.5591,-2.5593,-2.5601,-2.5601,-2.5598,-2.5587,-2.5574,-2.5537,-2.5523,-2.5503,-4.1674,-4.2357,-4.2474,-4.3448,-4.4717,-4.4836,-4.4834,-4.4854,-4.4873,-4.4289,-4.3095,-4.2396,-4.1165,-3.98,-3.9624,-3.9193,-3.857,-3.8394,-3.7925,-3.7237,-3.705,-3.6544,-3.5803,-3.5587,-3.5477,-3.5368,-3.5226,-3.4745,-3.4116,-3.3943,-3.3186,-3.1872,-3.1602,-3.1173,-3.0519,-3.0404,-3.0404,-3.0404,-3.0404,-3.0404,-3.039,-3.0404,-3.0404,-3.039,-3.0404,-3.0404,-3.0404,-3.0404,-3.0404,-3.0404,-3.0404,-3.0404,-3.0404,-3.0404,-3.0404,-3.0398,-3.0398,-3.0404,-3.0404,-3.0404,-3.0404,-3.0404,-3.0404,-3.039,-3.0408,-3.026,-2.9887,-2.9276,-2.854,-2.8246,-2.8104,-2.8185,-2.8288,-2.8345,-2.8304,-2.8154,-2.8318,-2.821,-2.8227,-2.8281,-2.8474,-2.8302,-2.8495,-2.8496,-2.842,-2.8576,-2.8614,-2.8597,-2.8579,-2.8559,-2.8539,-2.8158,-2.8041,-2.7672,-2.7107,-2.6816,-2.658,-2.5974,-2.567,-2.572,-2.5759,-2.5693,-2.56,-2.5624,-2.5614,-2.5612,-2.5609,-2.5609,-2.5612,-2.5627,-2.5608,-2.5606,-2.5593,-2.5588,-2.5552,-4.1304,-4.1615,-4.1615,-4.2337,-4.3509,-4.4543,-4.4957,-4.4928,-4.5437,-4.5397,-4.5009,-4.4612,-4.3587,-4.2102,-4.1488,-4.1025,-4.0671,-3.962,-3.8955,-3.8542,-3.8066,-3.7314,-3.6469,-3.6383,-3.6104,-3.5526,-3.55,-3.5308,-3.493,-3.4468,-3.3583,-3.2468,-3.1948,-3.1525,-3.1141,-3.0654,-3.0404,-3.0404,-3.0404,-3.0404,-3.0404,-3.0404,-3.0404,-3.0404,-3.0404,-3.0404,-3.0404,-3.0404,-3.0404,-3.0404,-3.0404,-3.0404,-3.0404,-3.0404,-3.0349,-3.0241,-3.0235,-3.0267,-3.0398,-3.0404,-3.0404,-3.0404,-3.0404,-3.0404,-3.0404,-3.0404,-3.0257,-2.9974,-2.9622,-2.9472,-2.9492,-2.95,-2.954,-2.9566,-2.9576,-2.957,-2.9593,-2.9618,-2.9613,-2.9657,-2.9684,-2.97,-2.9723,-2.9757,-2.9784,-2.9786,-2.9766,-2.9688,-2.9749,-2.9786,-2.9767,-2.9788,-2.9769,-2.9164,-2.8112,-2.7746,-2.7535,-2.7243,-2.6757,-2.6445,-2.6386,-2.5918,-2.5663,-2.5683,-2.5663,-2.5661,-2.566,-2.5662,-2.5663,-2.566,-2.5654,-2.5651,-2.5668,-2.562,-2.5593,-4.1304,-4.1127,-4.1078,-4.1579,-4.2457,-4.3673,-4.4286,-4.453,-4.5348,-4.5661,-4.5599,-4.5788,-4.5315,-4.4256,-4.3295,-4.2763,-4.2385,-4.1154,-4.0417,-4.016,-3.9369,-3.8491,-3.7599,-3.7071,-3.6523,-3.5905,-3.5596,-3.55,-3.5423,-3.4911,-3.4109,-3.3237,-3.2429,-3.2025,-3.1948,-3.1173,-3.0865,-3.1096,-3.1096,-3.1077,-3.1115,-3.1077,-3.0865,-3.0462,-3.0404,-3.0404,-3.0404,-3.0404,-3.0404,-3.0404,-3.0404,-3.0404,-3.0404,-3.0404,-3.0311,-3.0129,-3.0089,-3.0136,-3.026,-3.026,-3.028,-3.0324,-3.0311,-3.0349,-3.0398,-3.0404,-3.0404,-3.0371,-3.0404,-3.0373,-3.0456,-3.0477,-3.0492,-3.0539,-3.0548,-3.0532,-3.0517,-3.056,-3.0533,-3.0597,-3.0489,-3.0686,-3.0672,-3.0635,-3.0593,-3.0613,-3.0673,-3.0742,-3.0768,-3.0711,-3.0713,-3.0799,-3.0761,-3.0196,-2.8967,-2.8637,-2.8596,-2.8205,-2.7646,-2.7355,-2.7294,-2.661,-2.6064,-2.6266,-2.5966,-2.5711,-2.5682,-2.5699,-2.5696,-2.5702,-2.5703,-2.5703,-2.5683,-2.564,-2.5636,-4.1849,-4.1122,-4.1022,-4.1464,-4.2302,-4.2315,-4.2742,-4.351,-4.4365,-4.4764,-4.4884,-4.5539,-4.5846,-4.5643,-4.4762,-4.4063,-4.3422,-4.3174,-4.2654,-4.1906,-4.1082,-4.0186,-3.9206,-3.7684,-3.6851,-3.6603,-3.5923,-3.5558,-3.55,-3.5423,-3.5007,-3.4148,-3.3353,-3.2891,-3.2814,-3.2141,-3.2045,-3.2545,-3.2602,-3.2718,-3.2699,-3.2718,-3.1948,-3.0692,-3.0423,-3.0462,-3.0442,-3.0404,-3.0404,-3.0404,-3.0404,-3.0404,-3.0404,-3.0398,-3.0292,-3.0122,-3.0082,-3.0044,-2.9965,-2.9942,-2.9977,-3.0107,-3.0109,-3.0182,-3.0305,-3.0349,-3.0355,-3.0392,-3.0386,-3.0404,-3.0416,-3.0414,-3.0414,-3.0425,-3.0414,-3.0449,-3.0496,-3.0506,-3.055,-3.0583,-3.0605,-3.06,-3.06,-3.062,-3.0614,-3.0597,-3.061,-3.063,-3.0697,-3.0689,-3.0724,-3.0765,-3.0735,-3.0506,-2.9746,-2.9533,-2.9162,-2.883,-2.8636,-2.8245,-2.7954,-2.7623,-2.7213,-2.6804,-2.6452,-2.6139,-2.5826,-2.5689,-2.5689,-2.5694,-2.5694,-2.5696,-2.5699,-2.5694,-2.5679,-4.1785,-4.0905,-4.0875,-4.1073,-4.1384,-4.1883,-4.2237,-4.2495,-4.3367,-4.4034,-4.4436,-4.4757,-4.5182,-4.5684,-4.5387,-4.5128,-4.4873,-4.4283,-4.3808,-4.3414,-4.2662,-4.1784,-4.088,-3.9743,-3.8565,-3.7514,-3.6692,-3.5981,-3.5538,-3.55,-3.5615,-3.568,-3.4962,-3.4558,-3.441,-3.3737,-3.3199,-3.2929,-3.2891,-3.2891,-3.2942,-3.2891,-3.2583,-3.2019,-3.1506,-3.1237,-3.1237,-3.0712,-3.0404,-3.0404,-3.0367,-3.0342,-3.0329,-3.0221,-3.0114,-3.0037,-2.992,-2.9872,-2.9931,-2.9851,-2.9782,-2.9821,-2.9856,-2.988,-2.995,-3.0078,-3.0154,-3.0148,-3.0286,-3.0343,-3.0349,-3.0361,-3.0404,-3.0404,-3.0404,-3.0396,-3.0436,-3.0433,-3.0425,-3.0418,-3.0438,-3.049,-3.054,-3.0541,-3.0541,-3.0521,-3.0537,-3.0552,-3.0574,-3.061,-3.0646,-3.0664,-3.0656,-3.0586,-3.0353,-3.0331,-3.0215,-2.9902,-2.9611,-2.9259,-2.8948,-2.8363,-2.7894,-2.7798,-2.733,-2.6959,-2.6742,-2.6196,-2.6118,-2.5825,-2.5825,-2.5864,-2.5689,-2.5688,-2.5689,-4.2047,-4.1247,-4.1163,-4.0973,-4.0798,-4.1325,-4.1537,-4.1556,-4.2374,-4.3042,-4.3487,-4.3778,-4.4374,-4.5075,-4.5171,-4.5404,-4.5634,-4.4991,-4.472,-4.4652,-4.3855,-4.3181,-4.2508,-4.145,-4.02,-3.8738,-3.7334,-3.6248,-3.5487,-3.541,-3.5783,-3.64,-3.5683,-3.556,-3.579,-3.4975,-3.4171,-3.3903,-3.3681,-3.3566,-3.3547,-3.3547,-3.3547,-3.3432,-3.2742,-3.2208,-3.2006,-3.1398,-3.0905,-3.0661,-3.0524,-3.0376,-3.0133,-2.9973,-2.9872,-2.9788,-2.9687,-2.9624,-2.9705,-2.9616,-2.9542,-2.9607,-2.9597,-2.9615,-2.9705,-2.9823,-2.988,-2.9946,-3.0078,-3.0174,-3.0154,-3.0254,-3.0374,-3.0374,-3.0355,-3.0374,-3.0355,-3.0367,-3.0348,-3.0328,-3.0344,-3.0386,-3.0424,-3.0438,-3.0438,-3.0443,-3.0443,-3.0448,-3.0485,-3.0503,-3.0548,-3.0548,-3.0575,-3.0567,-3.0457,-3.0475,-3.0568,-3.0342,-3.0212,-2.9985,-2.972,-2.9117,-2.8746,-2.867,-2.8418,-2.8029,-2.7522,-2.6936,-2.6526,-2.6212,-2.6176,-2.6274,-2.602,-2.5708,-2.5763,-4.2722,-4.202,-4.1912,-4.1389,-4.0764,-4.066,-4.0562,-4.0762,-4.1439,-4.1893,-4.2192,-4.275,-4.3558,-4.4239,-4.4462,-4.4806,-4.5468,-4.547,-4.5451,-4.5383,-4.4682,-4.4297,-4.4105,-4.2643,-4.1242,-3.9996,-3.7824,-3.6186,-3.5239,-3.5204,-3.5508,-3.5903,-3.5486,-3.5875,-3.7265,-3.5799,-3.5258,-3.5505,-3.5059,-3.4765,-3.4898,-3.4737,-3.4689,-3.4671,-3.396,-3.3282,-3.2668,-3.2473,-3.189,-3.1151,-3.0976,-3.0535,-2.9949,-2.9808,-2.9662,-2.9485,-2.9409,-2.9346,-2.9257,-2.9254,-2.9291,-2.9367,-2.9398,-2.9438,-2.9579,-2.9661,-2.9687,-2.9713,-2.9848,-2.9931,-2.9842,-3.0034,-3.0241,-3.0312,-3.0286,-3.0305,-3.0305,-3.0305,-3.0304,-3.0298,-3.0279,-3.0312,-3.0318,-3.0305,-3.0317,-3.0317,-3.0311,-3.0328,-3.037,-3.0378,-3.0429,-3.047,-3.0475,-3.0481,-3.0488,-3.0506,-3.0571,-3.0598,-3.0555,-3.0431,-3.0271,-2.9829,-2.9572,-2.9416,-2.8827,-2.8437,-2.8299,-2.7733,-2.7371,-2.7101,-2.6979,-2.6785,-2.656,-2.6318,-2.5981,-4.339,-4.2574,-4.1992,-4.161,-4.1283,-4.0724,-4.0455,-4.0518,-4.0781,-4.1185,-4.1709,-4.2006,-4.2909,-4.4062,-4.4311,-4.4753,-4.5503,-4.5475,-4.5513,-4.5519,-4.5306,-4.5152,-4.4932,-4.4028,-4.2076,-3.9533,-3.7776,-3.6245,-3.5135,-3.4879,-3.5474,-3.6474,-3.651,-3.6952,-3.7863,-3.6952,-3.634,-3.5886,-3.5228,-3.4821,-3.4792,-3.4793,-3.4831,-3.4812,-3.4508,-3.4196,-3.3882,-3.2883,-3.2155,-3.1761,-3.1742,-3.1287,-3.0494,-3.0386,-3.0114,-2.9431,-2.9326,-2.9316,-2.9259,-2.9156,-2.9078,-2.9108,-2.9119,-2.9141,-2.922,-2.9346,-2.9416,-2.9427,-2.9607,-2.9688,-2.9671,-2.9724,-2.991,-3.009,-3.0214,-3.0273,-3.0273,-3.0247,-3.0228,-3.0221,-3.0221,-3.0226,-3.0239,-3.0239,-3.0245,-3.0226,-3.0226,-3.0253,-3.0267,-3.0286,-3.026,-3.0296,-3.0314,-3.0365,-3.0362,-3.0383,-3.0438,-3.0505,-3.0533,-3.0581,-3.0511,-3.0425,-3.0225,-2.995,-2.9358,-2.9021,-2.886,-2.8607,-2.8251,-2.7907,-2.7687,-2.7493,-2.7279,-2.6981,-2.6612,-4.4097,-4.3283,-4.2794,-4.221,-4.1654,-4.1069,-4.0712,-4.0488,-4.0424,-4.0712,-4.114,-4.1225,-4.2166,-4.3509,-4.3787,-4.444,-4.539,-4.5419,-4.5438,-4.5513,-4.5559,-4.5568,-4.5407,-4.4537,-4.2872,-4.0329,-3.8407,-3.6832,-3.5487,-3.4916,-3.5353,-3.6635,-3.6873,-3.7442,-3.8328,-3.7722,-3.6918,-3.615,-3.5398,-3.4809,-3.4506,-3.4483,-3.4494,-3.4502,-3.4461,-3.439,-3.4218,-3.3314,-3.2665,-3.2323,-3.2037,-3.1489,-3.0898,-3.0917,-3.0716,-3.0209,-2.9795,-2.9647,-2.9588,-2.9244,-2.8987,-2.8987,-2.8987,-2.8987,-2.9021,-2.9138,-2.9174,-2.9217,-2.9375,-2.9465,-2.9395,-2.9542,-2.9644,-2.9732,-2.9899,-3.0068,-3.0118,-3.0111,-3.0133,-3.018,-3.0206,-3.0211,-3.0204,-3.0204,-3.0204,-3.0204,-3.0204,-3.0204,-3.0211,-3.0213,-3.0213,-3.0219,-3.0241,-3.0267,-3.0247,-3.0267,-3.0286,-3.0337,-3.0399,-3.0468,-3.049,-3.0485,-3.0349,-3.0314,-2.9899,-2.9829,-2.9686,-2.9458,-2.9147,-2.8799,-2.8384,-2.8132,-2.7886,-2.753,-2.7197,-4.4819,-4.4112,-4.4067,-4.3149,-4.1905,-4.1664,-4.1184,-4.0571,-4.0409,-4.0409,-4.0456,-4.0522,-4.1403,-4.2659,-4.3042,-4.3886,-4.517,-4.5381,-4.539,-4.541,-4.5438,-4.5419,-4.5266,-4.4382,-4.319,-4.1821,-3.9576,-3.7809,-3.6447,-3.5136,-3.5051,-3.6379,-3.6582,-3.7304,-3.8362,-3.8061,-3.7221,-3.6403,-3.565,-3.485,-3.4092,-3.4036,-3.4018,-3.403,-3.4036,-3.4011,-3.3948,-3.3769,-3.3436,-3.279,-3.2145,-3.1753,-3.1501,-3.147,-3.1452,-3.1232,-3.0644,-3.0362,-3.0111,-2.9604,-2.917,-2.9189,-2.9078,-2.8987,-2.8998,-2.9021,-2.9033,-2.9062,-2.9192,-2.9217,-2.9149,-2.9312,-2.9435,-2.9345,-2.9533,-2.9732,-2.9856,-2.9886,-2.9934,-3.009,-3.0171,-3.019,-3.0176,-3.0183,-3.0204,-3.0204,-3.0204,-3.0204,-3.0204,-3.0211,-3.0211,-3.0211,-3.0206,-3.0206,-3.0219,-3.0226,-3.0246,-3.0267,-3.0315,-3.0351,-3.0414,-3.0429,-3.0414,-3.039,-3.0384,-3.0402,-3.0315,-2.996,-2.9719,-2.939,-2.9033,-2.8754,-2.8522,-2.8259,-2.7941,-4.5163,-4.4895,-4.4294,-4.3778,-4.3186,-4.2126,-4.1484,-4.1216,-4.0586,-4.0366,-4.0335,-4.0325,-4.1263,-4.2718,-4.2833,-4.3762,-4.5005,-4.5329,-4.535,-4.536,-4.5137,-4.5115,-4.5044,-4.4561,-4.3421,-4.1865,-4.0282,-3.8426,-3.6473,-3.5412,-3.5413,-3.6301,-3.6411,-3.7165,-3.8382,-3.7974,-3.7165,-3.6374,-3.5625,-3.4802,-3.4039,-3.3926,-3.3921,-3.3939,-3.3881,-3.3868,-3.3881,-3.3842,-3.376,-3.354,-3.3324,-3.2871,-3.2375,-3.2284,-3.2063,-3.158,-3.1286,-3.1103,-3.0925,-3.0338,-2.9904,-2.9812,-2.9427,-2.9005,-2.8987,-2.9005,-2.9005,-2.9017,-2.9067,-2.9067,-2.9021,-2.9093,-2.9127,-2.9138,-2.9373,-2.9589,-2.9662,-2.9671,-2.9688,-2.975,-2.9905,-2.9972,-3.0003,-3.0091,-3.0176,-3.0183,-3.0176,-3.0176,-3.0128,-3.0176,-3.0142,-3.0178,-3.0185,-3.0211,-3.0211,-3.0211,-3.0218,-3.0225,-3.024,-3.0234,-3.0273,-3.0292,-3.026,-3.0254,-3.0233,-3.0238,-3.0247,-3.0081,-2.9947,-2.971,-2.9678,-2.9409,-2.9421,-2.9249,-2.8814,-4.5277,-4.5269,-4.4762,-4.4331,-4.393,-4.2947,-4.2183,-4.1552,-4.1046,-4.0568,-4.0366,-4.0309,-4.1141,-4.2522,-4.2607,-4.3488,-4.4836,-4.4941,-4.4941,-4.4953,-4.4782,-4.4739,-4.4701,-4.4419,-4.3665,-4.2594,-4.1101,-3.9509,-3.7823,-3.6321,-3.6083,-3.6593,-3.645,-3.7147,-3.8579,-3.8267,-3.7603,-3.6831,-3.6052,-3.5211,-3.4376,-3.4012,-3.386,-3.386,-3.3802,-3.3834,-3.3842,-3.3815,-3.3807,-3.3807,-3.377,-3.3587,-3.3201,-3.3096,-3.2889,-3.2412,-3.2118,-3.1916,-3.177,-3.1164,-3.0723,-3.0632,-3.021,-2.9849,-2.961,-2.9512,-2.9464,-2.906,-2.9005,-2.8987,-2.8987,-2.8987,-2.8987,-2.904,-2.9214,-2.9375,-2.9446,-2.9474,-2.9523,-2.9598,-2.9689,-2.9787,-2.9787,-2.9897,-2.9937,-2.9937,-2.9913,-2.9921,-2.9929,-3.0,-3.0049,-3.0007,-3.0015,-3.0019,-2.9953,-2.9937,-2.9972,-2.9996,-3.0064,-3.0072,-3.0135,-3.0142,-3.015,-3.0123,-3.0113,-3.0076,-3.0034,-2.9984,-2.9831,-2.9752,-2.9931,-2.9935,-2.9779,-2.9706,-2.9344,-4.5277,-4.5277,-4.5277,-4.4847,-4.4156,-4.3956,-4.3037,-4.1874,-4.1405,-4.0948,-4.0471,-4.0358,-4.11,-4.2252,-4.2479,-4.3171,-4.4438,-4.4511,-4.443,-4.443,-4.4374,-4.4388,-4.4294,-4.4162,-4.3909,-4.3431,-4.1995,-4.0705,-3.9276,-3.7477,-3.6942,-3.7162,-3.6743,-3.7276,-3.8414,-3.8634,-3.8267,-3.7456,-3.6795,-3.5881,-3.4968,-3.4357,-3.4027,-3.382,-3.382,-3.3807,-3.3788,-3.3748,-3.3703,-3.3734,-3.3762,-3.377,-3.3752,-3.3788,-3.3733,-3.3568,-3.3036,-3.2729,-3.2614,-3.199,-3.1513,-3.1476,-3.1384,-3.1127,-3.0485,-3.032,-3.0075,-2.9497,-2.916,-2.9082,-2.8929,-2.8952,-2.8987,-2.9017,-2.901,-2.9093,-2.9217,-2.9262,-2.9345,-2.9494,-2.9542,-2.957,-2.958,-2.957,-2.9617,-2.976,-2.9734,-2.9742,-2.9751,-2.9794,-2.9777,-2.9716,-2.9734,-2.9769,-2.968,-2.9616,-2.9662,-2.9707,-2.9811,-2.9897,-2.9984,-3.0019,-3.0019,-3.0003,-2.9956,-2.9847,-2.9734,-2.9681,-2.9626,-2.9672,-2.9769,-2.9707,-2.9616,-2.9647,-2.9435,-4.5277,-4.5277,-4.5277,-4.5036,-4.4573,-4.3961,-4.3331,-4.2655,-4.1411,-4.0851,-4.0626,-4.0608,-4.1142,-4.2014,-4.2609,-4.3472,-4.4266,-4.4346,-4.4289,-4.4109,-4.4075,-4.3921,-4.3841,-4.386,-4.3862,-4.3426,-4.2575,-4.1313,-3.9918,-3.8872,-3.7933,-3.7529,-3.7437,-3.7731,-3.8542,-3.867,-3.8303,-3.7621,-3.729,-3.645,-3.5284,-3.4793,-3.4335,-3.3872,-3.3807,-3.3807,-3.3734,-3.3536,-3.3404,-3.3465,-3.3638,-3.3739,-3.3739,-3.3753,-3.3753,-3.3684,-3.362,-3.3468,-3.3371,-3.2745,-3.2313,-3.2206,-3.1772,-3.1342,-3.1219,-3.1108,-3.0916,-3.0446,-2.9976,-2.9383,-2.8941,-2.8906,-2.8978,-2.8985,-2.8953,-2.8952,-2.9044,-2.9078,-2.9115,-2.9171,-2.9291,-2.9365,-2.9375,-2.9494,-2.9542,-2.958,-2.958,-2.9589,-2.9589,-2.9561,-2.9504,-2.9416,-2.9456,-2.9495,-2.9436,-2.9377,-2.9407,-2.9446,-2.9561,-2.9671,-2.9767,-2.9811,-2.9786,-2.9769,-2.9779,-2.9644,-2.9504,-2.9532,-2.9523,-2.9561,-2.9561,-2.9513,-2.9484,-2.9532,-2.9523,-4.5057,-4.5065,-4.4922,-4.477,-4.4568,-4.4159,-4.364,-4.2943,-4.1804,-4.1034,-4.0759,-4.0702,-4.1087,-4.1745,-4.2552,-4.3315,-4.3844,-4.398,-4.3886,-4.3779,-4.3765,-4.3647,-4.3565,-4.3649,-4.3649,-4.3423,-4.3075,-4.2121,-4.1038,-3.9863,-3.9019,-3.8539,-3.79,-3.7915,-3.8597,-3.8676,-3.8524,-3.8083,-3.7639,-3.6853,-3.5775,-3.4991,-3.4385,-3.3789,-3.3694,-3.3748,-3.3536,-3.339,-3.3214,-3.3154,-3.3229,-3.335,-3.3332,-3.335,-3.3346,-3.3332,-3.3314,-3.3317,-3.3125,-3.2929,-3.26,-3.2564,-3.2134,-3.1755,-3.1484,-3.1357,-3.1155,-3.0768,-3.027,-2.9722,-2.9361,-2.9022,-2.9052,-2.8938,-2.8699,-2.8569,-2.8688,-2.8851,-2.8987,-2.901,-2.9112,-2.9138,-2.9185,-2.9301,-2.9241,-2.9188,-2.9174,-2.9195,-2.9209,-2.9198,-2.922,-2.9169,-2.9225,-2.9235,-2.9158,-2.9155,-2.9188,-2.9233,-2.9316,-2.9418,-2.9542,-2.9533,-2.9514,-2.9514,-2.9532,-2.9405,-2.9301,-2.9345,-2.9353,-2.928,-2.9259,-2.9301,-2.9312,-2.927,-2.9249,-4.4739,-4.4745,-4.4493,-4.4388,-4.4346,-4.4308,-4.3877,-4.3114,-4.2151,-4.1297,-4.0884,-4.0772,-4.1049,-4.1568,-4.2486,-4.3104,-4.3416,-4.3548,-4.3565,-4.3565,-4.3548,-4.3531,-4.3496,-4.3513,-4.3549,-4.3479,-4.3406,-4.2892,-4.1974,-4.091,-3.9937,-3.9606,-3.8337,-3.8016,-3.8486,-3.8515,-3.838,-3.8184,-3.7728,-3.7088,-3.6197,-3.5181,-3.4292,-3.3436,-3.3394,-3.3422,-3.3214,-3.3045,-3.2939,-3.2699,-3.2634,-3.2601,-3.2617,-3.2763,-3.2795,-3.2827,-3.2876,-3.2858,-3.2844,-3.2713,-3.2595,-3.2501,-3.2481,-3.2197,-3.17,-3.157,-3.1404,-3.0965,-3.0548,-3.0147,-3.001,-2.9629,-2.9272,-2.9098,-2.8549,-2.8255,-2.838,-2.8686,-2.8725,-2.8959,-2.8982,-2.8957,-2.8952,-2.898,-2.8893,-2.881,-2.8798,-2.8828,-2.8851,-2.8868,-2.8927,-2.8927,-2.8978,-2.9004,-2.8943,-2.895,-2.8984,-2.8966,-2.9038,-2.9107,-2.9217,-2.9222,-2.922,-2.9283,-2.9251,-2.9141,-2.9071,-2.9071,-2.9037,-2.8982,-2.8987,-2.906,-2.9055,-2.8994,-2.901,-4.4465,-4.4465,-4.4411,-4.4279,-4.4094,-4.4064,-4.3812,-4.3221,-4.1889,-4.1199,-4.1067,-4.1033,-4.1067,-4.1558,-4.2756,-4.3402,-4.3478,-4.3479,-4.3479,-4.3479,-4.3479,-4.3479,-4.3497,-4.348,-4.3479,-4.3479,-4.3461,-4.3058,-4.2359,-4.1368,-4.0543,-3.9779,-3.8652,-3.8194,-3.8079,-3.7913,-3.7844,-3.7826,-3.7557,-3.7072,-3.6231,-3.5302,-3.4253,-3.3108,-3.3008,-3.2908,-3.2749,-3.2435,-3.2196,-3.2127,-3.1858,-3.1765,-3.1912,-3.2402,-3.265,-3.27,-3.2635,-3.2553,-3.2536,-3.2518,-3.2501,-3.2501,-3.2417,-3.2434,-3.2222,-3.2187,-3.1808,-3.1549,-3.1009,-3.0471,-2.9827,-2.9817,-2.9884,-2.972,-2.9246,-2.8794,-2.8758,-2.8532,-2.8438,-2.8782,-2.8815,-2.8755,-2.8682,-2.8669,-2.8682,-2.8669,-2.8706,-2.8737,-2.8785,-2.8755,-2.8737,-2.8731,-2.8712,-2.8731,-2.8743,-2.8755,-2.8767,-2.87,-2.8719,-2.8707,-2.8796,-2.8857,-2.8899,-2.8844,-2.892,-2.8934,-2.8881,-2.8864,-2.881,-2.8779,-2.8791,-2.8834,-2.8822,-2.8803,-2.8905,-4.4177,-4.4181,-4.3992,-4.3873,-4.3747,-4.3749,-4.3649,-4.3275,-4.1846,-4.1352,-4.1499,-4.1315,-4.1334,-4.1937,-4.291,-4.3478,-4.3479,-4.3479,-4.3479,-4.3479,-4.3479,-4.348,-4.3464,-4.3446,-4.3393,-4.3375,-4.3321,-4.3227,-4.2818,-4.1662,-4.0932,-4.0308,-3.9122,-3.832,-3.8118,-3.7948,-3.7614,-3.7487,-3.7324,-3.6949,-3.606,-3.5048,-3.3827,-3.3212,-3.268,-3.2519,-3.2317,-3.2179,-3.1931,-3.1784,-3.1595,-3.15,-3.1615,-3.1839,-3.2144,-3.2144,-3.2109,-3.2056,-3.2003,-3.1896,-3.1842,-3.1823,-3.1824,-3.1806,-3.1823,-3.1751,-3.1804,-3.1589,-3.1579,-3.1058,-3.0585,-3.0282,-3.0093,-2.9955,-2.947,-2.9171,-2.9009,-2.8514,-2.8538,-2.8683,-2.8456,-2.834,-2.8255,-2.8295,-2.8417,-2.8507,-2.8576,-2.8619,-2.8632,-2.8594,-2.85,-2.8391,-2.8344,-2.8304,-2.8331,-2.837,-2.8422,-2.8383,-2.837,-2.837,-2.8331,-2.837,-2.8313,-2.8237,-2.8378,-2.8632,-2.8792,-2.8785,-2.8694,-2.8601,-2.8669,-2.8682,-2.8639,-2.8663,-2.87,-4.3876,-4.3881,-4.3599,-4.3497,-4.348,-4.3479,-4.3496,-4.3184,-4.1809,-4.1535,-4.2121,-4.1517,-4.1552,-4.2341,-4.302,-4.3479,-4.3479,-4.3479,-4.3479,-4.3479,-4.348,-4.3446,-4.3429,-4.334,-4.3251,-4.3014,-4.3014,-4.3196,-4.301,-4.1862,-4.1168,-4.0355,-3.9259,-3.8244,-3.781,-3.7451,-3.7378,-3.721,-3.7023,-3.6559,-3.5568,-3.4407,-3.3403,-3.2988,-3.2529,-3.2109,-3.1896,-3.1787,-3.1673,-3.1521,-3.1423,-3.144,-3.144,-3.144,-3.144,-3.144,-3.1443,-3.137,-3.1353,-3.1351,-3.1389,-3.1368,-3.1249,-3.123,-3.1249,-3.1332,-3.1252,-3.1252,-3.1374,-3.142,-3.1021,-3.0688,-3.0417,-3.0215,-2.9778,-2.9253,-2.9298,-2.9025,-2.8695,-2.8573,-2.8154,-2.8003,-2.8031,-2.7954,-2.8097,-2.8124,-2.8192,-2.8219,-2.8237,-2.8277,-2.821,-2.8037,-2.7926,-2.7844,-2.7858,-2.7901,-2.7957,-2.7986,-2.7971,-2.7971,-2.7904,-2.7847,-2.7815,-2.7869,-2.8079,-2.8326,-2.8543,-2.8582,-2.8339,-2.8273,-2.8448,-2.8461,-2.8286,-2.8268,-2.8347,-4.3515,-4.3481,-4.3497,-4.3481,-4.3411,-4.3463,-4.3461,-4.3222,-4.1756,-4.157,-4.2216,-4.1517,-4.1554,-4.2415,-4.3149,-4.3461,-4.3479,-4.3479,-4.3444,-4.3392,-4.3358,-4.3286,-4.3305,-4.3269,-4.2883,-4.2599,-4.256,-4.2846,-4.2722,-4.1757,-4.0888,-4.0111,-3.8818,-3.7507,-3.7015,-3.6801,-3.6237,-3.6178,-3.6199,-3.5834,-3.5112,-3.4215,-3.3433,-3.2725,-3.2055,-3.1542,-3.1485,-3.1411,-3.131,-3.1288,-3.1249,-3.123,-3.123,-3.1247,-3.1247,-3.1269,-3.1274,-3.1315,-3.1276,-3.1252,-3.123,-3.121,-3.119,-3.119,-3.119,-3.119,-3.119,-3.119,-3.1252,-3.1271,-3.123,-3.1089,-3.1038,-3.0801,-3.0362,-3.0059,-2.9914,-2.9497,-2.916,-2.8869,-2.8577,-2.8165,-2.7951,-2.7847,-2.7774,-2.7774,-2.7771,-2.7829,-2.7861,-2.7918,-2.7904,-2.7742,-2.7547,-2.7459,-2.7413,-2.7459,-2.7489,-2.7567,-2.7567,-2.7567,-2.7507,-2.7444,-2.7565,-2.7666,-2.7826,-2.784,-2.7869,-2.7855,-2.7797,-2.7883,-2.8027,-2.7961,-2.7803,-2.7872,-2.8024,-4.3304,-4.3286,-4.3304,-4.3322,-4.3286,-4.3304,-4.3066,-4.2462,-4.1475,-4.1384,-4.1894,-4.1377,-4.1741,-4.2803,-4.3404,-4.3479,-4.3497,-4.3428,-4.3268,-4.305,-4.292,-4.2732,-4.2458,-4.2378,-4.216,-4.2038,-4.1955,-4.1976,-4.1892,-4.1377,-4.0533,-3.9727,-3.8649,-3.7577,-3.6629,-3.643,-3.6178,-3.598,-3.5805,-3.5608,-3.5183,-3.4538,-3.3807,-3.3077,-3.2289,-3.171,-3.1334,-3.1213,-3.119,-3.119,-3.119,-3.119,-3.119,-3.119,-3.119,-3.119,-3.1213,-3.1235,-3.1215,-3.121,-3.119,-3.119,-3.119,-3.119,-3.119,-3.119,-3.119,-3.119,-3.119,-3.119,-3.119,-3.119,-3.119,-3.1055,-3.0818,-3.0768,-3.048,-2.9989,-2.9605,-2.9314,-2.901,-2.8682,-2.8264,-2.791,-2.7745,-2.7568,-2.7604,-2.7654,-2.7609,-2.7567,-2.7522,-2.743,-2.7227,-2.7069,-2.702,-2.702,-2.7036,-2.7068,-2.7068,-2.7085,-2.7085,-2.71,-2.7227,-2.7195,-2.7162,-2.718,-2.718,-2.7398,-2.7595,-2.7595,-2.7565,-2.7504,-2.7491,-2.7672,-2.7786,-4.316,-4.3123,-4.3196,-4.3196,-4.3178,-4.3196,-4.2759,-4.1975,-4.1428,-4.1464,-4.1775,-4.1611,-4.2139,-4.2941,-4.3069,-4.294,-4.3032,-4.3032,-4.2807,-4.2539,-4.2322,-4.2098,-4.1927,-4.1735,-4.1587,-4.1343,-4.1348,-4.1281,-4.1016,-4.0642,-4.0088,-3.9279,-3.8513,-3.7478,-3.6638,-3.6245,-3.6049,-3.5778,-3.5667,-3.5605,-3.5436,-3.4849,-3.4257,-3.358,-3.2814,-3.2019,-3.1546,-3.1224,-3.119,-3.119,-3.119,-3.119,-3.119,-3.119,-3.119,-3.119,-3.121,-3.121,-3.1193,-3.119,-3.119,-3.119,-3.119,-3.119,-3.119,-3.119,-3.119,-3.119,-3.119,-3.119,-3.119,-3.119,-3.119,-3.119,-3.1123,-3.1173,-3.1106,-3.0562,-3.0258,-3.0142,-2.9854,-2.945,-2.8935,-2.822,-2.779,-2.7479,-2.7433,-2.7446,-2.7367,-2.7244,-2.7181,-2.7101,-2.7005,-2.6858,-2.6825,-2.6775,-2.6708,-2.6691,-2.6691,-2.6725,-2.6808,-2.6825,-2.6874,-2.6775,-2.6641,-2.6775,-2.6956,-2.718,-2.7382,-2.7258,-2.7164,-2.718,-2.7227,-2.7415,-2.7444,-4.3031,-4.292,-4.3123,-4.316,-4.3105,-4.3178,-4.2722,-4.1975,-4.1883,-4.1829,-4.1994,-4.2211,-4.2367,-4.2505,-4.2324,-4.2103,-4.2,-4.1919,-4.1919,-4.1874,-4.176,-4.1648,-4.1472,-4.1321,-4.1208,-4.0902,-4.0832,-4.0611,-4.0343,-4.0346,-3.9604,-3.8738,-3.8282,-3.7075,-3.6203,-3.5849,-3.5827,-3.5661,-3.5616,-3.5616,-3.543,-3.5013,-3.4506,-3.4134,-3.3156,-3.2276,-3.2175,-3.165,-3.1224,-3.1224,-3.119,-3.119,-3.119,-3.119,-3.119,-3.1075,-3.1075,-3.1035,-3.0995,-3.1112,-3.119,-3.119,-3.119,-3.119,-3.119,-3.1171,-3.1171,-3.1055,-3.0918,-3.0938,-3.1035,-3.1151,-3.0898,-3.0858,-3.0818,-3.0918,-3.0975,-3.1081,-3.0827,-3.092,-3.063,-3.0118,-2.973,-2.9029,-2.81,-2.7743,-2.7077,-2.7084,-2.6988,-2.6891,-2.6841,-2.6791,-2.6775,-2.6708,-2.6725,-2.6691,-2.664,-2.664,-2.6657,-2.6657,-2.6708,-2.6674,-2.6504,-2.647,-2.6401,-2.6556,-2.6624,-2.659,-2.6607,-2.6724,-2.6775,-2.6841,-2.6875,-2.6957,-2.694,-4.2938,-4.2919,-4.2994,-4.2994,-4.2939,-4.2468,-4.2105,-4.176,-4.1306,-4.1451,-4.1959,-4.2276,-4.2462,-4.2344,-4.2041,-4.181,-4.1789,-4.176,-4.153,-4.1308,-4.1185,-4.0972,-4.0832,-4.0707,-4.0531,-4.0427,-4.0377,-4.0328,-4.0146,-4.0113,-3.9628,-3.8904,-3.8221,-3.7005,-3.6113,-3.5633,-3.5616,-3.5616,-3.5616,-3.5616,-3.5532,-3.5363,-3.4962,-3.4426,-3.4189,-3.3123,-3.2462,-3.2073,-3.1667,-3.1326,-3.1207,-3.119,-3.119,-3.119,-3.1055,-3.0858,-3.0818,-3.0679,-3.0576,-3.0834,-3.119,-3.119,-3.119,-3.1151,-3.1035,-3.0858,-3.0699,-3.0539,-3.0335,-3.0272,-3.0107,-3.0081,-3.0038,-3.0161,-3.033,-3.0497,-3.0617,-3.0757,-3.0801,-3.064,-3.0727,-3.0622,-3.0269,-2.9866,-2.8864,-2.7976,-2.7266,-2.6708,-2.6742,-2.6657,-2.664,-2.6624,-2.6624,-2.6624,-2.664,-2.6606,-2.6572,-2.6589,-2.6606,-2.6555,-2.6504,-2.6209,-2.6085,-2.6086,-2.5998,-2.5944,-2.5872,-2.5801,-2.5928,-2.6263,-2.6487,-2.6606,-2.6606,-2.6521,-2.6469,-4.2755,-4.2556,-4.252,-4.2538,-4.2484,-4.2194,-4.1667,-4.1195,-4.1288,-4.1433,-4.201,-4.2125,-4.2038,-4.1895,-4.1486,-4.1241,-4.1168,-4.1139,-4.0955,-4.0767,-4.057,-4.0385,-4.0196,-4.0121,-4.0221,-4.0113,-4.0113,-4.0113,-4.0113,-4.0113,-3.9647,-3.8986,-3.8244,-3.7144,-3.6299,-3.5684,-3.5616,-3.5616,-3.5616,-3.5616,-3.56,-3.5549,-3.5194,-3.4539,-3.415,-3.3427,-3.2496,-3.1972,-3.1633,-3.1326,-3.119,-3.119,-3.119,-3.1114,-3.0918,-3.0642,-3.0435,-3.0267,-3.0118,-3.0305,-3.074,-3.058,-3.0601,-3.0601,-3.0559,-3.0272,-3.0043,-3.0016,-2.9651,-2.9384,-2.9361,-2.954,-2.9585,-2.9739,-2.9827,-2.9957,-3.0016,-3.0102,-3.0225,-3.0255,-3.0323,-3.0252,-3.0071,-2.9637,-2.9132,-2.8226,-2.7597,-2.7127,-2.7009,-2.6858,-2.6572,-2.6589,-2.6572,-2.6555,-2.6555,-2.6503,-2.6468,-2.6537,-2.6503,-2.6365,-2.6225,-2.5886,-2.5668,-2.5635,-2.5505,-2.5278,-2.5259,-2.5392,-2.567,-2.5979,-2.6066,-2.6048,-2.5977,-2.5888,-2.5959,-4.2393,-4.1759,-4.1704,-4.1704,-4.1703,-4.2501,-4.1679,-4.0454,-4.1767,-4.2359,-4.2037,-4.1743,-4.1321,-4.0955,-4.0618,-4.0441,-4.041,-4.0328,-4.0254,-4.0254,-4.0254,-4.0146,-4.0121,-4.0113,-4.0113,-4.0113,-4.0113,-4.0113,-4.0113,-4.0113,-3.9673,-3.9056,-3.8345,-3.7398,-3.6728,-3.5977,-3.5633,-3.5616,-3.5616,-3.5616,-3.5616,-3.56,-3.5216,-3.4759,-3.4269,-3.3609,-3.2559,-3.1965,-3.1537,-3.1019,-3.0935,-3.0935,-3.0918,-3.0958,-3.074,-3.0351,-3.0335,-3.0123,-2.9815,-2.9815,-2.9777,-2.9827,-2.9957,-2.987,-2.9607,-2.9435,-2.9429,-2.9422,-2.9225,-2.9225,-2.9293,-2.9278,-2.9164,-2.9164,-2.921,-2.9345,-2.9368,-2.9601,-2.975,-2.9815,-2.9601,-2.9441,-2.9387,-2.9221,-2.9009,-2.8472,-2.7898,-2.7552,-2.7382,-2.6997,-2.6664,-2.6301,-2.6264,-2.6083,-2.6066,-2.6277,-2.6364,-2.6433,-2.6277,-2.601,-2.5811,-2.5538,-2.5351,-2.524,-2.4973,-2.4692,-2.4851,-2.5067,-2.5125,-2.5144,-2.5316,-2.5351,-2.5297,-2.5316,-2.5465,-4.1082,-4.0148,-4.0626,-4.0517,-4.0166,-4.0601,-4.0554,-4.0445,-4.1374,-4.1871,-4.1656,-4.1253,-4.0995,-4.0683,-4.0353,-4.0113,-4.0113,-4.0113,-4.0113,-4.0113,-4.0113,-4.0096,-4.0113,-4.0113,-4.0113,-4.0113,-4.0113,-4.0113,-4.0113,-4.0113,-4.0028,-3.952,-3.8273,-3.7229,-3.6282,-3.5667,-3.5616,-3.5616,-3.5616,-3.5616,-3.5616,-3.5583,-3.5447,-3.5126,-3.4788,-3.397,-3.2637,-3.2114,-3.1553,-3.0641,-3.0467,-3.0359,-3.0267,-3.023,-2.9935,-2.9496,-2.9323,-2.9081,-2.874,-2.8637,-2.8928,-2.9157,-2.9368,-2.9339,-2.9384,-2.8989,-2.8873,-2.8709,-2.8519,-2.84,-2.8174,-2.8174,-2.8149,-2.8222,-2.8328,-2.856,-2.8725,-2.9081,-2.9303,-2.9325,-2.9212,-2.9166,-2.9091,-2.9048,-2.886,-2.8844,-2.8378,-2.7984,-2.777,-2.7175,-2.6677,-2.6105,-2.5805,-2.5589,-2.5538,-2.5721,-2.5738,-2.5682,-2.5535,-2.5291,-2.5137,-2.5098,-2.4863,-2.4628,-2.4364,-2.4137,-2.4287,-2.4369,-2.4163,-2.4163,-2.4532,-2.4827,-2.4887,-2.4965,-2.5082,-4.0391,-3.9729,-4.0186,-3.9816,-3.9188,-3.9973,-4.0541,-4.0818,-4.1133,-4.1276,-4.1185,-4.0926,-4.0683,-4.0507,-4.0254,-4.0113,-4.0113,-4.0113,-4.0113,-4.0113,-4.0113,-4.0113,-4.0113,-4.0113,-4.0113,-4.0113,-4.0113,-4.0113,-4.0113,-4.0113,-3.9681,-3.8906,-3.8077,-3.6608,-3.5686,-3.535,-3.5616,-3.5616,-3.5616,-3.5616,-3.5616,-3.5566,-3.5408,-3.5149,-3.4796,-3.4253,-3.3045,-3.227,-3.1784,-3.0506,-2.9955,-2.9826,-2.9647,-2.9467,-2.9225,-2.8857,-2.8503,-2.8326,-2.8088,-2.7989,-2.831,-2.8575,-2.8803,-2.8826,-2.874,-2.8367,-2.8222,-2.8067,-2.7785,-2.7725,-2.765,-2.7585,-2.7635,-2.7735,-2.782,-2.8085,-2.8158,-2.8511,-2.8606,-2.863,-2.8677,-2.8701,-2.8818,-2.885,-2.8745,-2.8838,-2.8893,-2.8488,-2.8049,-2.7393,-2.6771,-2.6234,-2.5706,-2.5485,-2.527,-2.5121,-2.5079,-2.4922,-2.4843,-2.4764,-2.4679,-2.4639,-2.4349,-2.4099,-2.3958,-2.3837,-2.3702,-2.3659,-2.373,-2.3837,-2.4048,-2.4277,-2.4456,-2.4522,-2.4588,-4.0297,-4.0237,-4.025,-3.9586,-3.8972,-4.048,-4.1288,-4.1353,-4.0972,-4.0778,-4.0761,-4.0754,-4.0531,-4.0196,-4.0113,-4.0113,-4.0113,-4.0113,-4.0113,-4.0113,-4.0113,-4.0113,-4.0113,-4.0113,-4.0113,-4.0113,-4.0113,-4.0113,-4.0096,-3.9876,-3.9135,-3.8003,-3.7158,-3.5934,-3.5202,-3.497,-3.5234,-3.5155,-3.5155,-3.5115,-3.5091,-3.5253,-3.4887,-3.4591,-3.4255,-3.3565,-3.2658,-3.2099,-3.1443,-3.0703,-3.0307,-2.9924,-2.9612,-2.9403,-2.909,-2.8662,-2.8195,-2.7989,-2.784,-2.779,-2.775,-2.7968,-2.791,-2.7775,-2.776,-2.782,-2.782,-2.777,-2.7635,-2.761,-2.7585,-2.7585,-2.7585,-2.761,-2.761,-2.7685,-2.7685,-2.7785,-2.7785,-2.781,-2.782,-2.7944,-2.8222,-2.8328,-2.8424,-2.8466,-2.8542,-2.8573,-2.8088,-2.7496,-2.6936,-2.655,-2.601,-2.5524,-2.5237,-2.4895,-2.4605,-2.4477,-2.4538,-2.4461,-2.4369,-2.424,-2.4036,-2.3867,-2.3681,-2.3595,-2.3595,-2.3595,-2.3616,-2.3724,-2.3831,-2.3852,-2.4027,-2.3937,-2.3943,-3.937,-3.867,-3.9149,-3.9174,-3.9044,-4.0048,-4.049,-4.0483,-4.0353,-4.0303,-4.0303,-4.0303,-4.0229,-4.0113,-4.0113,-4.0113,-4.0113,-4.0113,-4.0113,-4.0113,-4.0113,-4.0113,-4.0113,-4.0113,-4.0113,-4.0113,-4.0113,-4.0045,-3.9901,-3.9636,-3.8758,-3.7663,-3.6448,-3.5384,-3.4733,-3.4297,-3.4209,-3.4252,-3.4276,-3.4374,-3.4325,-3.435,-3.4072,-3.3933,-3.3868,-3.3137,-3.2331,-3.2012,-3.1332,-3.0432,-3.0181,-2.9776,-2.906,-2.8953,-2.8717,-2.8014,-2.7775,-2.77,-2.765,-2.765,-2.765,-2.7625,-2.765,-2.7625,-2.7625,-2.7585,-2.7585,-2.7585,-2.7585,-2.7585,-2.7585,-2.7585,-2.7585,-2.7585,-2.7585,-2.7585,-2.7585,-2.7585,-2.7585,-2.7585,-2.7585,-2.7635,-2.7894,-2.7894,-2.7993,-2.8018,-2.8103,-2.8215,-2.814,-2.7558,-2.7152,-2.6767,-2.6258,-2.5749,-2.5122,-2.4726,-2.4346,-2.4088,-2.4139,-2.4105,-2.3958,-2.3846,-2.3739,-2.3674,-2.361,-2.3573,-2.3595,-2.3573,-2.353,-2.3573,-2.3659,-2.3616,-2.3595,-2.3573,-2.3573,-3.9177,-3.886,-3.9242,-3.9453,-3.952,-3.9926,-4.0113,-4.0113,-4.0113,-4.0113,-4.0113,-4.0096,-4.0113,-4.0113,-4.0113,-4.0113,-4.0113,-4.0113,-4.0113,-4.0113,-4.0087,-4.0113,-4.0113,-4.0113,-4.0113,-4.0087,-3.9995,-3.9825,-3.9506,-3.8777,-3.7929,-3.7062,-3.5852,-3.492,-3.4073,-3.3266,-3.2776,-3.2997,-3.3261,-3.3479,-3.3556,-3.3531,-3.3572,-3.3469,-3.3495,-3.2872,-3.2146,-3.2004,-3.137,-3.0413,-3.0211,-2.9867,-2.917,-2.8899,-2.8673,-2.807,-2.777,-2.7685,-2.7585,-2.7585,-2.7585,-2.7585,-2.7585,-2.76,-2.76,-2.7585,-2.7585,-2.7585,-2.7585,-2.7585,-2.7585,-2.7585,-2.7585,-2.7585,-2.7585,-2.7585,-2.7585,-2.7585,-2.7585,-2.7585,-2.7585,-2.7585,-2.761,-2.7585,-2.761,-2.771,-2.777,-2.7849,-2.789,-2.7661,-2.734,-2.7041,-2.6489,-2.592,-2.5322,-2.4798,-2.4462,-2.4118,-2.3766,-2.3713,-2.356,-2.3566,-2.3588,-2.3588,-2.3566,-2.3566,-2.3545,-2.348,-2.3458,-2.3501,-2.3508,-2.348,-2.3501,-2.3566,-2.3551,-3.9486,-4.0045,-4.0113,-4.0045,-4.0096,-4.0096,-4.0113,-4.0096,-4.007,-4.0087,-4.0113,-4.0113,-4.0113,-4.0113,-4.0087,-4.0062,-4.0037,-4.0037,-3.9995,-4.0045,-4.0011,-4.0011,-4.0011,-4.0062,-3.9893,-3.9935,-3.9747,-3.9305,-3.8679,-3.7999,-3.721,-3.64,-3.5043,-3.4106,-3.3556,-3.2416,-3.1938,-3.2048,-3.261,-3.3103,-3.3193,-3.3323,-3.3375,-3.3182,-3.305,-3.2817,-3.2419,-3.2093,-3.1787,-3.0988,-3.0507,-3.0295,-2.9711,-2.9112,-2.8828,-2.8607,-2.8289,-2.8019,-2.7899,-2.7854,-2.769,-2.7645,-2.7585,-2.7585,-2.7585,-2.7585,-2.7585,-2.7585,-2.7585,-2.7585,-2.7585,-2.7585,-2.7585,-2.7575,-2.7549,-2.7549,-2.7539,-2.7499,-2.7448,-2.7448,-2.7448,-2.7473,-2.7473,-2.7448,-2.7423,-2.7499,-2.7524,-2.756,-2.7555,-2.752,-2.7423,-2.7242,-2.691,-2.634,-2.5771,-2.5256,-2.4781,-2.4342,-2.3844,-2.3489,-2.348,-2.3487,-2.3494,-2.3494,-2.3458,-2.3473,-2.3451,-2.3407,-2.3348,-2.3348,-2.3348,-2.3304,-2.3348,-2.3414,-2.348,-3.9943,-4.0113,-4.0113,-4.0113,-4.0113,-4.0113,-4.0113,-4.007,-4.0003,-3.9986,-4.007,-4.0096,-4.0087,-4.0062,-3.9961,-3.9935,-3.9952,-3.9884,-3.9833,-3.9764,-3.9764,-3.9618,-3.9729,-3.9592,-3.947,-3.9172,-3.8897,-3.8569,-3.7905,-3.7217,-3.669,-3.6228,-3.4821,-3.3759,-3.3411,-3.2213,-3.1644,-3.1583,-3.1866,-3.2256,-3.2213,-3.2061,-3.1964,-3.1992,-3.1964,-3.2048,-3.1796,-3.1724,-3.1578,-3.1271,-3.1256,-3.0898,-3.0328,-2.9684,-2.9412,-2.9337,-2.9112,-2.8753,-2.8483,-2.8319,-2.8169,-2.7779,-2.7645,-2.7615,-2.7585,-2.7585,-2.7585,-2.7585,-2.7585,-2.7585,-2.7585,-2.7585,-2.7575,-2.7549,-2.7514,-2.7463,-2.7452,-2.7386,-2.7321,-2.7321,-2.7321,-2.7321,-2.7335,-2.7335,-2.731,-2.7284,-2.7284,-2.731,-2.7321,-2.7302,-2.7352,-2.7245,-2.7335,-2.6867,-2.6268,-2.5731,-2.5287,-2.4701,-2.4159,-2.3799,-2.343,-2.3371,-2.3356,-2.3363,-2.3363,-2.3341,-2.3356,-2.3319,-2.3297,-2.3253,-2.3231,-2.3209,-2.3105,-2.3127,-2.326,-4.0011,-4.0011,-3.9961,-3.9918,-3.9918,-3.9918,-3.9918,-3.991,-3.9833,-3.9833,-3.9893,-3.9918,-3.9935,-3.9935,-3.9833,-3.9781,-3.9781,-3.9729,-3.947,-3.9322,-3.9216,-3.8984,-3.9001,-3.892,-3.864,-3.8302,-3.786,-3.744,-3.7025,-3.6477,-3.5992,-3.5823,-3.4554,-3.3785,-3.344,-3.2467,-3.1765,-3.1525,-3.1525,-3.1496,-3.1496,-3.1496,-3.1496,-3.1496,-3.1496,-3.1496,-3.1496,-3.1496,-3.1496,-3.1496,-3.1451,-3.1376,-3.0853,-3.0342,-3.0043,-2.9894,-2.9699,-2.9442,-2.9172,-2.8936,-2.8727,-2.8278,-2.8023,-2.8128,-2.7503,-2.7473,-2.7549,-2.7549,-2.7585,-2.7585,-2.7575,-2.7549,-2.7499,-2.7463,-2.7386,-2.7335,-2.731,-2.7269,-2.7244,-2.7244,-2.7244,-2.7244,-2.7244,-2.7244,-2.7218,-2.7233,-2.7207,-2.7181,-2.7181,-2.7037,-2.713,-2.7181,-2.7181,-2.7214,-2.6815,-2.6282,-2.5791,-2.5193,-2.4505,-2.3837,-2.3332,-2.3252,-2.3223,-2.3105,-2.3105,-2.3223,-2.3201,-2.3053,-2.3098,-2.3053,-2.3075,-2.3075,-2.2949,-2.2754,-2.2799,-3.9875,-3.9875,-3.9755,-3.9703,-3.9703,-3.9703,-3.9703,-3.9703,-3.9677,-3.9694,-3.9677,-3.9668,-3.9677,-3.9703,-3.9677,-3.9625,-3.9504,-3.9302,-3.9038,-3.8652,-3.8525,-3.8318,-3.808,-3.7851,-3.7748,-3.7397,-3.6889,-3.6615,-3.6305,-3.5878,-3.5606,-3.5372,-3.4846,-3.4234,-3.3574,-3.2871,-3.2198,-3.1824,-3.166,-3.1525,-3.1496,-3.1496,-3.1496,-3.1496,-3.1496,-3.1496,-3.1496,-3.1496,-3.1496,-3.1496,-3.1496,-3.1451,-3.1331,-3.0911,-3.0776,-3.0567,-3.0342,-3.0028,-2.9771,-2.9696,-2.9295,-2.8921,-2.8786,-2.8379,-2.7743,-2.7524,-2.7575,-2.7452,-2.7488,-2.7499,-2.7488,-2.7423,-2.7386,-2.731,-2.7207,-2.7104,-2.7104,-2.7089,-2.7089,-2.7089,-2.7089,-2.7089,-2.7089,-2.7089,-2.7063,-2.7078,-2.7078,-2.7104,-2.7052,-2.6829,-2.675,-2.6791,-2.6817,-2.6864,-2.6975,-2.6685,-2.609,-2.5573,-2.4859,-2.3954,-2.3167,-2.2781,-2.2615,-2.2754,-2.2777,-2.27,-2.2655,-2.2503,-2.2609,-2.2692,-2.254,-2.2411,-2.2365,-2.2226,-2.2203,-3.9746,-3.9746,-3.9703,-3.9703,-3.9703,-3.9703,-3.9703,-3.9677,-3.9563,-3.9554,-3.9511,-3.9432,-3.9484,-3.9677,-3.9563,-3.9362,-3.8892,-3.8728,-3.821,-3.7719,-3.769,-3.756,-3.7383,-3.7161,-3.7071,-3.6662,-3.6164,-3.5782,-3.5846,-3.5636,-3.5489,-3.5444,-3.4861,-3.4429,-3.4174,-3.338,-3.2602,-3.2273,-3.1914,-3.1735,-3.163,-3.1585,-3.1511,-3.1496,-3.1496,-3.1496,-3.1496,-3.1496,-3.1496,-3.1496,-3.1496,-3.1496,-3.1436,-3.1316,-3.1212,-3.1122,-3.0898,-3.0717,-3.0492,-3.0345,-2.9971,-2.9436,-2.9176,-2.8749,-2.8216,-2.7803,-2.7639,-2.7158,-2.7166,-2.7251,-2.7211,-2.7181,-2.713,-2.7026,-2.6922,-2.6817,-2.6724,-2.6698,-2.6671,-2.6738,-2.6765,-2.6738,-2.6671,-2.6592,-2.6459,-2.6433,-2.6285,-2.6338,-2.6566,-2.6459,-2.6326,-2.6353,-2.6379,-2.6606,-2.6709,-2.6707,-2.6307,-2.581,-2.5149,-2.413,-2.3086,-2.2014,-2.1886,-2.2133,-2.2011,-2.1823,-2.1813,-2.2025,-2.1908,-2.1931,-2.1742,-2.1623,-2.167,-2.1684,-2.167]},{"header":{"parameterUnit":"m.s-1","parameterCategory":1,"la1":31.0,"la2":29.5877,"lo1":-88.7671,"lo2":-86.6584,"dy":0.0162,"dx":0.0185,"nx":115,"ny":88,"refTime":"2023-07-24T06:00:00:Z","depth":0,"parameterNumber":3,"parameterNumberName":"V-component_of_WINDS"},"data":[0.0,0.0,0.0,0.0,0.0,0.0,0.0,0.0,0.0,0.0,0.0,0.0,0.0,0.0,0.0,0.0,0.0,0.0,0.0,0.0,0.0,0.0,0.0,0.0,0.0,0.0,0.0,0.0,0.0,0.0,0.0,0.0,0.0,0.0,0.0,0.0,0.0,0.0,0.0,0.0,0.0,0.0,0.0,0.0,0.0,0.0,0.0,0.0,0.0,0.0,0.0,0.0,0.0,0.0,0.0,0.0,0.0,0.0,0.0,0.0,0.0,0.0,0.0,0.0,0.0,0.0,0.0,0.0,0.0,0.0,0.0,0.0,0.0,0.0,0.0,0.0,0.0,0.0,0.0,0.0,0.0,0.0,0.0,0.0,0.0,0.0,0.0,0.0,0.0,0.0,0.0,0.0,0.0,0.0,0.0,0.0,0.0,0.0,0.0,0.0,0.0,0.0,0.0,0.0,0.0,0.0,0.0,0.0,0.0,0.0,0.0,0.0,0.0,0.0,0.0,0.0,0.0,0.0,0.0,0.0,0.0,0.0,0.0,0.0,0.0,0.0,0.0,0.0,0.0,0.0,0.0,0.0,0.0,0.0,0.0,0.0,0.0,0.0,0.0,0.0,0.0,0.0,0.0,0.0,0.0,0.0,0.0,0.0,0.0,0.0,0.0,0.0,0.0,0.0,0.0,0.0,0.0,0.0,0.0,0.0,0.0,0.0,0.0,0.0,0.0,0.0,0.0,0.0,0.0,0.0,0.0,0.0,0.0,0.0,0.0,0.0,0.0,0.0,0.0,0.0,0.0,0.0,0.0,0.0,0.0,0.0,0.0,0.0,0.0,0.0,0.0,0.0,0.0,0.0,0.0,0.0,0.0,0.0,0.0,0.0,0.0,0.0,0.0,0.0,0.0,0.0,0.0,0.0,0.0,0.0,0.0,0.0,0.0,0.0,0.0,0.0,0.0,0.0,0.0,0.0,0.0,0.0,0.0,0.0,0.0,0.0,0.0,0.0,0.0,0.0,0.0,0.0,0.0,0.0,0.0,0.0,0.0,0.0,0.0,0.0,0.0,0.0,0.0,0.0,0.0,0.0,0.0,0.0,0.0,0.0,0.0,0.0,0.0,0.0,0.0,0.0,0.0,0.0,0.0,0.0,0.0,0.0,0.0,0.0,0.0,0.0,0.0,0.0,0.0,0.0,0.0,0.0,0.0,0.0,0.0,0.0,0.0,0.0,0.0,0.0,0.0,0.0,0.0,0.0,0.0,0.0,0.0,0.0,0.0,0.0,0.0,0.0,0.0,0.0,0.0,0.0,0.0,0.0,0.0,0.0,0.0,0.0,0.0,0.0,0.0,0.0,0.0,0.0,0.0,0.0,0.0,0.0,0.0,0.0,0.0,0.0,0.0,0.0,0.0,0.0,0.0,0.0,0.0,0.0,0.0,0.0,0.0,0.0,0.0,0.0,0.0,0.0,0.0,0.0,0.0,0.0,0.0,0.0,0.0,0.0,0.0,0.0,0.0,0.0,0.0,0.0,0.0,0.0,0.0,0.0,0.0,0.0,0.0,0.0,0.0,0.0,0.0,0.0,0.0,0.0,0.0,0.0,0.0,0.0,0.0,0.0,0.0,0.0,0.0,0.0,0.0,0.0,0.0,0.0,0.0,0.0,0.0,0.0,0.0,0.0,0.0,0.0,0.0,0.0,0.0,0.0,0.0,0.0,0.0,0.0,0.0,0.0,0.0,0.0,0.0,0.0,0.0,0.0,0.0,0.0,0.0,0.0,0.0,0.0,0.0,0.0,0.0,0.0,0.0,0.0,0.0,0.0,0.0,0.0,0.0,0.0,0.0,0.0,0.0,0.0,0.0,0.0,0.0,0.0,0.0,0.0,0.0,0.0,0.0,0.0,0.0,0.0,0.0,0.0,0.0,0.0,0.0,0.0,0.0,0.0,0.0,0.0,0.0,0.0,0.0,0.0,0.0,0.0,0.0,0.0,0.0,0.0,0.0,0.0,0.0,0.0,0.0,0.0,0.0,0.0,0.0,0.0,0.0,0.0,0.0,0.0,0.0,0.0,0.0,0.0,0.0,0.0,0.0,0.0,0.0,0.0,0.0,0.0,0.0,0.0,0.0,0.0,0.0,0.0,0.0,0.0,0.0,0.0,0.0,0.0,0.0,0.0,0.0,0.0,0.0,0.0,0.0,0.0,0.0,0.0,0.0,0.0,0.0,0.0,0.0,0.0,0.0,0.0,0.0,0.0,0.0,0.0,0.0,0.0,0.0,0.0,0.0,0.0,0.0,0.0,0.0,0.0,0.0,0.0,0.0,0.0,0.0,0.0,0.0,0.0,0.0,0.0,0.0,0.0,0.0,0.0,0.0,0.0,0.0,0.0,0.0,0.0,0.0,0.0,0.0,0.0,0.0,0.0,0.0,0.0,0.0,0.0,0.0,0.0,0.0,0.0,0.0,0.0,0.0,0.0,0.0,0.0,0.0,0.0,0.0,0.0,0.0,0.0,0.0,0.0,0.0,0.0,0.0,0.0,0.0,0.0,0.0,0.0,0.0,0.0,0.0,0.0,0.0,0.0,0.0,0.0,0.0,0.0,0.0,0.0,0.0,0.0,0.0,0.0,0.0,0.0,0.0,0.0,0.0,0.0,0.0,0.0,0.0,0.0,0.0,0.0,0.0,0.0,0.0,0.0,0.0,0.0,0.0,0.0,0.0,0.0,0.0,0.0,0.0,0.0,0.0,0.0,0.0,0.0,0.0,0.0,0.0,0.0,0.0,0.0,0.0,0.0,0.0,0.0,0.0,0.0,0.0,0.0,0.0,0.0,0.0,0.0,0.0,0.0,0.0,0.0,0.0,0.0,0.0,0.0,0.0,0.0,0.0,0.0,0.0,0.0,0.0,0.0,0.0,0.0,0.0,0.0,0.0,0.0,0.0,0.0,0.0,0.0,0.0,0.0,0.0,0.0,0.0,0.0,0.0,0.0,0.0,0.0,0.0,0.0,0.0,0.0,0.0,0.0,0.0,0.0,0.0,0.0,0.0,0.0,0.0,0.0,0.0,0.0,0.0,0.0,0.0,0.0,0.0,0.0,0.0,0.0,0.0,0.0,0.0,0.0,0.0,0.0,0.0,0.0,0.0,0.0,0.0,0.0,0.0,0.0,0.0,0.0,0.0,0.0,0.0,0.0,0.0,0.0,0.0,0.0,0.0,0.0,0.0,0.0,0.0,0.0,0.0,0.0,0.0,0.0,0.0,0.0,0.0,0.0,0.0,0.0,0.0,0.0,0.0,0.0,0.0,0.0,0.0,0.0,0.0,0.0,0.0,0.0,0.0,0.0,0.0,0.0,0.0,0.0,0.0,0.0,0.0,0.0,0.0,0.0,0.0,0.0,0.0,0.0,0.0,0.0,0.0,0.0,0.0,0.0,0.0,0.0,0.0,0.0,0.0,0.0,0.0,0.0,0.0,0.0,0.0,0.0,0.0,0.0,0.0,0.0,0.0,0.0,0.0,0.0,0.0,0.0,0.0,0.0,0.0,0.0,0.0,0.0,0.0,0.0,0.0,0.0,0.0,0.0,0.0,0.0,0.0,0.0,0.0,0.0,0.0,0.0,0.0,0.0,0.0,0.0,0.0,0.0,0.0,0.0,0.0,0.0,0.0,0.0,0.0,0.0,0.0,0.0,0.0,0.0,0.0,0.0,0.0,0.0,0.0,0.0,0.0,0.0,0.0,0.0,0.0,0.0,0.0,0.0,0.0,0.0,0.0,0.0,0.0,0.0,0.0,0.0,0.0,0.0,0.0,0.0,0.0,0.0,0.0,0.0,0.0,0.0,0.0,0.0,0.0,0.0,0.0,0.0,0.0,0.0,0.0,0.0,0.0,0.0,0.0,0.0,0.0,0.0,0.0,0.0,0.0,0.0,0.0,0.0,0.0,0.0,0.0,0.0,0.0,0.0,0.0,0.0,0.0,0.0,0.0,0.0,0.0,0.0,0.0,0.0,0.0,0.0,0.0,0.0,0.0,0.0,0.0,0.0,0.0,0.0,0.0,0.0,0.0,0.0,0.0,0.0,0.0,0.0,0.0,0.0,0.0,0.0,0.0,0.0,0.0,0.0,0.0,0.0,0.0,0.0,0.0,0.0,0.0,0.0,0.0,0.0,0.0,0.0,0.0,0.0,0.0,0.0,0.0,0.0,0.0,0.0,0.0,0.0,0.0,0.0,0.0,0.0,0.0,0.0,0.0,0.0,0.0,0.0,0.0,0.0,-0.7188,0.0,0.0,0.0,0.0,0.0,0.0,0.0,0.0,0.0,0.0,0.0,0.0,0.0,0.0,0.0,0.0,0.0,0.0,0.0,0.0,0.0,0.0,0.0,0.0,0.0,0.0,0.0,0.0,0.0,0.0,0.0,0.0,0.0,0.0,0.0,0.0,0.0,0.0,0.0,0.0,0.0,0.0,0.0,0.0,0.0,0.0,0.0,0.0,0.0,0.0,0.0,0.0,0.0,0.0,0.0,0.0,0.0,0.0,0.0,0.0,0.0,0.0,0.0,0.0,0.0,0.0,0.0,0.0,0.0,0.0,0.0,0.0,0.0,0.0,0.0,0.0,0.0,0.0,0.0,0.0,0.0,0.0,0.0,0.0,0.0,0.0,0.0,0.0,0.0,0.0,0.0,0.0,0.0,0.0,0.0,0.0,0.0,0.0,0.0,0.0,0.0,0.0,0.0,0.0,0.0,0.0,0.0,0.0,0.0,0.0,-0.8011,-0.773,-0.7601,-0.7416,-0.7104,0.0,0.0,0.0,0.0,0.0,0.0,0.0,0.0,0.0,0.0,0.0,0.0,0.0,0.0,0.0,0.0,0.0,0.0,0.0,0.0,0.0,0.0,0.0,0.0,0.0,0.0,0.0,0.0,0.0,0.0,0.0,0.0,0.0,0.0,0.0,0.0,0.0,0.0,0.0,0.0,0.0,0.0,0.0,0.0,0.0,0.0,0.0,0.0,0.0,0.0,0.0,0.0,0.0,0.0,0.0,0.0,0.0,0.0,0.0,0.0,0.0,0.0,0.0,0.0,0.0,0.0,0.0,0.0,0.0,0.0,0.0,0.0,0.0,0.0,0.0,0.0,0.0,0.0,0.0,0.0,0.0,0.0,0.0,0.0,0.0,0.0,0.0,0.0,0.0,0.0,0.0,0.0,0.0,0.0,0.0,0.0,0.0,0.0,0.0,0.0,0.0,0.0,0.0,0.0,0.0,0.0,0.0,0.0,0.0,0.0,0.0,0.0,-0.774,-0.7429,-0.6956,0.0,0.0,0.0,0.0,0.0,0.0,0.0,0.0,0.0,0.0,0.0,0.0,0.0,0.0,0.0,0.0,0.0,0.0,0.0,0.0,0.0,0.0,0.0,0.0,0.0,0.0,0.0,0.0,0.0,0.0,0.0,0.0,0.0,0.0,0.0,0.0,0.0,0.0,0.0,0.0,0.0,0.0,0.0,0.0,0.0,0.0,0.0,0.0,0.0,0.0,0.0,0.0,0.0,0.0,0.0,0.0,0.0,0.0,0.0,0.0,0.0,0.0,0.0,0.0,0.0,0.0,0.0,0.0,0.0,0.0,0.0,0.0,0.0,0.0,0.0,0.0,0.0,0.0,0.0,0.0,0.0,0.0,0.0,0.0,0.0,0.0,0.0,0.0,0.0,0.0,0.0,0.0,0.0,0.0,0.0,0.0,0.0,0.0,0.0,0.0,0.0,0.0,0.0,0.0,0.0,0.0,0.0,0.0,0.0,0.0,-0.8421,-0.7933,-0.7654,0.0,-0.6772,0.0,0.0,0.0,0.0,0.0,0.0,0.0,0.0,0.0,0.0,0.0,0.0,0.0,0.0,0.0,0.0,0.0,0.0,0.0,0.0,0.0,0.0,0.0,0.0,0.0,0.0,0.0,0.0,0.0,0.0,0.0,0.0,0.0,0.0,0.0,0.0,0.0,0.0,0.0,0.0,0.0,0.0,0.0,0.0,0.0,0.0,0.0,0.0,0.0,0.0,0.0,0.0,0.0,0.0,0.0,0.0,0.0,0.0,0.0,0.0,0.0,0.0,0.0,0.0,0.0,0.0,0.0,0.0,0.0,0.0,0.0,0.0,0.0,0.0,0.0,0.0,0.0,0.0,0.0,0.0,0.0,0.0,0.0,0.0,0.0,0.0,0.0,0.0,0.0,0.0,0.0,0.0,0.0,0.0,0.0,0.0,0.0,0.0,0.0,0.0,0.0,0.0,0.0,0.0,0.0,0.0,0.0,0.0,0.0,0.0,-0.8973,-0.8445,-0.7676,-0.7154,0.0,0.0,0.0,0.0,0.0,0.0,0.0,0.0,0.0,0.0,0.0,0.0,0.0,0.0,0.0,0.0,0.0,0.0,0.0,0.0,0.0,0.0,0.0,0.0,0.0,0.0,0.0,0.0,0.0,0.0,0.0,0.0,0.0,0.0,0.0,0.0,0.0,0.0,0.0,0.0,0.0,0.0,0.0,0.0,0.0,0.0,0.0,0.0,0.0,0.0,0.0,0.0,0.0,0.0,0.0,0.0,0.0,0.0,0.0,0.0,0.0,0.0,0.0,0.0,0.0,0.0,0.0,0.0,0.0,0.0,0.0,0.0,0.0,0.0,0.0,0.0,0.0,0.0,0.0,0.0,0.0,0.0,0.0,0.0,0.0,0.0,0.0,0.0,0.0,0.0,0.0,0.0,0.0,0.0,0.0,0.0,0.0,0.0,0.0,0.0,0.0,0.0,0.0,0.0,0.0,0.0,0.0,0.0,0.0,0.0,-0.9562,-0.9263,-0.8625,-0.7656,-0.7107,-0.7106,0.0,0.0,0.0,0.0,0.0,0.0,0.0,0.0,0.0,0.0,0.0,0.0,0.0,0.0,0.0,0.0,0.0,0.0,0.0,0.0,0.0,0.0,0.0,0.0,0.0,0.0,0.0,0.0,0.0,0.0,0.0,0.0,0.0,0.0,0.0,0.0,0.0,0.0,0.0,0.0,0.0,0.0,0.0,0.0,0.0,0.0,0.0,0.0,0.0,0.0,0.0,0.0,0.0,0.0,0.0,0.0,0.0,0.0,0.0,0.0,0.0,0.0,0.0,0.0,0.0,0.0,0.0,0.0,0.0,0.0,0.0,0.0,0.0,0.0,0.0,0.0,0.0,0.0,0.0,0.0,0.0,0.0,0.0,0.0,0.0,0.0,0.0,0.0,0.0,0.0,0.0,0.0,0.0,0.0,0.0,0.0,0.0,0.0,0.0,0.0,0.0,0.0,0.0,0.0,0.0,0.0,0.0,0.0,-0.9588,-0.9465,-0.9038,-0.827,-0.7486,-0.7107,0.0,0.0,0.0,0.0,0.0,0.0,0.0,0.0,0.0,0.0,0.0,0.0,0.0,0.0,0.0,0.0,0.0,0.0,0.0,0.0,0.0,0.0,0.0,0.0,0.0,0.0,0.0,0.0,0.0,0.0,0.0,0.0,0.0,0.0,0.0,0.0,0.0,0.0,0.0,0.0,0.0,0.0,0.0,0.0,0.0,0.0,0.0,0.0,0.0,0.0,0.0,0.0,0.0,0.0,0.0,0.0,0.0,0.0,0.0,0.0,0.0,0.0,0.0,0.0,0.0,0.0,0.0,0.0,0.0,0.0,0.0,0.0,0.0,0.0,0.0,0.0,0.0,0.0,0.0,0.0,0.0,0.0,0.0,0.0,0.0,0.0,0.0,0.0,0.0,0.0,0.0,0.0,0.0,0.0,0.0,0.0,0.0,0.0,0.0,0.0,0.0,0.0,0.0,0.0,0.0,0.0,0.0,0.0,0.0,-0.9465,-0.9256,-0.8849,-0.8222,-0.7696,-0.7224,0.0,0.0,0.0,0.0,0.0,0.0,0.0,0.0,0.0,0.0,0.0,0.0,0.0,0.0,0.0,0.0,0.0,0.0,0.0,0.0,0.0,0.0,0.0,0.0,0.0,0.0,0.0,0.0,0.0,0.0,0.0,0.0,0.0,0.0,0.0,0.0,0.0,0.0,0.0,0.0,0.0,0.0,0.0,0.0,0.0,0.0,0.0,0.0,0.0,0.0,0.0,0.0,0.0,0.0,0.0,0.0,0.0,0.0,0.0,0.0,0.0,0.0,0.0,0.0,0.0,0.0,0.0,0.0,0.0,0.0,0.0,0.0,0.0,0.0,0.0,0.0,0.0,0.0,0.0,0.0,0.0,0.0,0.0,0.0,0.0,0.0,0.0,0.0,0.0,0.0,0.0,0.0,0.0,0.0,0.0,0.0,0.0,0.0,0.0,0.0,0.0,0.0,0.0,0.0,0.0,0.0,0.0,0.0,0.0,-0.9256,0.0,-0.8718,-0.8395,-0.7792,-0.7335,0.0,0.0,0.0,0.0,0.0,0.0,0.0,0.0,0.0,0.0,0.0,0.0,0.0,0.0,0.0,0.0,0.0,0.0,0.0,0.0,0.0,0.0,0.0,0.0,0.0,0.0,0.0,0.0,0.0,0.0,0.0,0.0,0.0,0.0,0.0,0.0,0.0,0.0,0.0,0.0,0.0,0.0,0.0,0.0,0.0,0.0,0.0,0.0,0.0,0.0,0.0,0.0,0.0,0.0,0.0,0.0,0.0,0.0,0.0,0.0,0.0,0.0,0.0,0.0,0.0,0.0,0.0,0.0,0.0,0.0,0.0,0.0,0.0,0.0,0.0,0.0,0.0,0.0,0.0,0.0,0.0,0.0,0.0,0.0,0.0,0.0,0.0,0.0,0.0,0.0,0.0,0.0,0.0,0.0,0.0,0.0,0.0,0.0,0.0,0.0,0.0,0.0,0.0,0.0,0.0,0.0,0.0,0.0,-0.9263,-0.9008,-0.8732,-0.8633,-0.8752,-0.7759,-0.741,0.0,0.0,0.0,0.0,0.0,0.0,0.0,0.0,0.0,0.0,0.0,0.0,0.0,0.0,0.0,0.0,0.0,0.0,0.0,0.0,0.0,0.0,0.0,0.0,0.0,0.0,0.0,0.0,0.0,0.0,0.0,0.0,0.0,0.0,0.0,0.0,0.0,0.0,0.0,0.0,0.0,0.0,0.0,0.0,0.0,0.0,0.0,0.0,0.0,0.0,0.0,0.0,0.0,0.0,0.0,0.0,0.0,0.0,0.0,0.0,0.0,0.0,0.0,0.0,0.0,0.0,0.0,0.0,0.0,0.0,0.0,0.0,0.0,0.0,0.0,0.0,0.0,0.0,0.0,0.0,0.0,0.0,0.0,0.0,0.0,0.0,0.0,0.0,0.0,0.0,0.0,0.0,0.0,0.0,0.0,0.0,0.0,0.0,0.0,0.0,0.0,0.0,0.0,0.0,0.0,0.0,0.0,0.0,0.0,-0.8982,-0.8435,-0.8143,-0.817,-0.7679,-0.7295,0.0,0.0,0.0,0.0,0.0,0.0,0.0,0.0,0.0,0.0,0.0,0.0,0.0,0.0,0.0,0.0,0.0,0.0,0.0,0.0,0.0,0.0,0.0,0.0,0.0,0.0,0.0,0.0,0.0,0.0,0.0,0.0,0.0,0.0,0.0,0.0,0.0,0.0,0.0,0.0,0.0,0.0,0.0,0.0,0.0,0.0,0.0,0.0,0.0,0.0,0.0,0.0,0.0,0.0,0.0,0.0,0.0,0.0,0.0,0.0,0.0,0.0,0.0,0.0,0.0,0.0,0.0,0.0,0.0,0.0,0.0,0.0,0.0,0.0,0.0,0.0,0.0,0.0,0.0,0.0,0.0,0.0,0.0,0.0,0.0,0.0,0.0,0.0,0.0,0.0,0.0,0.0,0.0,0.0,0.0,0.0,0.0,0.0,0.0,0.0,0.0,0.0,0.0,0.0,0.0,0.0,0.0,0.0,0.0,-0.8406,-0.7885,-0.764,-0.7749,-0.7373,-0.7133,-0.6979,0.0,0.0,0.0,0.0,0.0,0.0,0.0,0.0,0.0,0.0,0.0,0.0,0.0,0.0,0.0,0.0,0.0,0.0,0.0,0.0,0.0,0.0,0.0,0.0,0.0,0.0,0.0,0.0,0.0,0.0,0.0,0.0,0.0,0.0,0.0,0.0,0.0,0.0,0.0,0.0,0.0,0.0,0.0,0.0,0.0,0.0,0.0,0.0,0.0,0.0,0.0,0.0,0.0,0.0,0.0,0.0,0.0,0.0,0.0,0.0,0.0,0.0,0.0,0.0,0.0,0.0,0.0,0.0,0.0,0.0,0.0,0.0,0.0,0.0,0.0,0.0,0.0,0.0,0.0,0.0,0.0,0.0,0.0,0.0,0.0,0.0,0.0,0.0,0.0,0.0,0.0,0.0,0.0,0.0,0.0,0.0,0.0,0.0,0.0,0.0,0.0,0.0,0.0,0.0,0.0,0.0,0.0,0.0,-0.7451,-0.7177,-0.7172,-0.7429,-0.6971,-0.6931,0.0,0.0,0.0,0.0,0.0,0.0,0.0,0.0,0.0,0.0,0.0,0.0,0.0,0.0,0.0,0.0,0.0,0.0,0.0,0.0,0.0,0.0,0.0,0.0,0.0,0.0,0.0,0.0,0.0,0.0,0.0,0.0,0.0,0.0,0.0,0.0,0.0,0.0,0.0,0.0,0.0,0.0,0.0,0.0,0.0,0.0,0.0,0.0,0.0,0.0,0.0,0.0,0.0,0.0,0.0,0.0,0.0,0.0,0.0,0.0,0.0,0.0,0.0,0.0,0.0,0.0,0.0,0.0,0.0,0.0,0.0,0.0,0.0,0.0,0.0,0.0,0.0,0.0,0.0,0.0,0.0,0.0,0.0,0.0,0.0,0.0,0.0,0.0,0.0,0.0,0.0,0.0,0.0,0.0,0.0,0.0,0.0,0.0,0.0,0.0,0.0,0.0,0.0,0.0,0.0,0.0,0.0,0.0,0.0,-0.6919,-0.6419,-0.6297,-0.6682,-0.6692,-0.6707,0.0,0.0,0.0,0.0,0.0,0.0,0.0,0.0,0.0,0.0,0.0,0.0,0.0,0.0,0.0,0.0,0.0,0.0,0.0,0.0,0.0,0.0,0.0,0.0,0.0,0.0,0.0,0.0,0.0,0.0,0.0,0.0,0.0,0.0,0.0,0.0,0.0,0.0,0.0,0.0,0.0,0.0,0.0,0.0,0.0,0.0,0.0,0.0,0.0,0.0,0.0,0.0,0.0,0.0,0.0,0.0,0.0,0.0,0.0,0.0,0.0,0.0,0.0,0.0,0.0,0.0,0.0,0.0,0.0,0.0,0.0,0.0,0.0,0.0,0.0,0.0,0.0,0.0,0.0,0.0,0.0,0.0,0.0,0.0,0.0,0.0,0.0,0.0,0.0,0.0,0.0,0.0,0.0,0.0,0.0,0.0,0.0,0.0,0.0,0.0,0.0,0.0,0.0,0.0,0.0,0.0,0.0,0.0,-0.7061,-0.6503,-0.5935,-0.5714,-0.5865,-0.626,-0.6501,0.0,0.0,0.0,0.0,0.0,0.0,0.0,0.0,0.0,0.0,0.0,0.0,0.0,0.0,0.0,0.0,0.0,0.0,0.0,0.0,0.0,0.0,0.0,0.0,0.0,0.0,0.0,0.0,0.0,0.0,0.0,0.0,0.0,0.0,0.0,0.0,0.0,0.0,0.0,0.0,0.0,0.0,0.0,0.0,0.0,0.0,0.0,0.0,0.0,0.0,0.0,0.0,0.0,0.0,0.0,0.0,0.0,0.0,0.0,0.0,0.0,0.0,0.0,0.0,0.0,0.0,0.0,0.0,0.0,0.0,0.0,0.0,0.0,0.0,0.0,0.0,0.0,0.0,0.0,0.0,0.0,0.0,0.0,0.0,0.0,0.0,0.0,0.0,0.0,0.0,0.0,0.0,0.0,0.0,0.0,0.0,0.0,0.0,0.0,0.0,0.0,0.0,0.0,0.0,0.0,0.0,0.0,0.0,-0.6752,-0.6185,-0.5664,-0.5327,-0.5159,-0.5828,-0.6324,0.0,0.0,0.0,0.0,0.0,0.0,0.0,0.0,0.0,0.0,0.0,0.0,0.0,0.0,0.0,0.0,0.0,0.0,0.0,0.0,0.0,0.0,0.0,0.0,0.0,0.0,0.0,0.0,0.0,0.0,0.0,0.0,0.0,0.0,0.0,0.0,0.0,0.0,0.0,0.0,0.0,0.0,0.0,0.0,0.0,0.0,0.0,0.0,0.0,0.0,0.0,0.0,0.0,0.0,0.0,0.0,0.0,0.0,0.0,0.0,0.0,0.0,0.0,0.0,0.0,0.0,0.0,0.0,0.0,0.0,0.0,0.0,0.0,0.0,0.0,0.0,0.0,0.0,0.0,0.0,0.0,0.0,0.0,0.0,0.0,0.0,0.0,0.0,0.0,0.0,0.0,0.0,0.0,0.0,0.0,0.0,0.0,0.0,0.0,0.0,0.0,0.0,0.0,0.0,0.0,0.0,0.0,0.0,-0.6489,-0.5903,-0.5557,-0.5378,-0.5344,-0.5891,-0.6126,0.0,0.0,0.0,0.0,0.0,0.0,0.0,0.0,0.0,0.0,0.0,0.0,0.0,0.0,0.0,0.0,0.0,0.0,0.0,0.0,0.0,0.0,0.0,0.0,0.0,0.0,0.0,0.0,0.0,0.0,0.0,0.0,0.0,0.0,0.0,0.0,0.0,0.0,0.0,0.0,0.0,0.0,0.0,0.0,0.0,0.0,0.0,0.0,-1.27,0.0,0.0,0.0,0.0,0.0,0.0,0.0,0.0,0.0,0.0,0.0,0.0,0.0,0.0,0.0,0.0,0.0,0.0,0.0,0.0,0.0,0.0,0.0,0.0,0.0,0.0,0.0,0.0,0.0,0.0,0.0,0.0,0.0,0.0,0.0,0.0,0.0,0.0,0.0,0.0,0.0,0.0,0.0,0.0,0.0,0.0,0.0,0.0,0.0,0.0,0.0,0.0,0.0,0.0,0.0,0.0,0.0,0.0,0.0,-0.6415,-0.5828,-0.5545,-0.5395,-0.5418,-0.5724,-0.5955,0.0,0.0,0.0,0.0,0.0,0.0,0.0,0.0,0.0,0.0,0.0,0.0,0.0,0.0,0.0,0.0,0.0,0.0,0.0,0.0,0.0,0.0,0.0,0.0,0.0,0.0,0.0,0.0,0.0,0.0,0.0,0.0,0.0,0.0,0.0,0.0,0.0,0.0,0.0,0.0,0.0,0.0,0.0,0.0,0.0,0.0,0.0,0.0,0.0,0.0,0.0,0.0,0.0,0.0,0.0,0.0,0.0,0.0,0.0,0.0,0.0,0.0,0.0,0.0,0.0,0.0,0.0,0.0,0.0,0.0,0.0,0.0,0.0,0.0,0.0,0.0,0.0,0.0,0.0,0.0,0.0,0.0,0.0,0.0,0.0,0.0,0.0,0.0,0.0,0.0,0.0,0.0,0.0,0.0,0.0,0.0,0.0,0.0,0.0,0.0,0.0,0.0,0.0,0.0,0.0,0.0,0.0,-0.6885,-0.6336,-0.5739,-0.5523,-0.5395,-0.5388,-0.5505,-0.5759,-0.6143,0.0,0.0,0.0,0.0,0.0,0.0,0.0,0.0,0.0,0.0,0.0,0.0,0.0,0.0,0.0,0.0,0.0,0.0,0.0,0.0,0.0,0.0,0.0,0.0,0.0,0.0,0.0,0.0,0.0,0.0,0.0,0.0,0.0,0.0,0.0,0.0,0.0,0.0,-1.3242,-1.2766,0.0,0.0,0.0,0.0,0.0,0.0,0.0,0.0,-1.1323,0.0,0.0,0.0,0.0,0.0,0.0,0.0,0.0,0.0,0.0,0.0,0.0,0.0,0.0,0.0,0.0,0.0,0.0,0.0,0.0,0.0,0.0,0.0,0.0,0.0,0.0,0.0,0.0,0.0,0.0,0.0,0.0,0.0,0.0,0.0,0.0,0.0,0.0,0.0,0.0,0.0,0.0,0.0,0.0,0.0,0.0,0.0,0.0,0.0,0.0,0.0,0.0,0.0,0.0,0.0,0.0,-0.6825,-0.646,-0.6007,-0.5482,-0.5415,-0.5395,-0.5385,-0.5419,-0.5612,-0.601,0.0,0.0,0.0,0.0,0.0,0.0,0.0,0.0,0.0,0.0,0.0,0.0,0.0,0.0,0.0,0.0,0.0,0.0,0.0,0.0,0.0,0.0,0.0,0.0,0.0,0.0,0.0,0.0,0.0,0.0,0.0,0.0,0.0,0.0,0.0,0.0,0.0,0.0,0.0,-1.1742,-1.1462,0.0,0.0,0.0,0.0,0.0,0.0,0.0,0.0,-1.0206,0.0,0.0,0.0,0.0,0.0,0.0,0.0,0.0,0.0,0.0,0.0,0.0,0.0,0.0,0.0,0.0,0.0,0.0,0.0,0.0,0.0,0.0,0.0,0.0,0.0,0.0,0.0,0.0,0.0,0.0,0.0,0.0,0.0,0.0,0.0,0.0,0.0,0.0,0.0,0.0,0.0,0.0,0.0,0.0,0.0,0.0,0.0,0.0,0.0,0.0,0.0,0.0,0.0,0.0,0.0,-0.6788,-0.6271,-0.5801,-0.5418,-0.5395,-0.5395,-0.5388,-0.5419,-0.5551,0.0,0.0,0.0,0.0,0.0,0.0,0.0,0.0,0.0,0.0,0.0,0.0,0.0,0.0,0.0,0.0,0.0,0.0,0.0,0.0,0.0,0.0,0.0,0.0,0.0,0.0,0.0,0.0,0.0,0.0,0.0,0.0,0.0,0.0,0.0,0.0,0.0,0.0,0.0,0.0,-1.1083,-1.0849,-1.0609,0.0,0.0,0.0,0.0,0.0,0.0,-1.0582,-1.042,0.0,0.0,0.0,0.0,0.0,0.0,0.0,0.0,0.0,0.0,0.0,0.0,0.0,0.0,0.0,0.0,0.0,0.0,0.0,0.0,0.0,0.0,0.0,0.0,0.0,0.0,0.0,0.0,0.0,0.0,0.0,0.0,0.0,0.0,0.0,0.0,0.0,0.0,0.0,0.0,0.0,0.0,0.0,0.0,0.0,0.0,0.0,0.0,0.0,0.0,0.0,0.0,0.0,0.0,0.0,-0.6773,-0.6148,-0.566,-0.5418,-0.5395,-0.5395,-0.5388,-0.5419,-0.5551,0.0,0.0,0.0,0.0,0.0,0.0,0.0,0.0,0.0,0.0,0.0,0.0,0.0,0.0,0.0,0.0,0.0,0.0,0.0,0.0,0.0,0.0,0.0,0.0,0.0,0.0,0.0,0.0,0.0,0.0,0.0,0.0,0.0,0.0,0.0,0.0,0.0,0.0,0.0,0.0,0.0,-1.0335,-0.9997,-1.0245,0.0,0.0,0.0,0.0,-1.0865,-1.0744,0.0,0.0,0.0,0.0,0.0,0.0,0.0,0.0,0.0,0.0,0.0,0.0,0.0,0.0,0.0,0.0,0.0,0.0,0.0,0.0,0.0,0.0,0.0,0.0,0.0,0.0,0.0,0.0,0.0,0.0,0.0,0.0,0.0,0.0,0.0,0.0,0.0,0.0,0.0,0.0,0.0,0.0,0.0,0.0,0.0,0.0,0.0,0.0,0.0,0.0,0.0,0.0,0.0,0.0,0.0,0.0,-0.6469,-0.6024,-0.5692,-0.5418,-0.5395,-0.5395,-0.5392,-0.5505,-0.5574,0.0,0.0,0.0,0.0,0.0,0.0,0.0,0.0,0.0,0.0,0.0,0.0,0.0,0.0,0.0,0.0,0.0,0.0,0.0,0.0,0.0,0.0,0.0,0.0,0.0,0.0,0.0,0.0,0.0,0.0,0.0,0.0,0.0,0.0,0.0,0.0,0.0,0.0,0.0,0.0,0.0,-0.9921,-1.0664,-1.0548,-1.0361,0.0,0.0,-1.0443,-1.0481,-1.0399,0.0,0.0,0.0,0.0,0.0,0.0,0.0,0.0,0.0,0.0,0.0,0.0,0.0,0.0,0.0,0.0,0.0,0.0,0.0,0.0,0.0,0.0,0.0,0.0,0.0,0.0,0.0,0.0,0.0,0.0,0.0,0.0,0.0,0.0,0.0,0.0,0.0,0.0,0.0,0.0,0.0,0.0,0.0,0.0,0.0,0.0,0.0,0.0,0.0,0.0,0.0,0.0,0.0,0.0,0.0,-0.6278,-0.6276,-0.5808,-0.5527,-0.5392,-0.5395,-0.5359,-0.5223,-0.5283,-0.5362,0.0,0.0,0.0,0.0,0.0,0.0,0.0,0.0,0.0,0.0,0.0,0.0,0.0,0.0,0.0,0.0,0.0,0.0,0.0,0.0,0.0,0.0,0.0,0.0,0.0,0.0,0.0,0.0,0.0,0.0,0.0,0.0,0.0,0.0,0.0,0.0,0.0,0.0,0.0,0.0,0.0,0.0,-1.0455,-1.0756,0.0,0.0,0.0,-1.095,-1.0785,0.0,0.0,0.0,0.0,0.0,0.0,0.0,0.0,0.0,0.0,0.0,0.0,0.0,0.0,0.0,0.0,0.0,0.0,0.0,0.0,0.0,0.0,0.0,0.0,0.0,0.0,0.0,0.0,0.0,0.0,0.0,0.0,0.0,0.0,0.0,0.0,0.0,0.0,0.0,0.0,0.0,0.0,0.0,0.0,0.0,0.0,0.0,0.0,0.0,0.0,0.0,0.0,0.0,0.0,0.0,0.0,0.0,-0.6163,-0.561,-0.5359,-0.5395,-0.5359,-0.5256,-0.5084,-0.4873,0.0,0.0,0.0,0.0,0.0,0.0,0.0,0.0,0.0,0.0,0.0,0.0,0.0,0.0,0.0,0.0,0.0,0.0,0.0,0.0,0.0,0.0,0.0,0.0,0.0,0.0,0.0,-0.8393,0.0,0.0,0.0,0.0,0.0,0.0,0.0,0.0,0.0,0.0,0.0,0.0,0.0,0.0,-1.042,-1.0135,-1.0655,-1.0895,0.0,0.0,-1.1257,-1.1001,-1.1173,-1.1328,0.0,0.0,0.0,0.0,0.0,0.0,0.0,0.0,0.0,0.0,0.0,0.0,0.0,0.0,0.0,0.0,0.0,0.0,0.0,0.0,0.0,0.0,0.0,0.0,0.0,0.0,0.0,0.0,0.0,0.0,0.0,0.0,0.0,0.0,0.0,0.0,0.0,0.0,0.0,0.0,0.0,0.0,0.0,0.0,0.0,0.0,0.0,0.0,0.0,0.0,0.0,0.0,0.0,0.0,0.0,-0.6061,-0.5466,-0.519,-0.5395,-0.5223,-0.512,-0.5084,-0.432,-0.4068,0.0,0.0,0.0,0.0,0.0,0.0,0.0,0.0,0.0,0.0,0.0,0.0,0.0,0.0,0.0,0.0,0.0,0.0,0.0,0.0,0.0,0.0,0.0,0.0,0.0,0.0,0.0,0.0,0.0,0.0,0.0,0.0,0.0,0.0,0.0,0.0,0.0,0.0,0.0,0.0,0.0,-0.9988,-0.9857,-1.0029,-1.0157,0.0,0.0,-1.0908,-1.0921,-1.1115,-1.136,-1.1448,0.0,0.0,0.0,0.0,0.0,0.0,0.0,0.0,0.0,0.0,0.0,0.0,0.0,0.0,0.0,0.0,0.0,0.0,0.0,0.0,0.0,0.0,0.0,0.0,0.0,0.0,0.0,0.0,0.0,0.0,0.0,0.0,0.0,0.0,0.0,0.0,0.0,0.0,0.0,0.0,0.0,0.0,0.0,0.0,0.0,0.0,0.0,0.0,0.0,0.0,0.0,0.0,0.0,-0.5419,-0.5765,-0.5215,-0.496,-0.5027,-0.496,-0.4658,-0.4118,-0.3714,-0.351,0.0,0.0,0.0,0.0,0.0,0.0,0.0,0.0,0.0,0.0,0.0,0.0,0.0,0.0,0.0,0.0,0.0,0.0,0.0,0.0,0.0,0.0,0.0,0.0,0.0,0.0,0.0,0.0,-0.8457,-0.8769,-0.893,0.0,0.0,0.0,0.0,0.0,0.0,0.0,0.0,0.0,0.0,-0.9824,-0.9739,-1.0085,0.0,0.0,-1.0651,-1.1116,-1.1027,-1.1184,-1.1288,-1.1241,-1.1187,0.0,0.0,0.0,0.0,0.0,0.0,0.0,0.0,0.0,0.0,0.0,0.0,0.0,0.0,0.0,0.0,0.0,0.0,0.0,0.0,0.0,0.0,0.0,0.0,0.0,0.0,0.0,0.0,0.0,0.0,0.0,0.0,0.0,0.0,0.0,0.0,0.0,0.0,0.0,0.0,0.0,0.0,0.0,0.0,0.0,0.0,0.0,0.0,0.0,0.0,0.0,0.0,-0.5251,-0.5577,-0.5038,-0.4761,-0.4794,-0.4561,-0.4123,-0.352,-0.2958,-0.2665,0.0,0.0,0.0,0.0,0.0,0.0,0.0,0.0,0.0,0.0,0.0,0.0,0.0,0.0,0.0,0.0,0.0,0.0,0.0,0.0,0.0,0.0,0.0,0.0,0.0,0.0,0.0,0.0,-0.8371,-0.8795,-0.9135,0.0,0.0,0.0,0.0,0.0,0.0,0.0,0.0,0.0,0.0,-0.9502,-0.9398,-0.985,-1.0165,-1.0115,-1.0754,-1.1223,-1.1213,-1.1204,-1.114,-1.0974,0.0,0.0,0.0,0.0,0.0,0.0,0.0,0.0,0.0,0.0,0.0,0.0,0.0,0.0,0.0,0.0,0.0,0.0,0.0,0.0,0.0,0.0,0.0,0.0,0.0,0.0,0.0,0.0,0.0,0.0,-0.0894,0.0,0.0,0.0,0.0,0.0,0.0,0.0,0.0,0.0,0.0,0.0,0.0,0.0,0.0,0.0,0.0,0.0,0.0,0.0,0.0,0.0,0.0,-0.4945,-0.5576,-0.4885,-0.4628,-0.4728,-0.3956,-0.3487,-0.342,-0.198,-0.1325,-0.1737,0.0,0.0,0.0,0.0,0.0,0.0,0.0,0.0,0.0,0.0,0.0,0.0,0.0,0.0,0.0,0.0,0.0,0.0,0.0,0.0,0.0,0.0,0.0,0.0,0.0,0.0,-0.7484,-0.8174,-0.8778,0.0,0.0,0.0,0.0,0.0,0.0,0.0,0.0,0.0,0.0,-0.8919,-0.8792,-0.8735,-0.9138,-0.9671,-1.0275,-1.0787,-1.1186,-1.1424,-1.1167,-1.0837,0.0,0.0,0.0,0.0,0.0,0.0,0.0,0.0,0.0,0.0,0.0,0.0,0.0,0.0,0.0,0.0,0.0,0.0,0.0,0.0,0.0,0.0,0.0,0.0,0.0,0.0,0.0,-0.1159,-0.0899,0.0,0.0,0.0,0.0,0.0,0.0,0.0,0.0,0.0,0.0,0.0,-0.1911,-0.1699,0.0,0.0,0.0,0.0,0.0,0.0,0.0,0.0,0.0,0.0,0.0,0.0,-0.4081,-0.4447,-0.3482,-0.295,-0.3017,-0.2714,-0.2348,-0.1914,-0.1378,-0.1061,-0.1031,0.0,0.0,0.0,0.0,0.0,0.0,0.0,0.0,0.0,0.0,0.0,0.0,0.0,0.0,0.0,0.0,0.0,0.0,0.0,0.0,0.0,0.0,0.0,0.0,0.0,-0.6997,0.0,0.0,0.0,0.0,0.0,0.0,0.0,0.0,0.0,0.0,0.0,-0.8915,-0.8686,-0.8677,-0.8625,-0.8572,-0.912,-0.9548,0.0,0.0,0.0,0.0,0.0,0.0,0.0,0.0,0.0,0.0,0.0,0.0,0.0,0.0,-1.0837,-1.1528,-1.1662,-1.1717,-1.187,0.0,0.0,0.0,0.0,0.0,0.0,0.0,0.0,0.0,0.0,0.0,0.0,0.0,0.0,-0.0893,0.0,-0.0626,0.0,0.0,0.0,0.0,0.0,0.0,0.0,0.0,-0.098,-0.0932,-0.1284,-0.1096,-0.1096,0.0,-0.1425,-0.1931,0.0,0.0,0.0,0.0,0.0,0.0,0.0,0.0,-0.342,-0.3585,-0.2614,-0.2114,-0.208,-0.1879,-0.1544,-0.1109,-0.0875,-0.0631,-0.0452,-0.086,-0.1219,0.0,0.0,0.0,0.0,0.0,0.0,0.0,0.0,0.0,0.0,0.0,0.0,0.0,0.0,0.0,0.0,0.0,0.0,0.0,0.0,0.0,0.0,0.0,-0.6733,0.0,0.0,0.0,0.0,0.0,0.0,0.0,0.0,0.0,-0.8872,-0.8656,-0.8377,-0.8149,-0.8356,-0.8521,-0.8536,0.0,0.0,0.0,0.0,0.0,0.0,0.0,-1.0267,-1.0198,-1.0095,-0.9984,-0.9799,-0.9806,-0.9884,-0.9969,0.0,0.0,-1.0913,-1.0964,-1.101,-1.1325,-1.1403,-1.1504,-1.1833,-1.1937,-1.196,0.0,0.0,0.0,0.0,0.0,0.0,0.0,0.0,-0.0865,-0.0791,0.0,-0.0488,0.0,0.0,0.0,0.0,0.0,-0.0487,0.0,0.0,-0.0229,-0.0133,-0.0388,-0.0388,-0.0388,-0.042,-0.0723,-0.1069,-0.1479,-0.1783,0.0,0.0,0.0,0.0,0.0,0.0,-0.2956,-0.2922,-0.2315,-0.2013,-0.198,-0.1377,-0.1042,-0.1041,-0.0371,0.0,0.0,-0.044,-0.0671,-0.0709,-0.1515,0.0,0.0,0.0,0.0,0.0,0.0,0.0,0.0,0.0,0.0,0.0,0.0,0.0,0.0,0.0,0.0,0.0,0.0,0.0,0.0,-0.6025,0.0,0.0,0.0,0.0,0.0,0.0,0.0,0.0,0.0,0.0,-0.8679,-0.8625,-0.8259,-0.7537,0.0,0.0,0.0,0.0,-0.9555,-1.0257,-1.0233,-1.02,-1.048,-0.9784,-0.9185,-0.9185,0.0,0.0,-0.8928,-0.9295,-0.9607,-0.9884,-0.9762,-0.978,-0.9894,-1.0,-1.0256,-1.0956,-1.0931,-1.1065,-1.181,-1.1861,-1.183,-0.2293,0.0,0.0,0.0,0.0,-0.1309,-0.1022,-0.0732,-0.0478,-0.0381,-0.0346,-0.0286,0.0,0.0,0.0,0.0,0.0,0.0,-0.0375,-0.0351,-0.0227,-0.0132,-0.01,-0.01,-0.01,-0.01,-0.0198,-0.033,-0.0432,-0.0528,-0.135,-0.285,0.0,0.0,0.0,0.0,-0.1947,-0.1743,-0.1008,-0.0605,-0.0606,-0.0404,-0.0303,-0.0303,-0.0135,0.0,0.0,-0.013,-0.0346,-0.0702,-0.0945,0.0,0.0,0.0,0.0,0.0,0.0,0.0,0.0,0.0,0.0,0.0,0.0,0.0,0.0,0.0,0.0,0.0,0.0,0.0,-0.5379,-0.5387,-0.5518,0.0,0.0,0.0,0.0,0.0,0.0,0.0,0.0,0.0,-0.73,-0.729,-0.7372,0.0,0.0,-0.7898,-0.8718,-0.8214,-0.787,-0.8159,-0.8257,0.0,0.0,-0.858,-0.8856,-0.8659,-0.8427,-0.8315,-0.8547,-0.8468,-0.8421,-0.8494,-0.8474,-0.8468,-0.8547,-0.9171,-0.9762,-1.0012,-1.0285,-1.0574,-1.0829,-1.1167,-1.1343,-0.1341,-0.1577,-0.1381,-0.1209,-0.1034,-0.0816,-0.0543,-0.0295,-0.0033,0.0065,0.0,0.0065,-0.0032,-0.0185,-0.0278,0.0,0.0,0.0,-0.0255,-0.0131,-0.0099,-0.0066,0.0,0.0,0.0,0.0,0.0,0.0,0.0,-0.0135,-0.074,-0.1813,0.0,0.0,-0.2418,-0.1579,-0.1109,-0.0939,-0.0336,0.0,0.0,0.0,0.0,0.0,0.0,0.0,0.0,0.0,-0.0128,-0.0409,-0.0603,-0.0964,0.0,0.0,0.0,0.0,0.0,0.0,0.0,0.0,0.0,0.0,0.0,-0.3189,0.0,0.0,0.0,0.0,-0.3764,-0.4324,-0.4705,-0.4686,0.0,0.0,0.0,0.0,0.0,0.0,0.0,-0.6463,-0.6343,-0.6156,-0.5895,-0.5886,-0.611,-0.673,-0.6841,-0.7059,-0.7603,0.0,-0.6802,-0.7015,-0.7004,-0.6972,-0.6923,-0.7299,-0.7626,-0.7691,-0.7616,-0.7589,-0.767,-0.7702,-0.7655,-0.7467,-0.7574,-0.7762,-0.7815,-0.8388,-0.8961,-0.9223,-0.9536,-0.9821,-1.0028,-1.0395,-1.049,-0.0364,-0.047,-0.0948,-0.092,-0.0583,-0.042,-0.0066,0.0303,0.0438,0.0432,0.0325,0.0433,0.036,0.0124,-0.0093,0.0,0.0032,-0.013,-0.0131,0.0,0.0,0.0,0.0,0.0,0.0,0.0,0.0,0.0,0.0,-0.0303,-0.0471,-0.047,-0.0471,-0.084,-0.1445,-0.0873,-0.0538,-0.0471,-0.0202,0.0,0.0,0.0,0.0,0.0,0.0,0.0,0.0,0.0,0.0032,0.0064,-0.0367,-0.0652,-0.0739,0.0,0.0,0.0,0.0,0.0,0.0,0.0,0.0,0.0,0.0,0.0,0.0,0.0,0.0,0.0,-0.2634,0.0,-0.3708,-0.3852,0.0,0.0,0.0,-0.4695,-0.4108,-0.5027,-0.5458,-0.4882,0.0,0.0,-0.4559,-0.4544,-0.4684,-0.5038,-0.5646,-0.6001,-0.5873,-0.5964,-0.6134,-0.6369,-0.6212,-0.6158,-0.6298,-0.6086,-0.6068,-0.6475,-0.6507,-0.6534,-0.6588,-0.6972,-0.7085,-0.6647,-0.7004,-0.7375,-0.7503,-0.7557,-0.7824,-0.8455,-0.8745,-0.8981,-0.9432,-0.9614,-0.9666,0.0073,-0.0364,0.0,0.0209,0.0309,0.0303,0.0368,0.0472,0.0472,0.0504,0.0467,0.0504,0.0468,0.0397,0.0231,0.0199,0.02,0.0033,-0.0033,0.0,0.0,0.0,0.0,0.0,0.0,0.0,0.0,0.0,0.0,-0.0067,-0.0202,-0.0337,-0.0337,-0.0572,-0.0974,-0.0974,-0.074,-0.0371,-0.037,-0.0236,0.0,0.0,0.0,0.0,0.0,0.0269,0.0807,0.0301,0.0264,0.0806,0.0191,-0.0313,-0.0672,-0.1183,0.0,0.0,0.0,0.0,0.0,0.0,0.0,0.0,0.0,-0.2526,-0.2963,0.0,-0.2752,0.0,-0.1599,-0.1572,-0.2431,-0.2306,0.0,0.0,-0.309,-0.3229,-0.2938,-0.2987,-0.3095,-0.326,-0.3559,-0.3707,-0.3554,-0.3939,-0.4157,-0.4032,-0.4576,-0.5255,-0.5956,-0.5218,-0.4744,-0.5074,-0.5027,-0.4924,-0.503,-0.5254,-0.55,-0.5733,-0.576,-0.5814,-0.5964,-0.61,-0.6154,-0.6018,-0.61,-0.6209,-0.6263,-0.6556,-0.6885,-0.7176,-0.8004,-0.8823,-0.8988,-0.9302,-0.9458,0.0697,0.0383,0.0758,0.0892,0.0832,0.0706,0.0664,0.0698,0.0724,0.0755,0.0788,0.0745,0.0774,0.074,0.0607,0.054,0.0506,0.0304,0.0236,0.0236,0.0169,0.0135,0.0135,0.0034,0.0,0.0,0.0,0.0,0.0,0.0,-0.0067,-0.0169,-0.0169,-0.0303,-0.0572,-0.0774,-0.0707,-0.0539,-0.0504,-0.0336,0.0,0.0,-0.0067,-0.0202,-0.0067,0.0135,0.037,0.0135,0.0133,0.0387,0.0032,-0.0281,-0.0485,-0.0879,-0.1151,0.0,0.0,0.0,0.0,0.0,0.0,0.0,0.0,0.0,0.0,0.0,-0.2103,-0.1928,-0.108,-0.0951,-0.1994,-0.1757,-0.16,-0.1774,-0.213,-0.2219,-0.1814,-0.1903,-0.2046,-0.2269,-0.2466,-0.2684,-0.2927,-0.3277,-0.3523,-0.3572,-0.3919,-0.4372,-0.4837,-0.4355,-0.3962,-0.4168,-0.4159,-0.4107,-0.4107,-0.4353,-0.4677,-0.4976,-0.5058,-0.5117,-0.5199,-0.5418,-0.5496,-0.5281,-0.5418,-0.5605,-0.5683,-0.5873,-0.6122,-0.6372,-0.7095,-0.7865,-0.8243,-0.8593,-0.8732,0.1293,0.1311,0.1321,0.1293,0.1189,0.101,0.0957,0.0946,0.1067,0.1092,0.1125,0.1133,0.1121,0.1087,0.0885,0.0818,0.0818,0.0611,0.0508,0.0508,0.0371,0.0304,0.0304,0.0169,0.0067,0.0067,0.0067,0.0067,0.0067,0.0067,0.0034,0.0034,0.0,-0.0101,-0.0304,-0.0337,-0.0471,-0.0773,-0.0605,-0.037,-0.0067,-0.0067,-0.0168,-0.0403,-0.0101,0.0,-0.0168,0.0,0.0033,-0.0129,-0.022,-0.0184,0.0,-0.0404,-0.0426,0.0,-0.0738,0.0,0.0,0.0,0.0,0.0,0.0,0.0,0.0,-0.1188,-0.1276,-0.1491,-0.0782,-0.071,-0.1683,-0.1399,-0.1034,-0.0774,-0.1205,-0.13,-0.0837,-0.1203,-0.1539,-0.1539,-0.1595,-0.1874,-0.2373,-0.2514,-0.2794,-0.3188,-0.3294,-0.334,-0.3383,-0.3522,-0.3633,-0.3613,-0.3613,-0.3669,-0.3669,-0.3641,-0.3833,-0.427,-0.438,-0.438,-0.4408,-0.4732,-0.4924,-0.4543,-0.4732,-0.5058,-0.5242,-0.5296,-0.5437,-0.5582,-0.6122,-0.6745,-0.7402,-0.7756,-0.7848,0.1358,0.1371,0.1301,0.1286,0.1278,0.1249,0.1196,0.113,0.116,0.1158,0.1194,0.1187,0.1185,0.1185,0.097,0.0898,0.0861,0.0667,0.0591,0.0591,0.0511,0.0472,0.0438,0.0438,0.0405,0.0405,0.0405,0.0405,0.0405,0.0405,0.0337,0.0236,0.0067,-0.0101,-0.027,0.0,0.0,0.0,-0.0605,-0.047,-0.0403,-0.0403,-0.0303,-0.0101,0.0235,0.0,0.1378,0.0942,0.083,0.1162,0.0642,0.0,0.0,0.0,0.0,0.0,0.0,0.0,0.0,0.0,0.0,0.0,0.0113,-0.0495,-0.1144,-0.1085,-0.0897,-0.0604,-0.0398,-0.0242,-0.0082,0.0,0.0083,0.0139,0.0028,0.0028,0.014,0.0028,-0.0056,-0.0168,-0.0588,-0.098,-0.126,-0.1679,-0.2014,-0.2153,-0.2153,-0.2153,-0.2153,-0.2965,-0.3557,-0.3613,-0.3613,-0.3613,-0.3613,-0.3613,-0.3638,-0.3747,-0.3777,-0.3805,-0.3833,-0.3858,-0.3944,-0.3777,-0.3833,-0.3968,-0.3993,-0.4353,-0.4708,-0.4736,-0.525,-0.5928,-0.6664,-0.7219,-0.7595,0.1413,0.0,0.1413,0.1396,0.0,0.1352,0.1311,0.1252,0.1209,0.118,0.1203,0.1203,0.1203,0.1203,0.1093,0.1056,0.1056,0.0934,0.0893,0.0893,0.074,0.0701,0.0666,0.0588,0.055,0.0584,0.088,0.1042,0.1042,0.1411,0.1544,0.1478,0.1376,0.1275,0.1208,0.1541,0.144,0.0804,0.077,0.0838,0.0939,0.1039,0.1039,0.0973,0.1374,0.0,0.0,0.0,0.0,0.0,0.0,0.0,0.0,0.0,0.0,0.2476,0.2196,0.2145,0.248,0.2143,0.2065,0.2392,0.1949,0.0948,-0.0575,-0.0376,-0.0134,-0.0082,0.0,0.0083,0.0196,0.0336,0.0364,0.0308,0.0364,0.0393,0.0393,0.0393,0.0364,0.0308,0.0028,-0.028,-0.0617,-0.0896,-0.1231,-0.151,-0.1538,-0.1538,-0.1649,-0.246,-0.3218,-0.353,-0.3613,-0.3613,-0.3613,-0.3613,-0.3585,-0.3613,-0.3613,-0.3613,-0.3613,-0.3613,-0.3613,-0.3613,-0.3613,-0.3613,-0.361,-0.386,-0.4049,-0.4104,-0.4567,-0.5085,-0.5523,-0.6154,-0.675,0.1464,0.1408,0.1472,0.1455,0.1413,0.1408,0.1386,0.1307,0.0,0.0,0.0,0.1227,0.1224,0.122,0.122,0.122,0.1219,0.1213,0.1174,0.1174,0.1168,0.1166,0.1165,0.114,0.1163,0.1162,0.172,0.1935,0.1925,0.253,0.2825,0.278,0.278,0.2809,0.2911,0.2911,0.2945,0.2909,0.2373,0.2175,0.2348,0.2512,0.241,0.2045,0.2544,0.2644,0.2376,0.2644,0.2675,0.2375,0.237,0.2503,0.2784,0.2809,0.3005,0.3468,0.331,0.3494,0.4185,0.3447,0.3274,0.3969,0.3536,0.2379,0.0315,0.0624,0.0763,0.034,0.0422,0.0393,0.0196,0.0364,0.0421,0.0336,0.0421,0.0477,0.0505,0.0477,0.0505,0.0449,0.0449,0.028,-0.0168,-0.0252,-0.0449,-0.0868,-0.0923,-0.1062,-0.1258,-0.1899,-0.2571,-0.2965,-0.3021,-0.3188,-0.3246,-0.336,-0.3416,-0.336,-0.3471,-0.3585,-0.3585,-0.3585,-0.3613,-0.3613,-0.3613,-0.3613,-0.3613,-0.3641,-0.3613,-0.3613,-0.3999,-0.4353,-0.4408,-0.4897,-0.5605,0.1423,0.1511,0.149,0.1491,0.1505,0.1479,0.1436,0.1382,0.1302,0.127,0.1284,0.1284,0.1269,0.1284,0.1284,0.1283,0.1282,0.1217,0.1205,0.1241,0.1876,0.2183,0.2219,0.2935,0.3256,0.3291,0.3349,0.3303,0.3167,0.3263,0.3259,0.3125,0.2948,0.3213,0.378,0.3816,0.4184,0.4924,0.3076,0.2107,0.214,0.2174,0.2342,0.2577,0.2947,0.3184,0.3284,0.3351,0.3306,0.3085,0.3079,0.3328,0.389,0.3953,0.4289,0.4986,0.5032,0.5101,0.5196,0.4916,0.4512,0.4039,0.3905,0.3217,0.1703,0.1691,0.1548,0.0877,0.0857,0.0813,0.0785,0.0815,0.0817,0.0787,0.0814,0.0814,0.0816,0.0816,0.0789,0.0676,0.0645,0.0591,0.0338,0.0282,0.0254,0.0169,0.0057,-0.0056,-0.0648,-0.1203,-0.1482,-0.1621,-0.1761,-0.1873,-0.204,-0.246,-0.2683,-0.2687,-0.3135,-0.3388,-0.333,-0.336,-0.3416,-0.3557,-0.3444,-0.3471,-0.353,-0.3613,-0.3502,-0.3499,-0.3638,-0.3663,-0.3719,-0.3913,-0.4353,0.1476,0.1501,0.1504,0.1513,0.1478,0.1511,0.1489,0.1463,0.1405,0.1356,0.1331,0.1327,0.132,0.1305,0.1329,0.1322,0.1321,0.125,0.1236,0.1274,0.164,0.2049,0.2462,0.2879,0.3304,0.3704,0.4055,0.4183,0.4131,0.4429,0.4579,0.4487,0.4319,0.442,0.4752,0.4755,0.499,0.5359,0.4417,0.3844,0.3744,0.3813,0.3913,0.3979,0.4251,0.4422,0.4522,0.4525,0.4496,0.4404,0.4401,0.4534,0.4831,0.486,0.5022,0.5355,0.5395,0.5395,0.5395,0.5298,0.5129,0.481,0.4772,0.4321,0.3226,0.2755,0.232,0.1929,0.1872,0.1712,0.1329,0.1359,0.1242,0.0857,0.0917,0.0946,0.0946,0.0947,0.0917,0.0857,0.0888,0.0828,0.074,0.0739,0.071,0.074,0.071,0.0562,0.0266,0.0059,-0.0437,-0.1242,-0.1454,-0.1426,-0.1427,-0.1676,-0.19,-0.1846,-0.2209,-0.246,-0.2432,-0.249,-0.2517,-0.2516,-0.2432,-0.2516,-0.277,-0.2659,-0.2685,-0.294,-0.277,-0.274,-0.2991,-0.3357,-0.3913,0.1474,0.1483,0.1506,0.1476,0.1536,0.1536,0.1536,0.1536,0.1535,0.1434,0.1352,0.1338,0.1328,0.1313,0.1333,0.1319,0.131,0.1329,0.1314,0.1307,0.1504,0.2011,0.2779,0.2958,0.3501,0.4246,0.4802,0.504,0.5074,0.5451,0.565,0.5586,0.5504,0.5429,0.5395,0.5395,0.5395,0.5395,0.5395,0.5326,0.519,0.5326,0.5326,0.519,0.5326,0.5395,0.5395,0.5395,0.5395,0.5395,0.5395,0.5395,0.5395,0.5395,0.5395,0.5395,0.5395,0.5395,0.5395,0.5395,0.5395,0.5395,0.5395,0.5156,0.4571,0.3897,0.3252,0.2921,0.2776,0.2518,0.2087,0.2029,0.1879,0.1388,0.1388,0.1476,0.1295,0.1265,0.1142,0.105,0.1019,0.1017,0.1019,0.1019,0.0986,0.0984,0.1019,0.0988,0.0957,0.0988,0.0362,-0.0525,-0.0943,-0.0799,-0.0851,-0.1019,-0.1072,-0.1066,-0.137,-0.1566,-0.1593,-0.1566,-0.1593,-0.1621,-0.151,-0.1649,-0.1902,-0.179,-0.179,-0.2099,-0.1986,-0.19,-0.2347,-0.2683,-0.3357,0.1455,0.1479,0.1483,0.1565,0.161,0.1566,0.1615,0.1615,0.1616,0.1547,0.1599,0.148,0.1482,0.139,0.1384,0.1411,0.1347,0.1341,0.1366,0.1463,0.2104,0.2916,0.3724,0.4409,0.5223,0.5918,0.6053,0.597,0.5824,0.5909,0.5814,0.562,0.5572,0.5532,0.5416,0.5395,0.5395,0.5395,0.5395,0.5395,0.5359,0.5395,0.5395,0.5359,0.5395,0.5395,0.5395,0.5395,0.5395,0.5395,0.5395,0.5395,0.5395,0.5395,0.5395,0.5428,0.5428,0.5395,0.5395,0.5395,0.5395,0.5395,0.5395,0.5359,0.5259,0.52,0.4567,0.3562,0.3126,0.3125,0.2985,0.2962,0.2911,0.2729,0.2756,0.268,0.2135,0.2004,0.1757,0.1049,0.1119,0.1019,0.1088,0.1057,0.0992,0.0998,0.103,0.0967,0.0904,0.0935,0.0934,0.0584,0.0551,0.0483,0.0384,-0.0088,-0.0319,-0.0368,-0.084,-0.1067,-0.1068,-0.1234,-0.151,-0.1035,-0.1258,-0.1286,-0.1342,-0.1342,-0.1286,-0.1371,-0.137,-0.1398,-0.1621,-0.1705,-0.2179,0.1397,0.1453,0.1453,0.1478,0.1519,0.1555,0.1963,0.2551,0.253,0.2876,0.3394,0.3462,0.2714,0.1516,0.2129,0.2374,0.2399,0.2901,0.3151,0.316,0.3456,0.3922,0.4599,0.4952,0.5517,0.6264,0.63,0.6265,0.6159,0.6078,0.5922,0.5725,0.5633,0.5559,0.5491,0.544,0.5395,0.5395,0.5395,0.5395,0.5395,0.5395,0.5395,0.5395,0.5395,0.5395,0.5395,0.5395,0.5395,0.5395,0.5395,0.5395,0.5395,0.5395,0.5591,0.5947,0.598,0.5815,0.5428,0.5395,0.5395,0.5395,0.5395,0.5395,0.5395,0.5395,0.5097,0.4647,0.4493,0.4306,0.3883,0.3818,0.366,0.3271,0.3174,0.3043,0.2817,0.2754,0.2591,0.2301,0.1913,0.1654,0.159,0.1299,0.1105,0.104,0.1072,0.1069,0.1006,0.104,0.1039,0.1008,0.0975,0.0955,0.0859,0.0666,0.0481,0.0416,0.0175,-0.0087,-0.0115,-0.0113,-0.0196,-0.014,-0.0252,-0.0392,-0.0476,-0.0308,-0.0196,-0.0448,-0.0728,-0.0812,-0.0896,-0.1119,-0.1621,0.1397,0.1436,0.1704,0.1861,0.19,0.2241,0.2806,0.3505,0.3569,0.4045,0.4692,0.4762,0.3965,0.2658,0.3265,0.3553,0.3615,0.4189,0.4471,0.4487,0.4355,0.4641,0.5284,0.5251,0.5621,0.625,0.6317,0.63,0.6286,0.6156,0.5976,0.5861,0.5718,0.5647,0.5633,0.5532,0.5477,0.5518,0.5518,0.5515,0.5521,0.5515,0.5477,0.5405,0.5395,0.5395,0.5395,0.5395,0.5395,0.5395,0.5395,0.5395,0.5395,0.5395,0.5686,0.6301,0.6396,0.6268,0.5951,0.5951,0.5851,0.5723,0.5686,0.5591,0.5428,0.5395,0.5395,0.5355,0.5395,0.5117,0.4722,0.4589,0.4353,0.3851,0.3785,0.3749,0.3544,0.3516,0.3411,0.3182,0.2667,0.2415,0.2347,0.2041,0.1771,0.1772,0.1742,0.1544,0.1411,0.1374,0.1341,0.1143,0.1108,0.1054,0.1012,0.0937,0.0999,0.0985,0.0754,0.0686,0.0774,0.0755,0.0711,0.0401,0.0737,0.0757,0.0308,0.0477,0.0617,0.0252,0.0,-0.0112,-0.0112,-0.0476,-0.0671,0.1461,0.1571,0.2419,0.2854,0.2912,0.3749,0.421,0.4381,0.4467,0.4606,0.4767,0.4887,0.4768,0.4646,0.4803,0.4728,0.466,0.4776,0.486,0.4867,0.4681,0.4934,0.5641,0.538,0.5672,0.6454,0.6375,0.631,0.63,0.6286,0.6173,0.5983,0.5881,0.58,0.5786,0.5667,0.565,0.5739,0.5749,0.5769,0.5766,0.5769,0.5633,0.5446,0.5399,0.5405,0.5402,0.5395,0.5395,0.5395,0.5395,0.5395,0.5395,0.5428,0.5785,0.6334,0.6429,0.6695,0.7125,0.7223,0.699,0.6502,0.64,0.6141,0.5719,0.5591,0.5557,0.5462,0.5495,0.5395,0.5329,0.5226,0.5226,0.516,0.5226,0.4891,0.432,0.4253,0.392,0.3485,0.3284,0.3149,0.3149,0.3151,0.3015,0.298,0.3049,0.2848,0.2281,0.2112,0.1879,0.1478,0.1275,0.1132,0.1071,0.1031,0.1018,0.1007,0.0969,0.0956,0.0915,0.0874,0.0861,0.0819,0.0808,0.0827,0.0845,0.0841,0.0841,0.0701,0.0673,0.0617,0.0449,0.0701,0.0504,0.2739,0.3264,0.3621,0.3819,0.3848,0.4171,0.4719,0.5359,0.5469,0.5944,0.6591,0.6689,0.6752,0.6828,0.6834,0.6443,0.5858,0.6421,0.6694,0.6682,0.6566,0.6618,0.6703,0.6517,0.6454,0.6573,0.6511,0.6385,0.6306,0.63,0.632,0.6291,0.6204,0.6132,0.6067,0.5949,0.5854,0.5806,0.58,0.58,0.5846,0.58,0.5745,0.5682,0.5555,0.5508,0.5508,0.545,0.5395,0.5395,0.5491,0.5521,0.5587,0.6046,0.647,0.6728,0.7149,0.7344,0.7186,0.7512,0.7702,0.747,0.7409,0.7312,0.7018,0.6634,0.6375,0.6305,0.5921,0.5727,0.5693,0.5524,0.5395,0.5395,0.5395,0.5326,0.5093,0.499,0.4921,0.4716,0.4447,0.4082,0.3682,0.3513,0.3513,0.3511,0.3547,0.3413,0.3213,0.3049,0.2883,0.2683,0.2547,0.2441,0.2422,0.1556,0.1088,0.1077,0.1034,0.1022,0.0979,0.0959,0.0944,0.091,0.0865,0.0853,0.0905,0.0886,0.0884,0.0874,0.0874,0.0875,0.0841,0.0869,0.0841,0.4095,0.4608,0.4826,0.494,0.4919,0.512,0.5607,0.6303,0.638,0.6913,0.757,0.7719,0.7824,0.7897,0.7914,0.7598,0.7024,0.7579,0.7885,0.7823,0.7733,0.7614,0.7495,0.7309,0.7088,0.6831,0.6583,0.6555,0.6697,0.6683,0.6915,0.7323,0.7219,0.7235,0.7282,0.7076,0.6913,0.6859,0.6776,0.6753,0.6749,0.6749,0.6749,0.6726,0.6587,0.637,0.6077,0.6032,0.6112,0.6238,0.6418,0.6457,0.6474,0.692,0.7344,0.76,0.8059,0.8215,0.7994,0.8388,0.8576,0.835,0.8312,0.8248,0.7994,0.754,0.7312,0.712,0.6634,0.6276,0.6375,0.5984,0.5561,0.5561,0.5557,0.5561,0.5557,0.5491,0.5488,0.5484,0.5282,0.4915,0.4547,0.4447,0.4447,0.4414,0.4414,0.4381,0.4115,0.3982,0.3785,0.3616,0.3382,0.328,0.3201,0.2599,0.187,0.1723,0.1583,0.144,0.1233,0.1176,0.1161,0.1095,0.1054,0.1009,0.0961,0.097,0.0955,0.0973,0.0886,0.0889,0.088,0.087,0.0956,0.5435,0.5532,0.603,0.6232,0.6183,0.6713,0.7061,0.705,0.726,0.7387,0.7487,0.7586,0.7729,0.7801,0.789,0.785,0.7915,0.8018,0.8014,0.7951,0.7879,0.7811,0.7777,0.7519,0.7365,0.7232,0.684,0.6993,0.7531,0.7603,0.8035,0.8827,0.8807,0.8862,0.9421,0.8926,0.8832,0.8811,0.8579,0.8547,0.8661,0.85,0.8448,0.8524,0.8388,0.7952,0.713,0.7199,0.7472,0.7947,0.8155,0.8217,0.799,0.7987,0.8296,0.8769,0.8956,0.9288,0.9754,0.9824,0.9588,0.9224,0.9058,0.886,0.8447,0.8156,0.8059,0.7962,0.7442,0.7186,0.7544,0.683,0.605,0.5892,0.5921,0.5822,0.5822,0.5719,0.5617,0.565,0.5749,0.5892,0.5859,0.5719,0.5653,0.5653,0.5686,0.5484,0.5014,0.4845,0.4514,0.4079,0.4046,0.4148,0.3946,0.3644,0.3045,0.2542,0.2338,0.2161,0.1918,0.1792,0.1841,0.1831,0.1858,0.1833,0.1855,0.1818,0.1674,0.1598,0.1325,0.1287,0.1479,0.161,0.1333,0.7553,0.7459,0.7499,0.7524,0.7465,0.7594,0.7544,0.7418,0.7604,0.768,0.7636,0.7643,0.7807,0.8017,0.8063,0.8143,0.828,0.8428,0.8333,0.8077,0.7938,0.7911,0.7923,0.7763,0.7798,0.8088,0.8721,0.8911,0.876,0.8737,0.9092,0.9518,0.9612,0.9772,1.0145,0.9772,0.9567,0.9448,0.911,0.8965,0.9079,0.8998,0.8927,0.8922,0.9005,0.9043,0.9158,0.8504,0.8278,0.8622,0.8765,0.9008,0.9214,0.8893,0.8849,0.928,0.9352,0.9384,0.9684,1.011,1.0333,1.0129,1.0098,1.0034,0.9741,0.9288,0.9064,0.8962,0.842,0.8129,0.8194,0.7999,0.7354,0.6671,0.6181,0.5987,0.5987,0.6017,0.6013,0.6046,0.6148,0.6218,0.6255,0.6255,0.6222,0.6218,0.6218,0.6086,0.5918,0.5716,0.5745,0.5444,0.5345,0.5047,0.4945,0.4812,0.4447,0.3813,0.3411,0.2945,0.2636,0.2495,0.2545,0.2554,0.2601,0.2635,0.2684,0.266,0.2472,0.2595,0.2636,0.2617,0.2597,0.242,0.2153,0.8871,0.8757,0.8512,0.8348,0.8238,0.8076,0.7867,0.7687,0.7812,0.7867,0.7811,0.778,0.7958,0.8211,0.8214,0.8337,0.8566,0.8726,0.8627,0.8333,0.8187,0.8137,0.8262,0.8556,0.8722,0.9033,0.9843,1.0215,1.0092,0.9888,1.0137,1.0765,1.0922,1.1135,1.1444,1.1219,1.0979,1.0751,1.0401,1.0187,1.018,1.0051,1.0013,1.0056,1.0126,1.0432,1.0789,1.0145,0.9792,0.9844,0.991,1.0155,1.0451,1.0083,0.9943,1.0108,1.0114,1.0064,1.0116,1.0392,1.0586,1.0586,1.0586,1.0586,1.0491,1.0104,0.9939,0.9811,0.9262,0.8973,0.9198,0.8716,0.8291,0.7967,0.7316,0.6769,0.6539,0.6572,0.6474,0.6346,0.6317,0.6387,0.642,0.642,0.642,0.642,0.642,0.642,0.6387,0.6284,0.6284,0.6251,0.605,0.5918,0.6017,0.5918,0.5818,0.5213,0.4577,0.3944,0.344,0.3305,0.329,0.3253,0.3275,0.3201,0.3251,0.3356,0.3321,0.36,0.3768,0.3423,0.3177,0.3197,0.3009,0.9527,0.9376,0.9116,0.8828,0.8573,0.8288,0.8099,0.7978,0.7992,0.7992,0.7955,0.7923,0.8095,0.8292,0.8367,0.853,0.878,0.8924,0.8874,0.8775,0.873,0.8726,0.8799,0.9789,1.0269,1.0282,1.0697,1.1065,1.1448,1.0994,1.1262,1.2349,1.2418,1.2845,1.3069,1.3105,1.2725,1.2401,1.2188,1.1872,1.1614,1.1595,1.1589,1.1552,1.1595,1.1669,1.1731,1.171,1.1717,1.1611,1.1383,1.1322,1.1388,1.1415,1.1292,1.1213,1.1116,1.0976,1.0922,1.0775,1.0653,1.066,1.062,1.0586,1.0555,1.0491,1.046,1.0434,0.9945,0.9811,1.0072,0.9524,0.9069,0.9358,0.8678,0.7967,0.7409,0.7451,0.7256,0.6671,0.6482,0.6486,0.6552,0.6519,0.642,0.642,0.642,0.642,0.642,0.6387,0.6387,0.6387,0.6317,0.6317,0.6251,0.6218,0.6119,0.5918,0.5448,0.5011,0.4478,0.4378,0.4342,0.4237,0.4135,0.4002,0.4058,0.4344,0.4375,0.4458,0.4339,0.3945,0.3913,0.4097,0.4114,0.96,0.9543,0.9365,0.9255,0.913,0.8762,0.8487,0.8339,0.8396,0.8304,0.816,0.8113,0.8301,0.8594,0.8617,0.8754,0.9208,0.9377,0.9278,0.9229,0.9903,1.0002,1.0141,1.1162,1.1889,1.2153,1.2797,1.3184,1.2737,1.228,1.2454,1.2989,1.3028,1.3298,1.3781,1.3587,1.3298,1.3015,1.2616,1.2367,1.2179,1.1972,1.1929,1.1935,1.204,1.2077,1.204,1.215,1.2204,1.2125,1.2088,1.1964,1.1784,1.175,1.167,1.1455,1.1349,1.1282,1.1256,1.1042,1.0921,1.0888,1.0747,1.0593,1.0586,1.0593,1.0593,1.0561,1.0364,1.0364,1.0491,1.0231,1.0136,1.0104,0.9332,0.8484,0.8226,0.8194,0.8129,0.7902,0.7456,0.7265,0.7134,0.6843,0.6552,0.6519,0.6552,0.6552,0.6679,0.6552,0.6613,0.6449,0.6416,0.6387,0.6387,0.6387,0.6354,0.6321,0.6152,0.6083,0.5782,0.5683,0.5745,0.5778,0.5569,0.5434,0.5606,0.5847,0.5719,0.5607,0.5567,0.5517,0.5453,0.552,0.5405,0.9624,0.9571,0.9514,0.9473,0.9388,0.9129,0.887,0.8643,0.8678,0.8577,0.8396,0.8384,0.8792,0.9427,0.9495,0.994,1.0609,1.0841,1.0841,1.0792,1.1321,1.1414,1.156,1.2528,1.3298,1.3583,1.4353,1.4283,1.372,1.322,1.3133,1.3273,1.3267,1.352,1.4041,1.3928,1.364,1.336,1.2988,1.2729,1.2512,1.2254,1.2157,1.2157,1.2261,1.2231,1.215,1.2224,1.2305,1.2305,1.2291,1.2225,1.2084,1.2087,1.1971,1.1797,1.169,1.1617,1.1563,1.1343,1.1182,1.1149,1.0995,1.0901,1.0814,1.0742,1.076,1.0613,1.0593,1.0586,1.0586,1.0586,1.0586,1.0498,0.9881,0.9262,0.8967,0.8941,0.878,0.8522,0.8199,0.7912,0.7912,0.7489,0.7326,0.7326,0.7423,0.7391,0.7358,0.7064,0.6937,0.7031,0.6999,0.7068,0.726,0.7326,0.7265,0.7167,0.6872,0.6839,0.6646,0.6613,0.6581,0.6609,0.6745,0.6909,0.7003,0.7129,0.7265,0.7177,0.7186,0.7083,0.6978,0.6688,0.6606,0.9624,0.9624,0.9624,0.9584,0.9638,0.9544,0.9541,0.9283,0.9322,0.9219,0.9111,0.8993,0.9772,1.0731,1.0788,1.1467,1.2533,1.2344,1.2635,1.2635,1.2829,1.278,1.2963,1.3607,1.4214,1.4479,1.4871,1.4765,1.4295,1.3641,1.34,1.348,1.3373,1.3567,1.3981,1.4062,1.3928,1.3586,1.3347,1.306,1.277,1.2505,1.2385,1.2268,1.2268,1.2305,1.2298,1.2409,1.2475,1.2445,1.2372,1.2291,1.2285,1.2298,1.2278,1.2218,1.2024,1.1953,1.187,1.1643,1.147,1.1456,1.1423,1.1329,1.1096,1.1035,1.1021,1.1065,1.0794,1.0837,1.0744,1.0681,1.0586,1.0561,1.0523,1.0231,0.9811,0.9614,0.9358,0.8807,0.8716,0.8619,0.8587,0.8549,0.8458,0.7939,0.8037,0.8004,0.7972,0.7809,0.7874,0.8102,0.8037,0.7907,0.8161,0.8388,0.8296,0.8134,0.7744,0.7489,0.7129,0.7068,0.7068,0.7134,0.733,0.7684,0.8037,0.8231,0.8355,0.8264,0.7907,0.8134,0.8318,0.7909,0.7715,0.9624,0.9624,0.9624,1.0087,1.0701,1.0656,1.1005,1.1579,1.1242,1.0994,1.1076,1.1071,1.1265,1.1701,1.1967,1.2363,1.285,1.2926,1.3119,1.3908,1.395,1.443,1.4669,1.4675,1.4729,1.5218,1.5338,1.5037,1.4529,1.4148,1.376,1.3613,1.358,1.3686,1.4028,1.4075,1.3941,1.3646,1.3527,1.3267,1.2929,1.2793,1.2624,1.2412,1.2305,1.2305,1.2445,1.2915,1.32,1.3098,1.2703,1.2489,1.2489,1.2452,1.2452,1.2469,1.2361,1.2264,1.2187,1.208,1.1841,1.1961,1.184,1.1369,1.1363,1.1438,1.1674,1.1916,1.1884,1.1685,1.1473,1.0915,1.0835,1.0873,1.0789,1.0681,1.0428,1.0333,1.0168,1.0009,0.9588,0.9294,0.9262,0.8877,0.8716,0.8587,0.8587,0.8554,0.8554,0.8581,0.8775,0.9064,0.8865,0.8737,0.9,0.9192,0.9096,0.8967,0.8581,0.8194,0.7837,0.7744,0.7842,0.7907,0.7944,0.8361,0.8844,0.8748,0.878,0.8651,0.8651,0.8812,0.8909,0.8748,0.878,1.035,1.0404,1.0837,1.137,1.1838,1.1781,1.2051,1.2364,1.2086,1.1863,1.1832,1.1816,1.217,1.2763,1.306,1.3502,1.4034,1.4184,1.4472,1.4914,1.5016,1.5296,1.5588,1.535,1.535,1.5751,1.5678,1.5331,1.4937,1.4509,1.4202,1.3979,1.3794,1.3753,1.4048,1.4173,1.4021,1.3861,1.3653,1.3414,1.3065,1.3213,1.3156,1.2802,1.2556,1.2409,1.2915,1.3237,1.3673,1.3818,1.3637,1.339,1.3382,1.339,1.3346,1.3382,1.3375,1.3419,1.3425,1.3388,1.342,1.3405,1.3269,1.3113,1.3001,1.2949,1.2825,1.2942,1.2966,1.3001,1.2804,1.2356,1.2034,1.195,1.1814,1.1615,1.1264,1.0895,1.0586,1.0523,1.0238,1.0104,0.9907,0.9556,0.9678,0.9837,0.9939,0.9875,0.9773,0.9805,0.9741,0.9831,0.9602,0.957,0.9862,0.9932,0.9837,0.964,0.9384,0.8994,0.8576,0.8608,0.8742,0.8742,0.8748,0.9166,0.9556,0.9358,0.9396,0.962,0.9684,0.9556,0.9524,0.9652,0.9716,1.1414,1.1468,1.2339,1.278,1.2926,1.2915,1.2997,1.3027,1.2636,1.2626,1.2305,1.2271,1.3091,1.3707,1.4164,1.4895,1.5481,1.5635,1.5588,1.5588,1.5635,1.5683,1.5778,1.573,1.5689,1.5825,1.5798,1.5611,1.5277,1.489,1.4536,1.4416,1.4191,1.4213,1.4294,1.4496,1.4685,1.4705,1.453,1.4237,1.394,1.4125,1.4029,1.3594,1.328,1.3208,1.3673,1.4027,1.4322,1.4816,1.4958,1.5029,1.4994,1.4673,1.4601,1.453,1.4466,1.4458,1.4537,1.4736,1.4854,1.5199,1.5103,1.4971,1.4698,1.4512,1.4312,1.4193,1.4164,1.442,1.4435,1.3777,1.3572,1.353,1.3275,1.2839,1.2267,1.1481,1.117,1.0719,1.0656,1.0611,1.0681,1.0548,1.0839,1.1059,1.109,1.1066,1.0895,1.0793,1.0636,1.0636,1.044,1.0307,1.0534,1.0573,1.0478,1.0471,1.0212,0.9952,0.9564,0.9671,0.9741,0.955,0.9646,1.0034,1.0295,1.0295,1.039,1.0656,1.0586,1.0326,1.0396,1.0624,1.0523,1.2436,1.2436,1.263,1.3221,1.3956,1.4052,1.4447,1.5094,1.4526,1.4488,1.4391,1.443,1.4391,1.4819,1.5298,1.5636,1.5771,1.5825,1.5825,1.5825,1.5825,1.5825,1.5832,1.5879,1.5825,1.5825,1.5818,1.5725,1.5418,1.5057,1.4756,1.4626,1.474,1.4949,1.524,1.5801,1.5966,1.5959,1.5894,1.5736,1.5566,1.5304,1.5072,1.4568,1.431,1.4394,1.4752,1.5384,1.5877,1.6062,1.6673,1.689,1.6568,1.5498,1.4922,1.4859,1.5002,1.518,1.5215,1.5207,1.5199,1.5199,1.5376,1.534,1.524,1.5223,1.5471,1.5644,1.5545,1.5484,1.5157,1.4785,1.4334,1.4136,1.395,1.358,1.3334,1.289,1.2181,1.1556,1.1314,1.1146,1.1334,1.1365,1.1334,1.1365,1.1272,1.1247,1.1122,1.1146,1.1139,1.1209,1.131,1.1209,1.1178,1.1146,1.1115,1.1233,1.1132,1.1163,1.0874,1.0825,1.0769,1.0748,1.0598,1.0674,1.087,1.0972,1.1059,1.1083,1.1052,1.0996,1.1028,1.1021,1.0807,1.3559,1.3613,1.4082,1.4573,1.501,1.5064,1.535,1.5644,1.5231,1.5102,1.5156,1.5089,1.5095,1.5264,1.5618,1.5771,1.5825,1.5825,1.5825,1.5825,1.5825,1.5879,1.5981,1.6028,1.6116,1.6163,1.6197,1.6001,1.5585,1.5164,1.4999,1.4771,1.4822,1.495,1.5352,1.5718,1.6404,1.669,1.6911,1.6839,1.6576,1.6111,1.5729,1.5797,1.5369,1.5251,1.5675,1.5956,1.649,1.6855,1.7289,1.7461,1.721,1.6751,1.607,1.607,1.614,1.6245,1.6306,1.6472,1.6576,1.6655,1.6611,1.6645,1.6655,1.6749,1.6733,1.6929,1.6658,1.6514,1.6693,1.6144,1.5959,1.5844,1.5423,1.5024,1.4741,1.4333,1.3574,1.2696,1.2484,1.2359,1.2212,1.212,1.188,1.1663,1.1545,1.149,1.1459,1.1553,1.1732,1.1942,1.2104,1.2197,1.2135,1.2042,1.1919,1.2011,1.2042,1.2042,1.2135,1.2042,1.2128,1.2205,1.1973,1.1459,1.116,1.1122,1.1303,1.1483,1.1365,1.1334,1.1389,1.1327,1.1233,1.4627,1.4736,1.5493,1.5832,1.5879,1.5825,1.5778,1.5664,1.5217,1.5169,1.5331,1.5162,1.5124,1.5411,1.5658,1.5825,1.5825,1.5825,1.5825,1.5825,1.5879,1.6028,1.613,1.6312,1.6494,1.6943,1.6943,1.6527,1.6081,1.586,1.5597,1.5643,1.5119,1.5354,1.6147,1.6772,1.6887,1.7253,1.756,1.7536,1.7252,1.6781,1.6609,1.7081,1.6218,1.6053,1.6515,1.6724,1.7063,1.7382,1.7598,1.7608,1.7608,1.7608,1.7608,1.7608,1.7564,1.7613,1.7604,1.7647,1.7579,1.7657,1.7906,1.794,1.7906,1.7681,1.7862,1.7862,1.7526,1.7282,1.7596,1.7628,1.7473,1.7313,1.6976,1.6635,1.6115,1.5677,1.5217,1.452,1.3961,1.3469,1.3183,1.2887,1.262,1.2558,1.2405,1.2343,1.2351,1.2259,1.2413,1.2704,1.2948,1.3169,1.3139,1.3047,1.2926,1.2864,1.2895,1.2895,1.3086,1.3208,1.323,1.307,1.2612,1.2097,1.1677,1.1584,1.2066,1.222,1.1856,1.1825,1.2189,1.2182,1.1996,1.5784,1.5933,1.5832,1.5933,1.6123,1.5927,1.5818,1.5732,1.5249,1.513,1.547,1.5162,1.5176,1.5438,1.5705,1.5818,1.5825,1.5825,1.592,1.6062,1.6211,1.64,1.6407,1.6447,1.7271,1.7809,1.7902,1.7311,1.699,1.7136,1.7041,1.6923,1.7588,1.8445,1.7804,1.8198,1.942,1.949,1.945,1.9305,1.8916,1.848,1.82,1.7907,1.7586,1.7304,1.7407,1.7501,1.7759,1.7837,1.7906,1.794,1.794,1.7949,1.7949,1.7872,1.7784,1.7672,1.774,1.7862,1.794,1.7974,1.8008,1.8008,1.8008,1.8008,1.8008,1.8008,1.7862,1.7828,1.794,1.7949,1.792,1.7783,1.7529,1.7311,1.7054,1.6561,1.6163,1.6002,1.5355,1.4545,1.3974,1.3657,1.3359,1.3359,1.3321,1.3199,1.3177,1.3056,1.3086,1.3381,1.3734,1.3953,1.4043,1.3953,1.3893,1.3782,1.3782,1.3782,1.3902,1.3983,1.3743,1.3494,1.3161,1.313,1.307,1.31,1.3221,1.3039,1.2773,1.2964,1.3299,1.3108,1.2734,1.6353,1.64,1.6298,1.6305,1.64,1.6298,1.6155,1.5929,1.5558,1.5576,1.5664,1.5316,1.5347,1.5685,1.5744,1.5825,1.5832,1.6021,1.6393,1.685,1.7178,1.7591,1.8241,1.8427,1.8826,1.9047,1.9231,1.9185,1.8706,1.8422,1.8205,1.7948,1.828,1.848,1.8714,1.9015,1.949,1.9893,2.0206,2.0197,1.9956,1.959,1.9176,1.8762,1.8408,1.8123,1.7954,1.793,1.8008,1.8008,1.8008,1.8008,1.8008,1.8008,1.8008,1.8008,1.793,1.7852,1.7886,1.7974,1.8008,1.8008,1.8008,1.8008,1.8008,1.8008,1.8008,1.8008,1.8008,1.8008,1.8008,1.8008,1.8008,1.793,1.7793,1.7764,1.7598,1.7314,1.6964,1.6882,1.6707,1.5817,1.4989,1.4529,1.4251,1.4084,1.3838,1.3563,1.3653,1.3782,1.3872,1.4052,1.4401,1.4736,1.4785,1.4785,1.4756,1.4697,1.4697,1.4706,1.4706,1.4638,1.4401,1.446,1.4481,1.449,1.449,1.4073,1.3683,1.3683,1.3743,1.3863,1.3932,1.3571,1.329,1.673,1.677,1.6636,1.6636,1.6683,1.6636,1.6413,1.6113,1.5903,1.5917,1.6088,1.6025,1.6176,1.643,1.6695,1.7023,1.6842,1.6951,1.7458,1.8002,1.8457,1.8964,1.9384,1.9795,2.0059,2.0557,2.0503,2.0638,2.073,2.043,1.9878,1.8999,1.936,1.9199,1.9123,1.9323,1.9726,2.0294,2.0489,2.0557,2.0459,2.0069,1.9728,1.9338,1.8945,1.8486,1.8213,1.8027,1.8008,1.8008,1.8008,1.8008,1.8008,1.8008,1.8008,1.8008,1.7974,1.7974,1.7964,1.8008,1.8008,1.8008,1.8008,1.8008,1.8008,1.8008,1.8008,1.8008,1.8008,1.8008,1.8008,1.8008,1.8008,1.8008,1.7969,1.7998,1.7959,1.769,1.7513,1.7402,1.7236,1.696,1.6205,1.5562,1.5168,1.4881,1.4471,1.4022,1.4133,1.441,1.4529,1.4677,1.4854,1.5118,1.5177,1.5264,1.5381,1.5449,1.5449,1.5391,1.5206,1.5177,1.5089,1.5264,1.5497,1.5264,1.4942,1.449,1.4103,1.4341,1.4519,1.449,1.4401,1.4082,1.3983,1.7059,1.7232,1.677,1.6784,1.6925,1.6683,1.6399,1.6165,1.6078,1.6109,1.6278,1.7162,1.7603,1.7933,1.8403,1.8856,1.9085,1.9214,1.9214,1.936,1.9695,1.9977,2.0339,2.0602,2.0827,2.1463,2.1596,2.205,2.2536,2.2249,2.1448,2.0543,2.0731,2.0816,2.0535,2.0128,2.0167,2.0537,2.0615,2.0615,2.0507,2.0215,1.9922,1.9707,1.9095,1.8588,1.8529,1.8227,1.8027,1.8027,1.8008,1.8008,1.8008,1.8008,1.8008,1.8168,1.8168,1.8236,1.8303,1.8144,1.8008,1.8008,1.8008,1.8008,1.8008,1.8042,1.8042,1.8202,1.8395,1.8361,1.8236,1.8076,1.8428,1.8496,1.8563,1.8395,1.8337,1.808,1.7933,1.7852,1.7729,1.752,1.7295,1.6634,1.5898,1.5537,1.5125,1.4667,1.4844,1.5059,1.5147,1.5235,1.5264,1.5381,1.5352,1.5449,1.5536,1.5575,1.5546,1.5507,1.542,1.5478,1.5729,1.5748,1.5864,1.5642,1.5526,1.5468,1.54,1.5313,1.5264,1.5147,1.5128,1.4981,1.4971,1.7239,1.7286,1.7099,1.7099,1.7185,1.6889,1.6692,1.6555,1.6375,1.6328,1.6475,1.7619,1.8133,1.8357,1.8993,1.9497,1.9542,1.9695,2.0087,2.0539,2.0872,2.1329,2.1596,2.1872,2.2236,2.2467,2.2555,2.2643,2.3003,2.3101,2.265,2.2067,2.1845,2.1257,2.085,2.0625,2.0615,2.0615,2.0615,2.0615,2.0566,2.0468,2.0185,1.9826,1.9689,1.9075,1.8695,1.8471,1.8237,1.8086,1.8018,1.8008,1.8008,1.8008,1.8202,1.8496,1.8563,1.8754,1.8921,1.8573,1.8008,1.8008,1.8008,1.8076,1.8236,1.8496,1.8721,1.8944,1.9233,1.9332,1.9552,1.9628,1.9694,1.954,1.9276,1.9011,1.8854,1.8664,1.8553,1.8593,1.8372,1.8128,1.7919,1.768,1.6918,1.6193,1.5782,1.5459,1.5556,1.5546,1.5536,1.5565,1.5565,1.5565,1.5575,1.5633,1.5691,1.5701,1.5672,1.572,1.5768,1.6179,1.6379,1.634,1.6443,1.6528,1.6641,1.6715,1.6518,1.6054,1.5797,1.5672,1.5672,1.5778,1.5826,1.7274,1.7194,1.7179,1.7186,1.7165,1.7047,1.7099,1.7116,1.6839,1.6898,1.724,1.8371,1.9047,1.9314,2.0178,2.0674,2.0863,2.0962,2.132,2.1676,2.2085,2.2501,2.2916,2.3047,2.2872,2.3101,2.3101,2.3101,2.3101,2.3101,2.2775,2.2395,2.208,2.1445,2.0957,2.0654,2.0615,2.0615,2.0615,2.0615,2.0605,2.0576,2.037,1.9941,1.9717,1.9251,1.8715,1.8412,1.8217,1.8086,1.8008,1.8008,1.8008,1.81,1.8395,1.8777,1.911,1.9375,1.9606,1.9353,1.8654,1.8877,1.8844,1.8844,1.8911,1.9332,1.965,1.9726,2.0236,2.0623,2.0655,2.0398,2.0333,2.0107,1.9977,1.9781,1.9726,1.9595,1.9441,1.9321,1.9179,1.918,1.8882,1.8655,1.7765,1.696,1.6337,1.6019,1.5989,1.5899,1.5691,1.5701,1.573,1.5759,1.5759,1.5846,1.5904,1.5788,1.5846,1.6038,1.6228,1.6691,1.6989,1.6968,1.7163,1.7495,1.7523,1.733,1.695,1.651,1.6446,1.6475,1.6549,1.6652,1.6578,1.7182,1.6925,1.7008,1.7008,1.7114,1.7226,1.7477,1.7853,1.7622,1.7926,1.8716,1.9687,2.0602,2.132,2.1996,2.2359,2.2457,2.2643,2.2775,2.2775,2.2775,2.3003,2.3047,2.3101,2.3101,2.3101,2.3101,2.3101,2.3101,2.3101,2.2847,2.2549,2.2139,2.1592,2.1151,2.0771,2.0625,2.0615,2.0615,2.0615,2.0615,2.0605,2.0332,2.0068,1.9785,1.9404,1.9035,1.8735,1.8577,1.8454,1.8405,1.8405,1.8395,1.8327,1.8654,1.9243,1.9233,1.9562,2.0063,2.0063,2.0085,1.9977,1.9781,1.9911,2.0301,2.0515,2.0558,2.0602,2.0846,2.0846,2.0751,2.0739,2.0899,2.0899,2.0835,2.0643,2.0611,2.0344,2.0161,2.0063,2.0344,2.0472,2.0103,1.9617,1.8659,1.7792,1.7012,1.6678,1.6657,1.6463,1.626,1.6475,1.6571,1.6418,1.6446,1.6181,1.6077,1.6,1.6181,1.657,1.6842,1.7185,1.7424,1.755,1.7895,1.8313,1.8097,1.7797,1.7715,1.7688,1.744,1.7424,1.7468,1.744,1.7257,1.8076,1.8297,1.8568,1.8571,1.8305,1.7812,1.8109,1.8913,1.9183,1.9413,1.9869,2.0737,2.1284,2.1917,2.2599,2.3101,2.3101,2.3101,2.3101,2.3101,2.3101,2.3091,2.3101,2.3101,2.3101,2.3101,2.3101,2.3101,2.3101,2.3101,2.3052,2.276,2.2264,2.1494,2.0947,2.0644,2.0615,2.0615,2.0615,2.0615,2.0615,2.0595,2.0517,2.0331,2.0136,1.991,1.9707,1.9439,1.9383,1.9333,1.9316,1.9341,1.9375,1.9398,1.9814,2.0462,2.0675,2.108,2.1608,2.1776,2.1356,2.0942,2.0611,2.0687,2.0623,2.1207,2.1365,2.1585,2.1834,2.199,2.231,2.231,2.2341,2.2249,2.2082,2.1717,2.1499,2.108,2.0805,2.0773,2.0933,2.0996,2.0799,2.0624,1.9835,1.9091,1.8341,1.7871,1.7734,1.7396,1.7159,1.7566,1.7694,1.7423,1.7185,1.6944,1.6955,1.7039,1.7224,1.7545,1.7765,1.782,1.8147,1.8432,1.878,1.9071,1.8847,1.8741,1.9006,1.9006,1.8528,1.8163,1.8081,1.7972,1.7809,1.8889,1.9324,1.9546,1.9635,1.9539,1.8906,1.9121,1.9853,2.0452,2.0692,2.0872,2.1418,2.1917,2.228,2.2775,2.3101,2.3101,2.3101,2.3101,2.3101,2.3101,2.3101,2.3101,2.3101,2.3101,2.3101,2.3101,2.3101,2.3101,2.3101,2.291,2.2689,2.2597,2.216,2.1495,2.1031,2.0615,2.0615,2.0615,2.0615,2.0615,2.0586,2.0546,2.0447,2.0394,2.0429,2.0499,2.0558,2.0591,2.0577,2.0587,2.0499,2.0519,2.0537,2.0846,2.1353,2.192,2.218,2.2543,2.2665,2.2168,2.1729,2.1459,2.1428,2.151,2.2063,2.2249,2.2476,2.2854,2.2957,2.3047,2.3095,2.3035,2.2914,2.2781,2.239,2.2298,2.1877,2.1753,2.1721,2.1659,2.1628,2.1471,2.1396,2.1077,2.038,1.9719,1.9306,1.8875,1.852,1.8185,1.8412,1.8548,1.822,1.7983,1.7754,1.7847,1.8066,1.8174,1.8282,1.8429,1.8483,1.8895,1.9212,1.9357,1.9475,1.9669,1.9721,1.9605,1.9475,1.9214,1.8924,1.8724,1.8605,1.8486,1.9763,1.9842,1.9904,2.0224,2.0559,2.0404,2.0361,2.0449,2.1329,2.1739,2.173,2.1784,2.2236,2.2916,2.3101,2.3101,2.3101,2.3101,2.3101,2.3101,2.3101,2.3101,2.3101,2.3101,2.3101,2.3101,2.3101,2.3101,2.3091,2.343,2.311,2.2835,2.3388,2.3058,2.2426,2.1693,2.1223,2.128,2.128,2.1308,2.1346,2.1078,2.1118,2.1042,2.0992,2.1178,2.1361,2.1498,2.156,2.1599,2.1618,2.1246,2.0976,2.0732,2.1135,2.1647,2.2377,2.2665,2.2848,2.2909,2.2927,2.2598,2.2702,2.2896,2.2884,2.2781,2.2781,2.2841,2.3035,2.3065,2.3095,2.3095,2.3095,2.3065,2.3065,2.2975,2.2975,2.2854,2.2854,2.2823,2.2781,2.2628,2.2249,2.2082,2.1959,2.1646,2.1024,2.0617,2.022,1.984,1.9481,1.9114,1.9159,1.893,1.8759,1.876,1.8625,1.8825,1.8617,1.8685,1.8869,1.9066,1.9291,1.95,1.9695,1.9798,1.9798,1.9798,1.9773,1.9643,1.9514,1.9488,1.924,1.9384,1.9345,2.0934,2.1325,2.1589,2.1826,2.1978,2.2142,2.2271,2.2325,2.2599,2.2687,2.2687,2.2687,2.2818,2.3101,2.3101,2.3101,2.3101,2.3101,2.3101,2.3101,2.3101,2.3101,2.3101,2.3101,2.3101,2.3101,2.3101,2.3178,2.3387,2.3757,2.4219,2.4052,2.4411,2.4205,2.3704,2.3025,2.2804,2.2563,2.2526,2.2376,2.2451,2.2414,2.2339,2.2301,2.2258,2.2509,2.2849,2.2993,2.3131,2.3352,2.3421,2.3211,2.2858,2.2773,2.2945,2.2635,2.2896,2.2987,2.3047,2.3047,2.3047,2.3078,2.3047,2.3078,2.3078,2.3095,2.3095,2.3095,2.3095,2.3095,2.3095,2.3095,2.3095,2.3095,2.3095,2.3095,2.3095,2.3095,2.3095,2.3095,2.3095,2.3035,2.2689,2.2689,2.2567,2.2537,2.2304,2.1846,2.1495,2.1098,2.06,2.017,2.0194,2.0117,2.0028,2.0023,1.9715,1.9506,1.9287,1.9174,1.9357,1.9526,1.9656,1.9734,1.9811,1.9824,1.9798,1.9824,1.9875,1.9824,1.9721,1.9773,1.9798,1.9824,1.9824,2.194,2.2379,2.2656,2.2721,2.276,2.2994,2.3101,2.3101,2.3101,2.3101,2.3101,2.3091,2.3101,2.3101,2.3101,2.3101,2.3101,2.3101,2.3101,2.3101,2.3144,2.3101,2.3101,2.3101,2.3101,2.3144,2.3266,2.3517,2.3973,2.4883,2.5463,2.5176,2.5514,2.5371,2.5041,2.4785,2.4755,2.4361,2.4,2.3661,2.3551,2.3588,2.3562,2.3708,2.3672,2.3938,2.4389,2.4447,2.4564,2.4793,2.4793,2.4566,2.4153,2.3928,2.3742,2.3398,2.3147,2.3128,2.3095,2.3095,2.3095,2.3095,2.3095,2.3108,2.3108,2.3095,2.3095,2.3095,2.3095,2.3095,2.3095,2.3095,2.3095,2.3095,2.3095,2.3095,2.3095,2.3095,2.3095,2.3095,2.3095,2.3095,2.3065,2.3095,2.3065,2.2944,2.2841,2.2652,2.2384,2.2201,2.1601,2.1032,2.1259,2.1462,2.1295,2.0947,2.0526,2.0147,1.9898,1.9809,1.9901,1.9862,1.9837,1.9837,1.9862,1.9862,1.9888,1.9965,1.9991,1.9939,1.9901,1.9965,1.9939,1.9862,1.985,2.274,2.3062,2.3101,2.3062,2.3091,2.3091,2.3101,2.3091,2.3135,2.3144,2.3101,2.3101,2.3101,2.3101,2.3144,2.3188,2.3232,2.3232,2.3266,2.3178,2.3276,2.3276,2.3276,2.3188,2.344,2.3406,2.3647,2.4264,2.5179,2.6055,2.6603,2.6325,2.6647,2.6647,2.6335,2.6075,2.5921,2.5721,2.4909,2.4217,2.4061,2.3879,2.3806,2.4108,2.4289,2.4506,2.5158,2.5414,2.5455,2.5601,2.5598,2.5365,2.4876,2.4374,2.4136,2.4004,2.3684,2.3459,2.3358,2.3321,2.3183,2.3145,2.3095,2.3095,2.3095,2.3095,2.3095,2.3095,2.3095,2.3095,2.3095,2.3095,2.3095,2.3138,2.3168,2.3168,2.321,2.3228,2.3288,2.3288,2.3288,2.3258,2.3258,2.3288,2.3318,2.3228,2.3198,2.3125,2.307,2.299,2.2556,2.1913,2.2134,2.2299,2.1913,2.1523,2.1118,2.079,2.05,2.0195,2.0054,2.0016,1.9978,1.9978,1.9991,2.0003,2.0029,2.008,2.0118,2.0118,2.0118,2.0169,2.0118,2.0042,1.9965,2.3003,2.3101,2.3101,2.3101,2.3101,2.3101,2.3101,2.3135,2.3329,2.3319,2.3135,2.3091,2.3144,2.3188,2.3363,2.3406,2.3416,2.3493,2.358,2.3657,2.3657,2.3864,2.3754,2.3907,2.4069,2.4478,2.484,2.5347,2.6295,2.7227,2.7837,2.7862,2.7884,2.7582,2.7359,2.703,2.6553,2.6443,2.5978,2.5429,2.5452,2.5674,2.5826,2.5791,2.5826,2.5721,2.6094,2.6151,2.6205,2.6298,2.6285,2.5984,2.5448,2.4908,2.4625,2.4562,2.4374,2.4073,2.3847,2.371,2.3584,2.3258,2.3145,2.312,2.3095,2.3095,2.3095,2.3095,2.3095,2.3095,2.3095,2.3095,2.3138,2.3168,2.3241,2.33,2.3343,2.339,2.3437,2.3437,2.3437,2.3437,2.345,2.345,2.348,2.3509,2.3509,2.348,2.3437,2.3369,2.331,2.2862,2.2937,2.2946,2.2534,2.2171,2.1788,2.1331,2.1002,2.0642,2.0233,2.0182,2.0169,2.0131,2.0131,2.0156,2.0169,2.0182,2.0207,2.0258,2.0283,2.0309,2.0397,2.0372,2.022,2.3276,2.3276,2.3363,2.3396,2.3396,2.3396,2.3396,2.345,2.358,2.358,2.344,2.3396,2.3406,2.3406,2.358,2.3667,2.3667,2.3754,2.4069,2.4274,2.4445,2.4776,2.4787,2.4914,2.5274,2.5714,2.6326,2.6953,2.7585,2.8371,2.8951,2.8944,2.8675,2.8286,2.8059,2.7304,2.6713,2.6512,2.6512,2.6487,2.6487,2.6487,2.6487,2.6487,2.6487,2.6487,2.6487,2.6487,2.6487,2.6487,2.6449,2.6386,2.5946,2.546,2.5209,2.5084,2.4921,2.465,2.4424,2.428,2.4104,2.3728,2.3514,2.3602,2.3283,2.3258,2.3168,2.3168,2.3095,2.3095,2.3138,2.3168,2.3228,2.33,2.339,2.345,2.348,2.3497,2.3526,2.3526,2.3526,2.3526,2.3526,2.3526,2.3556,2.3569,2.3599,2.3628,2.3628,2.3763,2.3688,2.3628,2.3628,2.3501,2.3156,2.2847,2.2519,2.2045,2.1585,2.1043,2.0642,2.0437,2.0322,2.0397,2.0397,2.0322,2.0347,2.0485,2.0435,2.0485,2.046,2.046,2.0573,2.0759,2.0709,2.3547,2.3547,2.3711,2.3797,2.3797,2.3797,2.3797,2.3797,2.3841,2.3851,2.3841,2.3894,2.3841,2.3797,2.3841,2.3927,2.409,2.438,2.4691,2.5221,2.5378,2.5724,2.611,2.6442,2.6554,2.7046,2.7735,2.8159,2.8621,2.9248,2.9548,2.9615,2.9239,2.8662,2.8172,2.7582,2.7077,2.6763,2.6625,2.6512,2.6487,2.6487,2.6487,2.6487,2.6487,2.6487,2.6487,2.6487,2.6487,2.6487,2.6487,2.6449,2.6348,2.5937,2.5824,2.5649,2.546,2.5197,2.4926,2.4863,2.4582,2.4268,2.4155,2.3971,2.3695,2.356,2.35,2.3343,2.3271,2.3228,2.3271,2.3318,2.339,2.348,2.3599,2.3717,2.3717,2.3704,2.3704,2.3704,2.3704,2.3704,2.3704,2.3704,2.3734,2.3747,2.3747,2.3717,2.3776,2.3998,2.4086,2.407,2.4041,2.3872,2.3657,2.3454,2.3184,2.2825,2.2334,2.1616,2.1089,2.1105,2.0997,2.0759,2.0734,2.0847,2.0896,2.1031,2.0945,2.0885,2.1019,2.1129,2.1177,2.1323,2.1348,2.3764,2.3764,2.3797,2.3797,2.3797,2.3797,2.3797,2.3841,2.4067,2.412,2.4153,2.4282,2.4196,2.3841,2.4067,2.4358,2.4956,2.521,2.5955,2.6595,2.6637,2.6853,2.7098,2.7435,2.7557,2.8131,2.8831,2.9365,2.9287,2.9573,2.9779,2.9741,2.9252,2.8825,2.8612,2.8009,2.7356,2.708,2.6839,2.6688,2.66,2.6562,2.6499,2.6487,2.6487,2.6487,2.6487,2.6487,2.6487,2.6487,2.6487,2.6487,2.6436,2.6336,2.6248,2.6172,2.5984,2.5774,2.5586,2.5519,2.5204,2.4809,2.4754,2.4772,2.4582,2.449,2.4292,2.3922,2.3824,2.3637,2.3654,2.3628,2.3688,2.3806,2.3923,2.4041,2.4115,2.4144,2.4173,2.4128,2.4099,2.4128,2.4173,2.4261,2.4405,2.4434,2.4565,2.4507,2.429,2.4405,2.4549,2.452,2.4492,2.4274,2.4102,2.4047,2.3791,2.3495,2.3146,2.2551,2.2148,2.2014,2.1838,2.142,2.1489,2.168,2.1718,2.1503,2.1623,2.1599,2.1789,2.1908,2.186,2.1874,2.186]}]]